Wetterdaten: Donnerstag, 08.06.2017
Datum Zeit Temp. A. Pool Temp. Feuchte A. Luftdruck Regen Wind Richtung Richtung Sonnenschein ET UV Solar Taupunkt Windchill Windben Empfang
08.06.2017 00:00 9,9 C 20,6 C 87 % 1021,9 hPa 0,0 l/m 4,6 km/h (1 Bft) S-SW 198 0 min 0,000 mm 0,0 UV-I 0 W/m 7,8 C 9,9 C 8,0 km/h (2 Bft) 92,16 %
08.06.2017 00:02 9,9 C 20,6 C 87 % 1022,0 hPa 0,0 l/m 4,7 km/h (1 Bft) S-SW 210 0 min 0,000 mm 0,0 UV-I 0 W/m 7,8 C 9,9 C 8,0 km/h (2 Bft) 89,36 %
08.06.2017 00:04 9,9 C 20,6 C 87 % 1022,0 hPa 0,0 l/m 3,5 km/h (1 Bft) S-SW 209 0 min 0,000 mm 0,0 UV-I 0 W/m 7,8 C 9,9 C 8,0 km/h (2 Bft) 95,74 %
08.06.2017 00:06 9,9 C 20,6 C 87 % 1021,9 hPa 0,0 l/m 2,4 km/h (1 Bft) S-SW 199 0 min 0,000 mm 0,0 UV-I 0 W/m 7,8 C 9,9 C 4,8 km/h (1 Bft) 92,68 %
08.06.2017 00:08 9,8 C 20,6 C 87 % 1022,0 hPa 0,0 l/m 3,2 km/h (1 Bft) S-SW 199 0 min 0,000 mm 0,0 UV-I 0 W/m 7,7 C 9,8 C 4,8 km/h (1 Bft) 97,87 %
08.06.2017 00:10 9,8 C 20,6 C 87 % 1021,9 hPa 0,0 l/m 3,0 km/h (1 Bft) S-SW 199 0 min 0,000 mm 0,0 UV-I 0 W/m 7,7 C 9,8 C 4,8 km/h (1 Bft) 94,74 %
08.06.2017 00:12 9,8 C 20,6 C 87 % 1021,9 hPa 0,0 l/m 3,6 km/h (1 Bft) S-SW 194 0 min 0,000 mm 0,0 UV-I 0 W/m 7,7 C 9,8 C 6,4 km/h (2 Bft) 98,11 %
08.06.2017 00:14 9,8 C 20,6 C 87 % 1022,0 hPa 0,0 l/m 4,0 km/h (1 Bft) S-SW 193 0 min 0,000 mm 0,0 UV-I 0 W/m 7,7 C 9,8 C 8,0 km/h (2 Bft) 96,00 %
08.06.2017 00:16 9,7 C 20,6 C 87 % 1022,0 hPa 0,0 l/m 3,7 km/h (1 Bft) S-SW 193 0 min 0,000 mm 0,0 UV-I 0 W/m 7,6 C 9,7 C 6,4 km/h (2 Bft) 95,74 %
08.06.2017 00:18 9,7 C 20,6 C 88 % 1022,0 hPa 0,0 l/m 3,8 km/h (1 Bft) S-SW 192 0 min 0,000 mm 0,0 UV-I 0 W/m 7,8 C 9,7 C 6,4 km/h (2 Bft) 98,00 %
08.06.2017 00:20 9,7 C 20,6 C 88 % 1022,0 hPa 0,0 l/m 4,2 km/h (1 Bft) S-SW 192 0 min 0,000 mm 0,0 UV-I 0 W/m 7,8 C 9,7 C 6,4 km/h (2 Bft) 94,29 %
08.06.2017 00:22 9,7 C 20,6 C 88 % 1022,0 hPa 0,0 l/m 5,2 km/h (1 Bft) S-SW 200 0 min 0,000 mm 0,0 UV-I 0 W/m 7,8 C 9,7 C 9,7 km/h (2 Bft) 98,11 %
08.06.2017 00:24 9,7 C 20,6 C 88 % 1022,0 hPa 0,0 l/m 5,0 km/h (1 Bft) S-SW 196 0 min 0,000 mm 0,0 UV-I 0 W/m 7,8 C 9,7 C 8,0 km/h (2 Bft) 98,11 %
08.06.2017 00:26 9,7 C 20,6 C 88 % 1022,0 hPa 0,0 l/m 5,8 km/h (2 Bft) S 186 0 min 0,000 mm 0,0 UV-I 0 W/m 7,8 C 9,7 C 9,7 km/h (2 Bft) 100,00 %
08.06.2017 00:28 9,7 C 20,6 C 88 % 1022,0 hPa 0,0 l/m 5,3 km/h (1 Bft) S 189 0 min 0,000 mm 0,0 UV-I 0 W/m 7,8 C 9,7 C 9,7 km/h (2 Bft) 98,11 %
08.06.2017 00:30 9,7 C 20,6 C 88 % 1022,1 hPa 0,0 l/m 4,0 km/h (1 Bft) S 186 0 min 0,000 mm 0,0 UV-I 0 W/m 7,8 C 9,7 C 6,4 km/h (2 Bft) 100,00 %
08.06.2017 00:32 9,7 C 20,6 C 87 % 1022,0 hPa 0,0 l/m 5,0 km/h (1 Bft) SW 216 0 min 0,000 mm 0,0 UV-I 0 W/m 7,6 C 9,7 C 9,7 km/h (2 Bft) 100,00 %
08.06.2017 00:34 9,7 C 20,6 C 87 % 1022,0 hPa 0,0 l/m 5,2 km/h (1 Bft) S 190 0 min 0,000 mm 0,0 UV-I 0 W/m 7,6 C 9,7 C 9,7 km/h (2 Bft) 100,00 %
08.06.2017 00:36 9,7 C 20,6 C 87 % 1021,9 hPa 0,0 l/m 5,6 km/h (1 Bft) S-SW 195 0 min 0,000 mm 0,0 UV-I 0 W/m 7,6 C 9,7 C 9,7 km/h (2 Bft) 96,00 %
08.06.2017 00:38 9,7 C 20,6 C 87 % 1021,9 hPa 0,0 l/m 6,1 km/h (2 Bft) S 176 0 min 0,000 mm 0,0 UV-I 0 W/m 7,6 C 9,7 C 11,3 km/h (2 Bft) 97,44 %
08.06.2017 00:40 9,6 C 20,6 C 87 % 1021,9 hPa 0,0 l/m 6,7 km/h (2 Bft) S-SW 201 0 min 0,000 mm 0,0 UV-I 0 W/m 7,5 C 9,4 C 9,7 km/h (2 Bft) 98,11 %
08.06.2017 00:42 9,6 C 20,6 C 87 % 1021,9 hPa 0,0 l/m 6,5 km/h (2 Bft) S-SW 209 0 min 0,000 mm 0,0 UV-I 0 W/m 7,5 C 9,6 C 9,7 km/h (2 Bft) 97,56 %
08.06.2017 00:44 9,6 C 20,6 C 87 % 1021,9 hPa 0,0 l/m 6,5 km/h (2 Bft) S-SW 199 0 min 0,000 mm 0,0 UV-I 0 W/m 7,5 C 9,6 C 9,7 km/h (2 Bft) 100,00 %
08.06.2017 00:46 9,6 C 20,6 C 87 % 1021,9 hPa 0,0 l/m 5,9 km/h (2 Bft) S-SW 207 0 min 0,000 mm 0,0 UV-I 0 W/m 7,5 C 9,6 C 8,0 km/h (2 Bft) 97,87 %
08.06.2017 00:48 9,5 C 20,6 C 87 % 1021,9 hPa 0,0 l/m 4,9 km/h (1 Bft) SW 223 0 min 0,000 mm 0,0 UV-I 0 W/m 7,4 C 9,5 C 9,7 km/h (2 Bft) 97,37 %
08.06.2017 00:50 9,4 C 20,6 C 87 % 1021,9 hPa 0,0 l/m 6,3 km/h (2 Bft) SW 218 0 min 0,000 mm 0,0 UV-I 0 W/m 7,3 C 9,4 C 9,7 km/h (2 Bft) 97,73 %
08.06.2017 00:52 9,4 C 20,6 C 88 % 1021,9 hPa 0,0 l/m 7,1 km/h (2 Bft) SW 215 0 min 0,000 mm 0,0 UV-I 0 W/m 7,5 C 8,9 C 9,7 km/h (2 Bft) 98,31 %
08.06.2017 00:54 9,4 C 20,6 C 88 % 1021,9 hPa 0,0 l/m 6,7 km/h (2 Bft) S-SW 207 0 min 0,000 mm 0,0 UV-I 0 W/m 7,5 C 9,2 C 11,3 km/h (2 Bft) 100,00 %
08.06.2017 00:56 9,3 C 20,6 C 88 % 1021,9 hPa 0,0 l/m 5,8 km/h (2 Bft) SW 227 0 min 0,000 mm 0,0 UV-I 0 W/m 7,4 C 9,3 C 9,7 km/h (2 Bft) 97,56 %
08.06.2017 00:58 9,3 C 20,6 C 88 % 1022,0 hPa 0,0 l/m 6,3 km/h (2 Bft) SW 215 0 min 0,000 mm 0,0 UV-I 0 W/m 7,4 C 9,3 C 8,0 km/h (2 Bft) 98,00 %
08.06.2017 01:00 9,3 C 20,6 C 88 % 1022,0 hPa 0,0 l/m 6,2 km/h (2 Bft) SW 218 0 min 0,000 mm 0,0 UV-I 0 W/m 7,4 C 9,3 C 9,7 km/h (2 Bft) 95,74 %
08.06.2017 01:02 9,3 C 20,6 C 88 % 1022,0 hPa 0,0 l/m 7,1 km/h (2 Bft) S-SW 206 0 min 0,000 mm 0,0 UV-I 0 W/m 7,4 C 8,8 C 9,7 km/h (2 Bft) 92,00 %
08.06.2017 01:04 9,3 C 20,6 C 88 % 1022,0 hPa 0,0 l/m 5,3 km/h (1 Bft) SW 214 0 min 0,000 mm 0,0 UV-I 0 W/m 7,4 C 9,3 C 6,4 km/h (2 Bft) 100,00 %
08.06.2017 01:06 9,3 C 20,6 C 88 % 1022,0 hPa 0,0 l/m 4,8 km/h (1 Bft) SW 214 0 min 0,000 mm 0,0 UV-I 0 W/m 7,4 C 9,3 C 6,4 km/h (2 Bft) 96,00 %
08.06.2017 01:08 9,2 C 20,6 C 88 % 1022,0 hPa 0,0 l/m 6,4 km/h (2 Bft) S-SW 202 0 min 0,000 mm 0,0 UV-I 0 W/m 7,3 C 9,2 C 9,7 km/h (2 Bft) 100,00 %
08.06.2017 01:10 9,1 C 20,6 C 88 % 1022,0 hPa 0,0 l/m 4,5 km/h (1 Bft) SW 224 0 min 0,000 mm 0,0 UV-I 0 W/m 7,2 C 9,1 C 8,0 km/h (2 Bft) 94,74 %
08.06.2017 01:12 9,1 C 20,6 C 89 % 1022,0 hPa 0,0 l/m 4,9 km/h (1 Bft) S-SW 196 0 min 0,000 mm 0,0 UV-I 0 W/m 7,4 C 9,1 C 8,0 km/h (2 Bft) 96,88 %
08.06.2017 01:14 9,0 C 20,6 C 89 % 1021,9 hPa 0,0 l/m 5,2 km/h (1 Bft) S-SW 211 0 min 0,000 mm 0,0 UV-I 0 W/m 7,3 C 9,0 C 8,0 km/h (2 Bft) 100,00 %
08.06.2017 01:16 9,0 C 20,6 C 89 % 1021,9 hPa 0,0 l/m 4,8 km/h (1 Bft) S-SW 205 0 min 0,000 mm 0,0 UV-I 0 W/m 7,3 C 9,0 C 8,0 km/h (2 Bft) 94,74 %
08.06.2017 01:18 9,0 C 20,6 C 89 % 1021,9 hPa 0,0 l/m 4,8 km/h (1 Bft) S-SW 209 0 min 0,000 mm 0,0 UV-I 0 W/m 7,3 C 9,0 C 8,0 km/h (2 Bft) 100,00 %
08.06.2017 01:20 9,0 C 20,6 C 89 % 1021,9 hPa 0,0 l/m 4,3 km/h (1 Bft) S 191 0 min 0,000 mm 0,0 UV-I 0 W/m 7,3 C 9,0 C 8,0 km/h (2 Bft) 97,87 %
08.06.2017 01:22 9,0 C 20,6 C 89 % 1021,9 hPa 0,0 l/m 3,7 km/h (1 Bft) S 186 0 min 0,000 mm 0,0 UV-I 0 W/m 7,3 C 9,0 C 8,0 km/h (2 Bft) 100,00 %
08.06.2017 01:24 9,0 C 20,6 C 89 % 1021,9 hPa 0,0 l/m 4,6 km/h (1 Bft) S-SW 207 0 min 0,000 mm 0,0 UV-I 0 W/m 7,3 C 9,0 C 6,4 km/h (2 Bft) 100,00 %
08.06.2017 01:26 8,9 C 20,6 C 90 % 1021,9 hPa 0,0 l/m 3,9 km/h (1 Bft) S-SW 205 0 min 0,000 mm 0,0 UV-I 0 W/m 7,4 C 8,9 C 6,4 km/h (2 Bft) 96,00 %
08.06.2017 01:28 8,9 C 20,6 C 90 % 1022,0 hPa 0,0 l/m 2,7 km/h (1 Bft) S-SW 204 0 min 0,000 mm 0,0 UV-I 0 W/m 7,4 C 8,9 C 4,8 km/h (1 Bft) 97,56 %
08.06.2017 01:30 8,9 C 20,6 C 90 % 1022,0 hPa 0,0 l/m 3,5 km/h (1 Bft) S-SW 204 0 min 0,000 mm 0,0 UV-I 0 W/m 7,4 C 8,9 C 6,4 km/h (2 Bft) 100,00 %
08.06.2017 01:32 8,9 C 20,6 C 90 % 1021,9 hPa 0,0 l/m 4,1 km/h (1 Bft) S 170 0 min 0,000 mm 0,0 UV-I 0 W/m 7,4 C 8,9 C 9,7 km/h (2 Bft) 97,37 %
08.06.2017 01:34 8,9 C 20,6 C 89 % 1022,0 hPa 0,0 l/m 4,3 km/h (1 Bft) S-SW 199 0 min 0,000 mm 0,0 UV-I 0 W/m 7,2 C 8,9 C 9,7 km/h (2 Bft) 100,00 %
08.06.2017 01:36 8,9 C 20,6 C 90 % 1021,9 hPa 0,0 l/m 4,9 km/h (1 Bft) S 184 0 min 0,000 mm 0,0 UV-I 0 W/m 7,4 C 8,9 C 8,0 km/h (2 Bft) 97,87 %
08.06.2017 01:38 8,9 C 20,6 C 90 % 1021,9 hPa 0,0 l/m 4,3 km/h (1 Bft) S-SW 196 0 min 0,000 mm 0,0 UV-I 0 W/m 7,4 C 8,9 C 8,0 km/h (2 Bft) 97,87 %
08.06.2017 01:40 8,8 C 20,6 C 90 % 1021,9 hPa 0,0 l/m 4,3 km/h (1 Bft) S-SW 194 0 min 0,000 mm 0,0 UV-I 0 W/m 7,3 C 8,8 C 8,0 km/h (2 Bft) 97,87 %
08.06.2017 01:42 8,8 C 20,6 C 90 % 1021,9 hPa 0,0 l/m 4,4 km/h (1 Bft) SW 225 0 min 0,000 mm 0,0 UV-I 0 W/m 7,3 C 8,8 C 6,4 km/h (2 Bft) 98,11 %
08.06.2017 01:44 8,8 C 20,6 C 90 % 1021,9 hPa 0,0 l/m 4,3 km/h (1 Bft) S-SW 211 0 min 0,000 mm 0,0 UV-I 0 W/m 7,3 C 8,8 C 6,4 km/h (2 Bft) 98,00 %
08.06.2017 01:46 8,8 C 20,6 C 90 % 1021,9 hPa 0,0 l/m 4,2 km/h (1 Bft) S-SW 211 0 min 0,000 mm 0,0 UV-I 0 W/m 7,3 C 8,8 C 8,0 km/h (2 Bft) 100,00 %
08.06.2017 01:48 8,8 C 20,6 C 90 % 1021,9 hPa 0,0 l/m 3,7 km/h (1 Bft) S-SW 198 0 min 0,000 mm 0,0 UV-I 0 W/m 7,3 C 8,8 C 6,4 km/h (2 Bft) 97,44 %
08.06.2017 01:50 8,7 C 20,6 C 90 % 1021,9 hPa 0,0 l/m 4,6 km/h (1 Bft) S-SW 211 0 min 0,000 mm 0,0 UV-I 0 W/m 7,2 C 8,7 C 8,0 km/h (2 Bft) 97,37 %
08.06.2017 01:52 8,7 C 20,6 C 90 % 1022,0 hPa 0,0 l/m 3,3 km/h (1 Bft) S-SW 211 0 min 0,000 mm 0,0 UV-I 0 W/m 7,2 C 8,7 C 4,8 km/h (1 Bft) 94,64 %
08.06.2017 01:54 8,7 C 20,6 C 90 % 1022,0 hPa 0,0 l/m 3,8 km/h (1 Bft) S-SW 211 0 min 0,000 mm 0,0 UV-I 0 W/m 7,2 C 8,7 C 4,8 km/h (1 Bft) 95,74 %
08.06.2017 01:56 8,7 C 20,6 C 90 % 1022,0 hPa 0,0 l/m 5,0 km/h (1 Bft) S 170 0 min 0,000 mm 0,0 UV-I 0 W/m 7,2 C 8,7 C 8,0 km/h (2 Bft) 98,11 %
08.06.2017 01:58 8,7 C 20,6 C 90 % 1022,0 hPa 0,0 l/m 5,3 km/h (1 Bft) S 190 0 min 0,000 mm 0,0 UV-I 0 W/m 7,2 C 8,7 C 8,0 km/h (2 Bft) 94,74 %
08.06.2017 02:00 8,7 C 20,6 C 90 % 1022,1 hPa 0,0 l/m 5,4 km/h (1 Bft) S 191 0 min 0,000 mm 0,0 UV-I 0 W/m 7,2 C 8,7 C 8,0 km/h (2 Bft) 96,00 %
08.06.2017 02:02 8,6 C 20,6 C 91 % 1022,0 hPa 0,0 l/m 4,8 km/h (1 Bft) S-SO 165 0 min 0,000 mm 0,0 UV-I 0 W/m 7,2 C 8,6 C 6,4 km/h (2 Bft) 96,23 %
08.06.2017 02:04 8,6 C 20,6 C 91 % 1022,0 hPa 0,0 l/m 5,7 km/h (1 Bft) S 175 0 min 0,000 mm 0,0 UV-I 0 W/m 7,2 C 8,6 C 8,0 km/h (2 Bft) 97,56 %
08.06.2017 02:06 8,6 C 20,6 C 91 % 1022,0 hPa 0,0 l/m 5,2 km/h (1 Bft) S-SW 206 0 min 0,000 mm 0,0 UV-I 0 W/m 7,2 C 8,6 C 6,4 km/h (2 Bft) 92,00 %
08.06.2017 02:08 8,6 C 20,6 C 91 % 1022,0 hPa 0,0 l/m 5,8 km/h (2 Bft) S-SW 194 0 min 0,000 mm 0,0 UV-I 0 W/m 7,2 C 8,6 C 9,7 km/h (2 Bft) 97,56 %
08.06.2017 02:10 8,6 C 20,6 C 91 % 1022,0 hPa 0,0 l/m 5,3 km/h (1 Bft) S 180 0 min 0,000 mm 0,0 UV-I 0 W/m 7,2 C 8,6 C 9,7 km/h (2 Bft) 96,23 %
08.06.2017 02:12 8,6 C 20,6 C 91 % 1022,0 hPa 0,0 l/m 6,1 km/h (2 Bft) S 188 0 min 0,000 mm 0,0 UV-I 0 W/m 7,2 C 8,6 C 9,7 km/h (2 Bft) 95,74 %
08.06.2017 02:14 8,6 C 20,6 C 91 % 1022,0 hPa 0,0 l/m 6,9 km/h (2 Bft) S-SW 198 0 min 0,000 mm 0,0 UV-I 0 W/m 7,2 C 8,2 C 9,7 km/h (2 Bft) 95,74 %
08.06.2017 02:16 8,7 C 20,6 C 91 % 1022,0 hPa 0,0 l/m 6,5 km/h (2 Bft) S-SW 202 0 min 0,000 mm 0,0 UV-I 0 W/m 7,3 C 8,6 C 9,7 km/h (2 Bft) 94,74 %
08.06.2017 02:18 8,6 C 20,6 C 90 % 1021,9 hPa 0,0 l/m 5,0 km/h (1 Bft) SW 221 0 min 0,000 mm 0,0 UV-I 0 W/m 7,1 C 8,6 C 8,0 km/h (2 Bft) 94,34 %
08.06.2017 02:20 8,6 C 20,6 C 90 % 1021,9 hPa 0,0 l/m 3,6 km/h (1 Bft) S 189 0 min 0,000 mm 0,0 UV-I 0 W/m 7,1 C 8,6 C 6,4 km/h (2 Bft) 94,00 %
08.06.2017 02:22 8,6 C 20,6 C 91 % 1022,0 hPa 0,0 l/m 3,2 km/h (1 Bft) S-SW 192 0 min 0,000 mm 0,0 UV-I 0 W/m 7,2 C 8,6 C 8,0 km/h (2 Bft) 94,44 %
08.06.2017 02:24 8,6 C 20,6 C 91 % 1022,0 hPa 0,0 l/m 5,3 km/h (1 Bft) S-SW 193 0 min 0,000 mm 0,0 UV-I 0 W/m 7,2 C 8,6 C 8,0 km/h (2 Bft) 96,15 %
08.06.2017 02:26 8,6 C 20,6 C 91 % 1022,1 hPa 0,0 l/m 5,1 km/h (1 Bft) SW 216 0 min 0,000 mm 0,0 UV-I 0 W/m 7,2 C 8,6 C 8,0 km/h (2 Bft) 95,83 %
08.06.2017 02:28 8,6 C 20,6 C 91 % 1022,0 hPa 0,0 l/m 5,0 km/h (1 Bft) S-SW 213 0 min 0,000 mm 0,0 UV-I 0 W/m 7,2 C 8,6 C 8,0 km/h (2 Bft) 93,62 %
08.06.2017 02:30 8,5 C 20,6 C 91 % 1022,0 hPa 0,0 l/m 5,5 km/h (1 Bft) S-SW 193 0 min 0,000 mm 0,0 UV-I 0 W/m 7,1 C 8,5 C 8,0 km/h (2 Bft) 96,15 %
08.06.2017 02:32 8,4 C 20,6 C 91 % 1022,0 hPa 0,0 l/m 4,8 km/h (1 Bft) SW 218 0 min 0,000 mm 0,0 UV-I 0 W/m 7,0 C 8,4 C 6,4 km/h (2 Bft) 97,92 %
08.06.2017 02:34 8,4 C 20,6 C 91 % 1022,0 hPa 0,0 l/m 5,3 km/h (1 Bft) S-SW 205 0 min 0,000 mm 0,0 UV-I 0 W/m 7,0 C 8,4 C 8,0 km/h (2 Bft) 92,68 %
08.06.2017 02:36 8,4 C 20,6 C 91 % 1022,1 hPa 0,0 l/m 4,9 km/h (1 Bft) S-SW 213 0 min 0,000 mm 0,0 UV-I 0 W/m 7,0 C 8,4 C 9,7 km/h (2 Bft) 96,00 %
08.06.2017 02:38 8,3 C 20,6 C 91 % 1022,1 hPa 0,0 l/m 5,0 km/h (1 Bft) S-SW 195 0 min 0,000 mm 0,0 UV-I 0 W/m 6,9 C 8,3 C 6,4 km/h (2 Bft) 97,56 %
08.06.2017 02:40 8,3 C 20,6 C 91 % 1022,0 hPa 0,0 l/m 4,4 km/h (1 Bft) S-SW 210 0 min 0,000 mm 0,0 UV-I 0 W/m 6,9 C 8,3 C 8,0 km/h (2 Bft) 92,86 %
08.06.2017 02:42 8,3 C 20,6 C 91 % 1022,1 hPa 0,0 l/m 4,8 km/h (1 Bft) S-SW 206 0 min 0,000 mm 0,0 UV-I 0 W/m 6,9 C 8,3 C 8,0 km/h (2 Bft) 94,29 %
08.06.2017 02:44 8,3 C 20,6 C 91 % 1022,1 hPa 0,0 l/m 4,6 km/h (1 Bft) S-SW 195 0 min 0,000 mm 0,0 UV-I 0 W/m 6,9 C 8,3 C 6,4 km/h (2 Bft) 95,74 %
08.06.2017 02:46 8,3 C 20,6 C 91 % 1022,1 hPa 0,0 l/m 2,1 km/h (1 Bft) S 183 0 min 0,000 mm 0,0 UV-I 0 W/m 6,9 C 8,3 C 6,4 km/h (2 Bft) 98,11 %
08.06.2017 02:48 8,3 C 20,6 C 91 % 1022,1 hPa 0,0 l/m 4,8 km/h (1 Bft) SW 216 0 min 0,000 mm 0,0 UV-I 0 W/m 6,9 C 8,3 C 6,4 km/h (2 Bft) 98,00 %
08.06.2017 02:50 8,3 C 20,6 C 91 % 1022,2 hPa 0,0 l/m 4,8 km/h (1 Bft) SW 220 0 min 0,000 mm 0,0 UV-I 0 W/m 6,9 C 8,3 C 6,4 km/h (2 Bft) 97,14 %
08.06.2017 02:52 8,3 C 20,6 C 91 % 1022,2 hPa 0,0 l/m 4,4 km/h (1 Bft) SW 220 0 min 0,000 mm 0,0 UV-I 0 W/m 6,9 C 8,3 C 6,4 km/h (2 Bft) 94,64 %
08.06.2017 02:54 8,3 C 20,6 C 91 % 1022,2 hPa 0,0 l/m 3,2 km/h (1 Bft) SW 220 0 min 0,000 mm 0,0 UV-I 0 W/m 6,9 C 8,3 C 6,4 km/h (2 Bft) 95,74 %
08.06.2017 02:56 8,2 C 20,6 C 91 % 1022,1 hPa 0,0 l/m 3,0 km/h (1 Bft) SW 220 0 min 0,000 mm 0,0 UV-I 0 W/m 6,8 C 8,2 C 4,8 km/h (1 Bft) 95,74 %
08.06.2017 02:58 8,2 C 20,6 C 91 % 1022,1 hPa 0,0 l/m 2,8 km/h (1 Bft) SW 220 0 min 0,000 mm 0,0 UV-I 0 W/m 6,8 C 8,2 C 6,4 km/h (2 Bft) 97,87 %
08.06.2017 03:00 8,2 C 20,6 C 91 % 1022,1 hPa 0,0 l/m 3,9 km/h (1 Bft) SW 228 0 min 0,000 mm 0,0 UV-I 0 W/m 6,8 C 8,2 C 6,4 km/h (2 Bft) 95,12 %
08.06.2017 03:02 8,2 C 20,6 C 91 % 1022,1 hPa 0,0 l/m 5,3 km/h (1 Bft) SW 218 0 min 0,000 mm 0,0 UV-I 0 W/m 6,8 C 8,2 C 8,0 km/h (2 Bft) 94,00 %
08.06.2017 03:04 8,1 C 20,6 C 91 % 1022,1 hPa 0,0 l/m 5,5 km/h (1 Bft) SW 217 0 min 0,000 mm 0,0 UV-I 0 W/m 6,7 C 8,1 C 8,0 km/h (2 Bft) 98,11 %
08.06.2017 03:06 8,1 C 20,6 C 91 % 1022,1 hPa 0,0 l/m 3,6 km/h (1 Bft) S-SW 196 0 min 0,000 mm 0,0 UV-I 0 W/m 6,7 C 8,1 C 4,8 km/h (1 Bft) 94,87 %
08.06.2017 03:08 8,1 C 20,6 C 91 % 1022,1 hPa 0,0 l/m 4,7 km/h (1 Bft) S-SW 193 0 min 0,000 mm 0,0 UV-I 0 W/m 6,7 C 8,1 C 8,0 km/h (2 Bft) 100,00 %
08.06.2017 03:10 8,1 C 20,0 C 91 % 1022,2 hPa 0,0 l/m 5,2 km/h (1 Bft) S 170 0 min 0,000 mm 0,0 UV-I 0 W/m 6,7 C 8,1 C 8,0 km/h (2 Bft) 95,12 %
08.06.2017 03:12 8,0 C 20,6 C 91 % 1022,2 hPa 0,0 l/m 4,4 km/h (1 Bft) S 176 0 min 0,000 mm 0,0 UV-I 0 W/m 6,6 C 8,0 C 8,0 km/h (2 Bft) 97,87 %
08.06.2017 03:14 8,0 C 20,0 C 91 % 1022,4 hPa 0,0 l/m 3,8 km/h (1 Bft) S-SW 196 0 min 0,000 mm 0,0 UV-I 0 W/m 6,6 C 8,0 C 8,0 km/h (2 Bft) 98,00 %
08.06.2017 03:16 8,0 C 20,0 C 92 % 1022,4 hPa 0,0 l/m 4,6 km/h (1 Bft) S-SW 196 0 min 0,000 mm 0,0 UV-I 0 W/m 6,8 C 8,0 C 6,4 km/h (2 Bft) 96,23 %
08.06.2017 03:18 8,0 C 20,0 C 92 % 1022,3 hPa 0,0 l/m 2,9 km/h (1 Bft) S 190 0 min 0,000 mm 0,0 UV-I 0 W/m 6,8 C 8,0 C 8,0 km/h (2 Bft) 100,00 %
08.06.2017 03:20 7,9 C 20,0 C 92 % 1022,3 hPa 0,0 l/m 5,1 km/h (1 Bft) S-SW 197 0 min 0,000 mm 0,0 UV-I 0 W/m 6,7 C 7,9 C 6,4 km/h (2 Bft) 95,45 %
08.06.2017 03:22 7,9 C 20,0 C 92 % 1022,3 hPa 0,0 l/m 4,2 km/h (1 Bft) S-SW 197 0 min 0,000 mm 0,0 UV-I 0 W/m 6,7 C 7,9 C 6,4 km/h (2 Bft) 98,11 %
08.06.2017 03:24 7,9 C 20,0 C 92 % 1022,3 hPa 0,0 l/m 4,5 km/h (1 Bft) S-SW 198 0 min 0,000 mm 0,0 UV-I 0 W/m 6,7 C 7,9 C 6,4 km/h (2 Bft) 96,00 %
08.06.2017 03:26 7,9 C 20,0 C 92 % 1022,3 hPa 0,0 l/m 4,4 km/h (1 Bft) S-SW 199 0 min 0,000 mm 0,0 UV-I 0 W/m 6,7 C 7,9 C 8,0 km/h (2 Bft) 95,74 %
08.06.2017 03:28 7,9 C 20,0 C 92 % 1022,3 hPa 0,0 l/m 5,8 km/h (2 Bft) S-SW 209 0 min 0,000 mm 0,0 UV-I 0 W/m 6,7 C 7,9 C 8,0 km/h (2 Bft) 100,00 %
08.06.2017 03:30 7,8 C 20,0 C 92 % 1022,3 hPa 0,0 l/m 6,2 km/h (2 Bft) S-SW 205 0 min 0,000 mm 0,0 UV-I 0 W/m 6,6 C 7,8 C 9,7 km/h (2 Bft) 95,74 %
08.06.2017 03:32 7,8 C 20,0 C 92 % 1022,3 hPa 0,0 l/m 4,6 km/h (1 Bft) S 185 0 min 0,000 mm 0,0 UV-I 0 W/m 6,6 C 7,8 C 8,0 km/h (2 Bft) 97,37 %
08.06.2017 03:34 7,8 C 20,0 C 92 % 1022,2 hPa 0,0 l/m 4,2 km/h (1 Bft) S 179 0 min 0,000 mm 0,0 UV-I 0 W/m 6,6 C 7,8 C 8,0 km/h (2 Bft) 94,12 %
08.06.2017 03:36 7,8 C 20,0 C 92 % 1022,1 hPa 0,0 l/m 3,9 km/h (1 Bft) S-SW 193 0 min 0,000 mm 0,0 UV-I 0 W/m 6,6 C 7,8 C 6,4 km/h (2 Bft) 100,00 %
08.06.2017 03:38 7,8 C 20,0 C 92 % 1022,2 hPa 0,0 l/m 5,3 km/h (1 Bft) SW 221 0 min 0,000 mm 0,0 UV-I 0 W/m 6,6 C 7,8 C 8,0 km/h (2 Bft) 98,00 %
08.06.2017 03:40 7,8 C 20,0 C 92 % 1022,3 hPa 0,0 l/m 6,2 km/h (2 Bft) S-SW 207 0 min 0,000 mm 0,0 UV-I 0 W/m 6,6 C 7,8 C 9,7 km/h (2 Bft) 100,00 %
08.06.2017 03:42 7,8 C 20,0 C 92 % 1022,3 hPa 0,0 l/m 5,7 km/h (1 Bft) S 177 0 min 0,000 mm 0,0 UV-I 0 W/m 6,6 C 7,8 C 9,7 km/h (2 Bft) 97,87 %
08.06.2017 03:44 7,8 C 20,0 C 92 % 1022,2 hPa 0,0 l/m 5,8 km/h (2 Bft) S 188 0 min 0,000 mm 0,0 UV-I 0 W/m 6,6 C 7,8 C 8,0 km/h (2 Bft) 100,00 %
08.06.2017 03:46 7,8 C 20,0 C 92 % 1022,2 hPa 0,0 l/m 6,8 km/h (2 Bft) S-SW 209 0 min 0,000 mm 0,0 UV-I 0 W/m 6,6 C 7,5 C 11,3 km/h (2 Bft) 96,36 %
08.06.2017 03:48 7,8 C 20,0 C 92 % 1022,2 hPa 0,0 l/m 6,2 km/h (2 Bft) SW 217 0 min 0,000 mm 0,0 UV-I 0 W/m 6,6 C 7,8 C 9,7 km/h (2 Bft) 100,00 %
08.06.2017 03:50 7,8 C 20,0 C 92 % 1022,2 hPa 0,0 l/m 6,3 km/h (2 Bft) S-SW 194 0 min 0,000 mm 0,0 UV-I 0 W/m 6,6 C 7,8 C 9,7 km/h (2 Bft) 96,00 %
08.06.2017 03:52 7,8 C 20,0 C 92 % 1022,2 hPa 0,0 l/m 6,9 km/h (2 Bft) S-SW 204 0 min 0,000 mm 0,0 UV-I 0 W/m 6,6 C 7,4 C 11,3 km/h (2 Bft) 95,12 %
08.06.2017 03:54 7,7 C 20,0 C 92 % 1022,2 hPa 0,0 l/m 7,2 km/h (2 Bft) S-SW 209 0 min 0,000 mm 0,0 UV-I 0 W/m 6,5 C 7,1 C 9,7 km/h (2 Bft) 96,00 %
08.06.2017 03:56 7,7 C 20,0 C 92 % 1022,2 hPa 0,0 l/m 7,0 km/h (2 Bft) SW 215 0 min 0,000 mm 0,0 UV-I 0 W/m 6,5 C 7,2 C 9,7 km/h (2 Bft) 93,62 %
08.06.2017 03:58 7,7 C 20,0 C 92 % 1022,2 hPa 0,0 l/m 6,8 km/h (2 Bft) SW 216 0 min 0,000 mm 0,0 UV-I 0 W/m 6,5 C 7,4 C 9,7 km/h (2 Bft) 96,43 %
08.06.2017 04:00 7,7 C 20,0 C 92 % 1022,2 hPa 0,0 l/m 5,2 km/h (1 Bft) S-SW 205 0 min 0,000 mm 0,0 UV-I 0 W/m 6,5 C 7,7 C 6,4 km/h (2 Bft) 91,30 %
08.06.2017 04:02 7,7 C 20,0 C 92 % 1022,2 hPa 0,0 l/m 5,4 km/h (1 Bft) SW 217 0 min 0,000 mm 0,0 UV-I 0 W/m 6,5 C 7,7 C 8,0 km/h (2 Bft) 93,94 %
08.06.2017 04:04 7,7 C 20,0 C 92 % 1022,2 hPa 0,0 l/m 5,9 km/h (2 Bft) S-SW 211 0 min 0,000 mm 0,0 UV-I 0 W/m 6,5 C 7,7 C 8,0 km/h (2 Bft) 98,00 %
08.06.2017 04:06 7,7 C 20,0 C 92 % 1022,3 hPa 0,0 l/m 5,5 km/h (1 Bft) S-SW 203 0 min 0,000 mm 0,0 UV-I 0 W/m 6,5 C 7,7 C 8,0 km/h (2 Bft) 94,34 %
08.06.2017 04:08 7,7 C 20,0 C 92 % 1022,3 hPa 0,0 l/m 6,0 km/h (2 Bft) SW 215 0 min 0,000 mm 0,0 UV-I 0 W/m 6,5 C 7,7 C 9,7 km/h (2 Bft) 97,56 %
08.06.2017 04:10 7,6 C 20,0 C 92 % 1022,3 hPa 0,0 l/m 5,5 km/h (1 Bft) S-SW 201 0 min 0,000 mm 0,0 UV-I 0 W/m 6,4 C 7,6 C 8,0 km/h (2 Bft) 96,00 %
08.06.2017 04:12 7,6 C 20,0 C 92 % 1022,3 hPa 0,0 l/m 4,7 km/h (1 Bft) S-SW 201 0 min 0,000 mm 0,0 UV-I 0 W/m 6,4 C 7,6 C 6,4 km/h (2 Bft) 95,74 %
08.06.2017 04:14 7,6 C 20,0 C 92 % 1022,3 hPa 0,0 l/m 5,2 km/h (1 Bft) S-SW 201 0 min 0,000 mm 0,0 UV-I 0 W/m 6,4 C 7,6 C 8,0 km/h (2 Bft) 97,37 %
08.06.2017 04:16 7,6 C 20,0 C 92 % 1022,2 hPa 0,0 l/m 5,3 km/h (1 Bft) S-SW 201 0 min 0,000 mm 0,0 UV-I 0 W/m 6,4 C 7,6 C 8,0 km/h (2 Bft) 98,11 %
08.06.2017 04:18 7,6 C 20,0 C 92 % 1022,3 hPa 0,0 l/m 7,0 km/h (2 Bft) S-SW 194 0 min 0,000 mm 0,0 UV-I 0 W/m 6,4 C 7,1 C 9,7 km/h (2 Bft) 97,37 %
08.06.2017 04:20 7,6 C 20,0 C 92 % 1022,2 hPa 0,0 l/m 6,1 km/h (2 Bft) S 188 0 min 0,000 mm 0,0 UV-I 0 W/m 6,4 C 7,6 C 8,0 km/h (2 Bft) 94,34 %
08.06.2017 04:22 7,6 C 20,0 C 92 % 1022,2 hPa 0,0 l/m 3,4 km/h (1 Bft) S 188 0 min 0,000 mm 0,0 UV-I 0 W/m 6,4 C 7,6 C 6,4 km/h (2 Bft) 95,24 %
08.06.2017 04:24 7,6 C 20,0 C 92 % 1022,2 hPa 0,0 l/m 3,1 km/h (1 Bft) S 188 0 min 0,000 mm 0,0 UV-I 0 W/m 6,4 C 7,6 C 4,8 km/h (1 Bft) 94,83 %
08.06.2017 04:26 7,6 C 20,0 C 92 % 1022,3 hPa 0,0 l/m 3,1 km/h (1 Bft) S 189 0 min 0,000 mm 0,0 UV-I 0 W/m 6,4 C 7,6 C 4,8 km/h (1 Bft) 94,44 %
08.06.2017 04:28 7,6 C 20,0 C 92 % 1022,2 hPa 0,0 l/m 4,3 km/h (1 Bft) S-SW 209 0 min 0,000 mm 0,0 UV-I 0 W/m 6,4 C 7,6 C 6,4 km/h (2 Bft) 98,00 %
08.06.2017 04:30 7,6 C 20,0 C 92 % 1022,2 hPa 0,0 l/m 4,4 km/h (1 Bft) SW 220 0 min 0,000 mm 0,0 UV-I 0 W/m 6,4 C 7,6 C 6,4 km/h (2 Bft) 98,21 %
08.06.2017 04:32 7,6 C 20,0 C 92 % 1022,3 hPa 0,0 l/m 4,0 km/h (1 Bft) SW 220 0 min 0,000 mm 0,0 UV-I 0 W/m 6,4 C 7,6 C 4,8 km/h (1 Bft) 94,74 %
08.06.2017 04:34 7,5 C 20,0 C 92 % 1022,2 hPa 0,0 l/m 4,1 km/h (1 Bft) S-SW 209 0 min 0,000 mm 0,0 UV-I 0 W/m 6,3 C 7,5 C 6,4 km/h (2 Bft) 96,00 %
08.06.2017 04:36 7,5 C 20,0 C 92 % 1022,2 hPa 0,0 l/m 3,8 km/h (1 Bft) S 187 0 min 0,000 mm 0,0 UV-I 0 W/m 6,3 C 7,5 C 6,4 km/h (2 Bft) 98,00 %
08.06.2017 04:38 7,5 C 20,0 C 92 % 1022,2 hPa 0,0 l/m 2,7 km/h (1 Bft) S 187 0 min 0,000 mm 0,0 UV-I 0 W/m 6,3 C 7,5 C 6,4 km/h (2 Bft) 100,00 %
08.06.2017 04:40 7,5 C 20,0 C 92 % 1022,2 hPa 0,0 l/m 2,5 km/h (1 Bft) S 187 0 min 0,000 mm 0,0 UV-I 0 W/m 6,3 C 7,5 C 4,8 km/h (1 Bft) 96,43 %
08.06.2017 04:42 7,6 C 20,0 C 92 % 1022,2 hPa 0,0 l/m 3,1 km/h (1 Bft) S 187 0 min 0,000 mm 0,0 UV-I 0 W/m 6,4 C 7,6 C 6,4 km/h (2 Bft) 100,00 %
08.06.2017 04:44 7,6 C 20,0 C 92 % 1022,2 hPa 0,0 l/m 3,5 km/h (1 Bft) S 186 0 min 0,000 mm 0,0 UV-I 0 W/m 6,4 C 7,6 C 4,8 km/h (1 Bft) 97,37 %
08.06.2017 04:46 7,6 C 20,0 C 92 % 1022,2 hPa 0,0 l/m 3,5 km/h (1 Bft) S 186 0 min 0,000 mm 0,0 UV-I 0 W/m 6,4 C 7,6 C 4,8 km/h (1 Bft) 100,00 %
08.06.2017 04:48 7,6 C 20,0 C 92 % 1022,3 hPa 0,0 l/m 3,2 km/h (1 Bft) S 186 0 min 0,000 mm 0,0 UV-I 5 W/m 6,4 C 7,6 C 4,8 km/h (1 Bft) 100,00 %
08.06.2017 04:50 7,6 C 20,0 C 92 % 1022,3 hPa 0,0 l/m 2,4 km/h (1 Bft) S 186 0 min 0,000 mm 0,0 UV-I 5 W/m 6,4 C 7,6 C 4,8 km/h (1 Bft) 100,00 %
08.06.2017 04:52 7,6 C 20,0 C 92 % 1022,3 hPa 0,0 l/m 3,2 km/h (1 Bft) S 181 0 min 0,000 mm 0,0 UV-I 5 W/m 6,4 C 7,6 C 6,4 km/h (2 Bft) 98,00 %
08.06.2017 04:54 7,6 C 20,0 C 92 % 1022,4 hPa 0,0 l/m 3,1 km/h (1 Bft) S 181 0 min 0,000 mm 0,0 UV-I 5 W/m 6,4 C 7,6 C 4,8 km/h (1 Bft) 100,00 %
08.06.2017 04:56 7,7 C 20,0 C 92 % 1022,4 hPa 0,0 l/m 3,7 km/h (1 Bft) S 179 0 min 0,000 mm 0,0 UV-I 5 W/m 6,5 C 7,7 C 6,4 km/h (2 Bft) 100,00 %
08.06.2017 04:58 7,7 C 20,0 C 92 % 1022,3 hPa 0,0 l/m 3,7 km/h (1 Bft) S 179 0 min 0,000 mm 0,0 UV-I 6 W/m 6,5 C 7,7 C 6,4 km/h (2 Bft) 97,87 %
08.06.2017 05:00 7,7 C 20,0 C 92 % 1022,4 hPa 0,0 l/m 3,4 km/h (1 Bft) S-SW 200 0 min 0,000 mm 0,0 UV-I 7 W/m 6,5 C 7,7 C 6,4 km/h (2 Bft) 98,00 %
08.06.2017 05:02 7,7 C 20,0 C 92 % 1022,3 hPa 0,0 l/m 3,2 km/h (1 Bft) W-SW 242 0 min 0,000 mm 0,0 UV-I 7 W/m 6,5 C 7,7 C 4,8 km/h (1 Bft) 95,24 %
08.06.2017 05:04 7,7 C 20,0 C 92 % 1022,3 hPa 0,0 l/m 2,7 km/h (1 Bft) SW 236 0 min 0,000 mm 0,0 UV-I 7 W/m 6,5 C 7,7 C 4,8 km/h (1 Bft) 100,00 %
08.06.2017 05:06 7,7 C 20,0 C 92 % 1022,4 hPa 0,0 l/m 2,5 km/h (1 Bft) SW 235 0 min 0,000 mm 0,0 UV-I 9 W/m 6,5 C 7,7 C 4,8 km/h (1 Bft) 97,62 %
08.06.2017 05:08 7,7 C 20,0 C 92 % 1022,4 hPa 0,0 l/m 3,5 km/h (1 Bft) SW 235 0 min 0,000 mm 0,0 UV-I 9 W/m 6,5 C 7,7 C 4,8 km/h (1 Bft) 100,00 %
08.06.2017 05:10 7,7 C 20,0 C 92 % 1022,4 hPa 0,0 l/m 3,0 km/h (1 Bft) SW 235 0 min 0,000 mm 0,0 UV-I 11 W/m 6,5 C 7,7 C 4,8 km/h (1 Bft) 100,00 %
08.06.2017 05:12 7,6 C 20,0 C 92 % 1022,3 hPa 0,0 l/m 3,8 km/h (1 Bft) SW 235 0 min 0,000 mm 0,0 UV-I 11 W/m 6,4 C 7,6 C 6,4 km/h (2 Bft) 97,56 %
08.06.2017 05:14 7,6 C 20,0 C 92 % 1022,4 hPa 0,0 l/m 3,0 km/h (1 Bft) SW 235 0 min 0,000 mm 0,0 UV-I 11 W/m 6,4 C 7,6 C 4,8 km/h (1 Bft) 100,00 %
08.06.2017 05:16 7,6 C 20,0 C 92 % 1022,4 hPa 0,0 l/m 4,3 km/h (1 Bft) SW 235 0 min 0,000 mm 0,0 UV-I 12 W/m 6,4 C 7,6 C 6,4 km/h (2 Bft) 100,00 %
08.06.2017 05:18 7,5 C 20,0 C 92 % 1022,3 hPa 0,0 l/m 3,2 km/h (1 Bft) SW 235 2 min 0,000 mm 0,0 UV-I 12 W/m 6,3 C 7,5 C 6,4 km/h (2 Bft) 100,00 %
08.06.2017 05:20 7,5 C 20,0 C 92 % 1022,3 hPa 0,0 l/m 0,5 km/h (0 Bft) SW 235 2 min 0,000 mm 0,0 UV-I 14 W/m 6,3 C 7,5 C 3,2 km/h (1 Bft) 100,00 %
08.06.2017 05:22 7,4 C 20,0 C 92 % 1022,4 hPa 0,0 l/m 0,2 km/h (0 Bft) SW 235 0 min 0,000 mm 0,0 UV-I 14 W/m 6,2 C 7,4 C 1,6 km/h (1 Bft) 97,78 %
08.06.2017 05:24 7,4 C 20,0 C 92 % 1022,4 hPa 0,0 l/m 0,5 km/h (0 Bft) SW 235 0 min 0,000 mm 0,0 UV-I 16 W/m 6,2 C 7,4 C 3,2 km/h (1 Bft) 93,62 %
08.06.2017 05:26 7,4 C 20,0 C 92 % 1022,4 hPa 0,0 l/m 0,7 km/h (0 Bft) SW 236 2 min 0,000 mm 0,0 UV-I 22 W/m 6,2 C 7,4 C 3,2 km/h (1 Bft) 97,87 %
08.06.2017 05:28 7,4 C 20,0 C 92 % 1022,5 hPa 0,0 l/m 0,2 km/h (0 Bft) SW 236 2 min 0,000 mm 0,0 UV-I 30 W/m 6,2 C 7,4 C 1,6 km/h (1 Bft) 94,34 %
08.06.2017 05:30 7,3 C 20,0 C 92 % 1022,5 hPa 0,0 l/m 0,0 km/h (0 Bft) SW 235 0 min 0,000 mm 0,0 UV-I 23 W/m 6,1 C 7,3 C 1,6 km/h (1 Bft) 94,29 %
08.06.2017 05:32 7,4 C 20,0 C 93 % 1022,4 hPa 0,0 l/m 0,1 km/h (0 Bft) SW 235 0 min 0,000 mm 0,0 UV-I 15 W/m 6,3 C 7,4 C 1,6 km/h (1 Bft) 96,23 %
08.06.2017 05:34 7,4 C 20,0 C 92 % 1022,4 hPa 0,0 l/m 0,0 km/h (0 Bft) SW 235 0 min 0,000 mm 0,0 UV-I 14 W/m 6,2 C 7,4 C 0,0 km/h (0 Bft) 96,00 %
08.06.2017 05:36 7,4 C 20,0 C 93 % 1022,4 hPa 0,0 l/m 0,0 km/h (0 Bft) SW 235 0 min 0,000 mm 0,0 UV-I 14 W/m 6,3 C 7,4 C 1,6 km/h (1 Bft) 97,56 %
08.06.2017 05:38 7,4 C 20,0 C 93 % 1022,5 hPa 0,0 l/m 0,7 km/h (0 Bft) SW 235 0 min 0,000 mm 0,0 UV-I 16 W/m 6,3 C 7,4 C 1,6 km/h (1 Bft) 96,23 %
08.06.2017 05:40 7,4 C 20,0 C 93 % 1022,5 hPa 0,0 l/m 0,0 km/h (0 Bft) SW 236 0 min 0,000 mm 0,0 UV-I 17 W/m 6,3 C 7,4 C 0,0 km/h (0 Bft) 95,74 %
08.06.2017 05:42 7,3 C 20,0 C 93 % 1022,5 hPa 0,0 l/m 1,9 km/h (1 Bft) SW 236 0 min 0,000 mm 0,0 UV-I 19 W/m 6,2 C 7,3 C 3,2 km/h (1 Bft) 97,22 %
08.06.2017 05:44 7,3 C 20,0 C 93 % 1022,5 hPa 0,0 l/m 3,2 km/h (1 Bft) SW 235 0 min 0,000 mm 0,0 UV-I 21 W/m 6,2 C 7,3 C 3,2 km/h (1 Bft) 96,36 %
08.06.2017 05:46 7,3 C 20,0 C 93 % 1022,5 hPa 0,0 l/m 3,5 km/h (1 Bft) SW 235 0 min 0,000 mm 0,0 UV-I 20 W/m 6,2 C 7,3 C 4,8 km/h (1 Bft) 98,04 %
08.06.2017 05:48 7,3 C 20,0 C 93 % 1022,6 hPa 0,0 l/m 4,1 km/h (1 Bft) SW 235 0 min 0,000 mm 0,0 UV-I 21 W/m 6,2 C 7,3 C 4,8 km/h (1 Bft) 94,74 %
08.06.2017 05:50 7,3 C 20,0 C 93 % 1022,5 hPa 0,0 l/m 3,1 km/h (1 Bft) SW 235 0 min 0,000 mm 0,0 UV-I 25 W/m 6,2 C 7,3 C 4,8 km/h (1 Bft) 96,00 %
08.06.2017 05:52 7,3 C 20,0 C 92 % 1022,6 hPa 0,0 l/m 3,6 km/h (1 Bft) SW 235 0 min 0,000 mm 0,0 UV-I 28 W/m 6,1 C 7,3 C 4,8 km/h (1 Bft) 96,23 %
08.06.2017 05:54 7,2 C 20,0 C 93 % 1022,5 hPa 0,0 l/m 3,1 km/h (1 Bft) SW 235 0 min 0,000 mm 0,0 UV-I 31 W/m 6,1 C 7,2 C 4,8 km/h (1 Bft) 97,87 %
08.06.2017 05:56 7,2 C 20,0 C 93 % 1022,5 hPa 0,0 l/m 3,8 km/h (1 Bft) SW 235 0 min 0,000 mm 0,0 UV-I 23 W/m 6,1 C 7,2 C 4,8 km/h (1 Bft) 95,74 %
08.06.2017 05:58 7,1 C 20,0 C 93 % 1022,5 hPa 0,0 l/m 4,0 km/h (1 Bft) SW 235 0 min 0,000 mm 0,0 UV-I 25 W/m 6,0 C 7,1 C 6,4 km/h (2 Bft) 91,49 %
08.06.2017 06:00 7,1 C 20,0 C 93 % 1022,5 hPa 0,0 l/m 4,8 km/h (1 Bft) SW 235 0 min 0,000 mm 0,0 UV-I 26 W/m 6,0 C 7,1 C 6,4 km/h (2 Bft) 94,29 %
08.06.2017 06:02 7,2 C 20,0 C 93 % 1022,5 hPa 0,0 l/m 4,8 km/h (1 Bft) SW 235 0 min 0,000 mm 0,0 UV-I 30 W/m 6,1 C 7,2 C 6,4 km/h (2 Bft) 94,34 %
08.06.2017 06:04 7,2 C 20,0 C 93 % 1022,6 hPa 0,0 l/m 4,6 km/h (1 Bft) SW 235 0 min 0,000 mm 0,0 UV-I 40 W/m 6,1 C 7,2 C 6,4 km/h (2 Bft) 94,34 %
08.06.2017 06:06 7,2 C 20,0 C 93 % 1022,6 hPa 0,0 l/m 5,2 km/h (1 Bft) SW 235 0 min 0,000 mm 0,0 UV-I 74 W/m 6,1 C 7,2 C 6,4 km/h (2 Bft) 94,74 %
08.06.2017 06:08 7,2 C 20,0 C 93 % 1022,6 hPa 0,0 l/m 4,8 km/h (1 Bft) SW 233 2 min 0,000 mm 0,0 UV-I 98 W/m 6,1 C 7,2 C 8,0 km/h (2 Bft) 95,74 %
08.06.2017 06:10 7,3 C 20,0 C 93 % 1022,6 hPa 0,0 l/m 4,2 km/h (1 Bft) SW 232 2 min 0,000 mm 0,0 UV-I 114 W/m 6,2 C 7,3 C 8,0 km/h (2 Bft) 97,56 %
08.06.2017 06:12 7,3 C 20,0 C 93 % 1022,6 hPa 0,0 l/m 3,7 km/h (1 Bft) SW 229 2 min 0,000 mm 0,0 UV-I 120 W/m 6,2 C 7,3 C 8,0 km/h (2 Bft) 96,23 %
08.06.2017 06:14 7,4 C 20,0 C 93 % 1022,5 hPa 0,0 l/m 4,3 km/h (1 Bft) SW 225 2 min 0,000 mm 0,0 UV-I 121 W/m 6,3 C 7,4 C 6,4 km/h (2 Bft) 96,23 %
08.06.2017 06:16 7,5 C 20,0 C 93 % 1022,6 hPa 0,0 l/m 4,4 km/h (1 Bft) SW 225 2 min 0,000 mm 0,0 UV-I 122 W/m 6,4 C 7,5 C 8,0 km/h (2 Bft) 95,12 %
08.06.2017 06:18 7,7 C 20,0 C 93 % 1022,5 hPa 0,0 l/m 4,4 km/h (1 Bft) SW 225 2 min 0,000 mm 0,0 UV-I 133 W/m 6,6 C 7,7 C 6,4 km/h (2 Bft) 98,00 %
08.06.2017 06:20 7,7 C 20,0 C 92 % 1022,5 hPa 0,0 l/m 4,1 km/h (1 Bft) SW 225 2 min 0,000 mm 0,0 UV-I 113 W/m 6,5 C 7,7 C 6,4 km/h (2 Bft) 95,74 %
08.06.2017 06:22 7,8 C 20,0 C 92 % 1022,5 hPa 0,0 l/m 3,4 km/h (1 Bft) SW 225 0 min 0,000 mm 0,0 UV-I 64 W/m 6,6 C 7,8 C 6,4 km/h (2 Bft) 97,44 %
08.06.2017 06:24 7,9 C 20,0 C 92 % 1022,5 hPa 0,0 l/m 3,0 km/h (1 Bft) SW 225 0 min 0,000 mm 0,0 UV-I 42 W/m 6,7 C 7,9 C 6,4 km/h (2 Bft) 92,45 %
08.06.2017 06:26 8,0 C 20,0 C 92 % 1022,5 hPa 0,0 l/m 4,1 km/h (1 Bft) SW 217 0 min 0,000 mm 0,0 UV-I 42 W/m 6,8 C 8,0 C 8,0 km/h (2 Bft) 98,00 %
08.06.2017 06:28 8,1 C 20,0 C 91 % 1022,5 hPa 0,0 l/m 6,8 km/h (2 Bft) S-SW 197 0 min 0,000 mm 0,0 UV-I 57 W/m 6,7 C 7,8 C 9,7 km/h (2 Bft) 95,74 %
08.06.2017 06:30 8,2 C 20,0 C 91 % 1022,5 hPa 0,0 l/m 6,8 km/h (2 Bft) SW 231 2 min 0,000 mm 0,0 UV-I 138 W/m 6,8 C 7,9 C 9,7 km/h (2 Bft) 92,11 %
08.06.2017 06:32 8,3 C 19,4 C 91 % 1022,5 hPa 0,0 l/m 6,6 km/h (2 Bft) S-SW 202 2 min 0,000 mm 0,0 UV-I 167 W/m 6,9 C 8,2 C 8,0 km/h (2 Bft) 98,11 %
08.06.2017 06:34 8,4 C 19,4 C 91 % 1022,5 hPa 0,0 l/m 4,0 km/h (1 Bft) S-SW 202 2 min 0,000 mm 0,0 UV-I 171 W/m 7,0 C 8,4 C 6,4 km/h (2 Bft) 95,45 %
08.06.2017 06:36 8,4 C 20,0 C 91 % 1022,4 hPa 0,0 l/m 4,4 km/h (1 Bft) S-SW 202 2 min 0,000 mm 0,0 UV-I 174 W/m 7,0 C 8,4 C 6,4 km/h (2 Bft) 94,00 %
08.06.2017 06:38 8,6 C 20,0 C 91 % 1022,4 hPa 0,0 l/m 4,2 km/h (1 Bft) S-SW 202 2 min 0,000 mm 0,0 UV-I 177 W/m 7,2 C 8,6 C 6,4 km/h (2 Bft) 97,87 %
08.06.2017 06:40 8,6 C 20,0 C 90 % 1022,4 hPa 0,0 l/m 3,8 km/h (1 Bft) S-SW 202 2 min 0,000 mm 0,0 UV-I 181 W/m 7,1 C 8,6 C 8,0 km/h (2 Bft) 91,49 %
08.06.2017 06:42 8,8 C 20,0 C 91 % 1022,4 hPa 0,0 l/m 5,8 km/h (2 Bft) S-SW 205 2 min 0,000 mm 0,0 UV-I 187 W/m 7,4 C 8,8 C 9,7 km/h (2 Bft) 94,00 %
08.06.2017 06:44 8,8 C 20,0 C 90 % 1022,4 hPa 0,0 l/m 4,3 km/h (1 Bft) S-SW 209 2 min 0,000 mm 0,0 UV-I 194 W/m 7,3 C 8,8 C 8,0 km/h (2 Bft) 97,56 %
08.06.2017 06:46 9,0 C 20,0 C 90 % 1022,4 hPa 0,0 l/m 4,7 km/h (1 Bft) S-SW 209 2 min 0,000 mm 0,0 UV-I 199 W/m 7,4 C 9,0 C 8,0 km/h (2 Bft) 98,00 %
08.06.2017 06:48 9,2 C 20,0 C 90 % 1022,4 hPa 0,0 l/m 4,7 km/h (1 Bft) S-SW 211 2 min 0,000 mm 0,0 UV-I 204 W/m 7,6 C 9,2 C 8,0 km/h (2 Bft) 100,00 %
08.06.2017 06:50 9,3 C 20,0 C 90 % 1022,4 hPa 0,0 l/m 4,7 km/h (1 Bft) SW 223 2 min 0,000 mm 0,0 UV-I 210 W/m 7,7 C 9,3 C 6,4 km/h (2 Bft) 97,37 %
08.06.2017 06:52 9,4 C 19,4 C 89 % 1022,4 hPa 0,0 l/m 4,1 km/h (1 Bft) SW 220 2 min 0,000 mm 0,0 UV-I 215 W/m 7,7 C 9,4 C 6,4 km/h (2 Bft) 93,62 %
08.06.2017 06:54 9,5 C 19,4 C 89 % 1022,4 hPa 0,0 l/m 5,0 km/h (1 Bft) SW 221 2 min 0,000 mm 0,0 UV-I 221 W/m 7,8 C 9,5 C 8,0 km/h (2 Bft) 98,11 %
08.06.2017 06:56 9,7 C 19,4 C 89 % 1022,4 hPa 0,0 l/m 4,9 km/h (1 Bft) W-SW 239 2 min 0,000 mm 0,0 UV-I 226 W/m 8,0 C 9,7 C 8,0 km/h (2 Bft) 100,00 %
08.06.2017 06:58 9,8 C 19,4 C 89 % 1022,4 hPa 0,0 l/m 3,8 km/h (1 Bft) W-SW 239 2 min 0,000 mm 0,0 UV-I 232 W/m 8,1 C 9,8 C 8,0 km/h (2 Bft) 97,26 %
08.06.2017 07:00 9,8 C 19,4 C 88 % 1022,4 hPa 0,0 l/m 7,0 km/h (2 Bft) SW 229 2 min 0,076 mm 0,0 UV-I 238 W/m 7,9 C 9,4 C 11,3 km/h (2 Bft) 97,22 %
08.06.2017 07:02 9,9 C 19,4 C 88 % 1022,4 hPa 0,0 l/m 5,0 km/h (1 Bft) SW 229 2 min 0,000 mm 0,0 UV-I 218 W/m 8,0 C 9,9 C 8,0 km/h (2 Bft) 94,83 %
08.06.2017 07:04 10,0 C 19,4 C 88 % 1022,4 hPa 0,0 l/m 5,1 km/h (1 Bft) SW 226 2 min 0,000 mm 0,0 UV-I 212 W/m 8,1 C 10,0 C 8,0 km/h (2 Bft) 100,00 %
08.06.2017 07:06 10,2 C 19,4 C 87 % 1022,4 hPa 0,0 l/m 4,7 km/h (1 Bft) W-SW 249 2 min 0,000 mm 0,0 UV-I 255 W/m 8,1 C 10,2 C 8,0 km/h (2 Bft) 96,00 %
08.06.2017 07:08 10,2 C 19,4 C 87 % 1022,3 hPa 0,0 l/m 5,6 km/h (1 Bft) S-SW 203 2 min 0,000 mm 0,0 UV-I 258 W/m 8,1 C 10,2 C 9,7 km/h (2 Bft) 100,00 %
08.06.2017 07:10 10,3 C 19,4 C 87 % 1022,3 hPa 0,0 l/m 3,7 km/h (1 Bft) S-SW 205 2 min 0,000 mm 0,0 UV-I 264 W/m 8,2 C 10,3 C 6,4 km/h (2 Bft) 98,00 %
08.06.2017 07:12 10,4 C 19,4 C 87 % 1022,4 hPa 0,0 l/m 4,4 km/h (1 Bft) S-SW 211 2 min 0,000 mm 0,4 UV-I 269 W/m 8,3 C 10,4 C 6,4 km/h (2 Bft) 93,62 %
08.06.2017 07:14 10,6 C 19,4 C 86 % 1022,3 hPa 0,0 l/m 7,5 km/h (2 Bft) S-SW 201 2 min 0,000 mm 0,5 UV-I 274 W/m 8,4 C 9,8 C 11,3 km/h (2 Bft) 96,00 %
08.06.2017 07:16 10,6 C 19,4 C 86 % 1022,3 hPa 0,0 l/m 5,9 km/h (2 Bft) S-SW 209 2 min 0,000 mm 0,5 UV-I 281 W/m 8,4 C 10,6 C 9,7 km/h (2 Bft) 98,00 %
08.06.2017 07:18 10,7 C 18,9 C 86 % 1022,3 hPa 0,0 l/m 5,4 km/h (1 Bft) SW 236 2 min 0,000 mm 0,5 UV-I 287 W/m 8,5 C 10,7 C 8,0 km/h (2 Bft) 97,56 %
08.06.2017 07:20 10,7 C 18,9 C 86 % 1022,3 hPa 0,0 l/m 5,4 km/h (1 Bft) SW 218 2 min 0,000 mm 0,5 UV-I 291 W/m 8,5 C 10,7 C 8,0 km/h (2 Bft) 100,00 %
08.06.2017 07:22 10,8 C 18,9 C 85 % 1022,3 hPa 0,0 l/m 5,6 km/h (1 Bft) S-SW 213 2 min 0,000 mm 0,5 UV-I 298 W/m 8,4 C 10,8 C 9,7 km/h (2 Bft) 97,87 %
08.06.2017 07:24 10,9 C 18,9 C 85 % 1022,3 hPa 0,0 l/m 4,8 km/h (1 Bft) S-SW 209 2 min 0,000 mm 0,6 UV-I 304 W/m 8,5 C 10,9 C 8,0 km/h (2 Bft) 96,00 %
08.06.2017 07:26 10,9 C 18,9 C 85 % 1022,3 hPa 0,0 l/m 5,7 km/h (1 Bft) W-SW 239 2 min 0,000 mm 0,6 UV-I 310 W/m 8,5 C 10,9 C 11,3 km/h (2 Bft) 97,87 %
08.06.2017 07:28 11,0 C 18,9 C 85 % 1022,3 hPa 0,0 l/m 3,9 km/h (1 Bft) W-SW 244 2 min 0,000 mm 0,6 UV-I 314 W/m 8,6 C 11,0 C 6,4 km/h (2 Bft) 100,00 %
08.06.2017 07:30 11,1 C 19,4 C 85 % 1022,4 hPa 0,0 l/m 4,1 km/h (1 Bft) S-SW 209 2 min 0,000 mm 0,6 UV-I 314 W/m 8,7 C 11,1 C 6,4 km/h (2 Bft) 100,00 %
08.06.2017 07:32 11,2 C 18,9 C 85 % 1022,4 hPa 0,0 l/m 3,0 km/h (1 Bft) S-SW 207 2 min 0,000 mm 0,6 UV-I 324 W/m 8,8 C 11,2 C 4,8 km/h (1 Bft) 98,11 %
08.06.2017 07:34 11,2 C 18,9 C 84 % 1022,4 hPa 0,0 l/m 3,2 km/h (1 Bft) SW 235 2 min 0,000 mm 0,7 UV-I 329 W/m 8,6 C 11,2 C 6,4 km/h (2 Bft) 98,21 %
08.06.2017 07:36 11,3 C 19,4 C 84 % 1022,4 hPa 0,0 l/m 4,9 km/h (1 Bft) W-SW 240 2 min 0,000 mm 0,7 UV-I 336 W/m 8,7 C 11,3 C 8,0 km/h (2 Bft) 97,87 %
08.06.2017 07:38 11,3 C 18,9 C 84 % 1022,4 hPa 0,0 l/m 4,3 km/h (1 Bft) W-SW 242 2 min 0,000 mm 0,7 UV-I 342 W/m 8,7 C 11,3 C 6,4 km/h (2 Bft) 92,59 %
08.06.2017 07:40 11,4 C 19,4 C 84 % 1022,4 hPa 0,0 l/m 4,2 km/h (1 Bft) W-SW 248 2 min 0,000 mm 0,7 UV-I 348 W/m 8,8 C 11,4 C 6,4 km/h (2 Bft) 95,52 %
08.06.2017 07:42 11,6 C 19,4 C 84 % 1022,4 hPa 0,0 l/m 3,7 km/h (1 Bft) W-SW 248 2 min 0,000 mm 0,8 UV-I 353 W/m 9,0 C 11,6 C 6,4 km/h (2 Bft) 98,00 %
08.06.2017 07:44 11,6 C 19,4 C 83 % 1022,4 hPa 0,0 l/m 4,6 km/h (1 Bft) S-SW 194 2 min 0,000 mm 0,8 UV-I 358 W/m 8,8 C 11,6 C 8,0 km/h (2 Bft) 95,24 %
08.06.2017 07:46 11,7 C 18,9 C 83 % 1022,4 hPa 0,0 l/m 5,3 km/h (1 Bft) W-SW 238 2 min 0,000 mm 0,8 UV-I 363 W/m 8,9 C 11,7 C 9,7 km/h (2 Bft) 94,34 %
08.06.2017 07:48 11,7 C 19,4 C 82 % 1022,4 hPa 0,0 l/m 6,3 km/h (2 Bft) W 261 2 min 0,000 mm 0,8 UV-I 368 W/m 8,7 C 11,7 C 9,7 km/h (2 Bft) 94,74 %
08.06.2017 07:50 11,6 C 19,4 C 82 % 1022,4 hPa 0,0 l/m 5,1 km/h (1 Bft) W 274 2 min 0,000 mm 0,8 UV-I 375 W/m 8,6 C 11,6 C 8,0 km/h (2 Bft) 97,87 %
08.06.2017 07:52 11,7 C 19,4 C 84 % 1022,4 hPa 0,0 l/m 3,0 km/h (1 Bft) W 273 2 min 0,000 mm 0,9 UV-I 380 W/m 9,1 C 11,7 C 6,4 km/h (2 Bft) 95,74 %
08.06.2017 07:54 11,9 C 19,4 C 85 % 1022,4 hPa 0,0 l/m 4,6 km/h (1 Bft) S-SW 197 2 min 0,000 mm 0,9 UV-I 384 W/m 9,5 C 11,9 C 6,4 km/h (2 Bft) 94,00 %
08.06.2017 07:56 12,1 C 19,4 C 83 % 1022,4 hPa 0,0 l/m 5,4 km/h (1 Bft) SW 219 2 min 0,000 mm 0,9 UV-I 391 W/m 9,3 C 12,1 C 9,7 km/h (2 Bft) 94,00 %
08.06.2017 07:58 12,0 C 19,4 C 81 % 1022,4 hPa 0,0 l/m 3,0 km/h (1 Bft) S-SW 207 2 min 0,000 mm 0,9 UV-I 399 W/m 8,8 C 12,0 C 6,4 km/h (2 Bft) 94,74 %
08.06.2017 08:00 12,0 C 19,4 C 81 % 1022,4 hPa 0,0 l/m 1,6 km/h (1 Bft) S-SW 207 2 min 0,153 mm 1,0 UV-I 404 W/m 8,8 C 12,0 C 6,4 km/h (2 Bft) 92,45 %
08.06.2017 08:02 12,1 C 18,9 C 81 % 1022,4 hPa 0,0 l/m 2,6 km/h (1 Bft) S-SW 193 2 min 0,000 mm 1,0 UV-I 410 W/m 8,9 C 12,1 C 4,8 km/h (1 Bft) 94,00 %
08.06.2017 08:04 12,1 C 18,9 C 80 % 1022,4 hPa 0,0 l/m 1,1 km/h (1 Bft) S 186 2 min 0,000 mm 1,0 UV-I 417 W/m 8,8 C 12,1 C 3,2 km/h (1 Bft) 93,62 %
08.06.2017 08:06 12,2 C 18,9 C 81 % 1022,4 hPa 0,0 l/m 1,3 km/h (1 Bft) S 176 2 min 0,000 mm 1,1 UV-I 423 W/m 9,0 C 12,2 C 4,8 km/h (1 Bft) 94,87 %
08.06.2017 08:08 12,3 C 18,9 C 81 % 1022,3 hPa 0,0 l/m 2,4 km/h (1 Bft) S-SO 159 2 min 0,000 mm 1,1 UV-I 431 W/m 9,1 C 12,3 C 6,4 km/h (2 Bft) 92,00 %
08.06.2017 08:10 12,5 C 18,9 C 81 % 1022,3 hPa 0,0 l/m 3,2 km/h (1 Bft) SO 139 2 min 0,000 mm 1,1 UV-I 438 W/m 9,3 C 12,5 C 6,4 km/h (2 Bft) 93,62 %
08.06.2017 08:12 12,6 C 19,4 C 80 % 1022,2 hPa 0,0 l/m 3,6 km/h (1 Bft) SO 138 2 min 0,000 mm 1,2 UV-I 446 W/m 9,2 C 12,6 C 4,8 km/h (1 Bft) 95,45 %
08.06.2017 08:14 12,5 C 19,4 C 78 % 1022,3 hPa 0,0 l/m 1,8 km/h (1 Bft) SO 138 2 min 0,000 mm 1,2 UV-I 454 W/m 8,8 C 12,5 C 4,8 km/h (1 Bft) 94,00 %
08.06.2017 08:16 12,3 C 19,4 C 79 % 1022,3 hPa 0,0 l/m 2,4 km/h (1 Bft) S 174 2 min 0,000 mm 1,2 UV-I 458 W/m 8,8 C 12,3 C 4,8 km/h (1 Bft) 90,24 %
08.06.2017 08:18 12,3 C 19,4 C 80 % 1022,3 hPa 0,0 l/m 3,1 km/h (1 Bft) W 259 2 min 0,000 mm 1,3 UV-I 465 W/m 8,9 C 12,3 C 4,8 km/h (1 Bft) 94,00 %
08.06.2017 08:20 12,6 C 19,4 C 81 % 1022,2 hPa 0,0 l/m 3,4 km/h (1 Bft) W 273 2 min 0,000 mm 1,3 UV-I 470 W/m 9,4 C 12,6 C 4,8 km/h (1 Bft) 98,00 %
08.06.2017 08:22 12,6 C 19,4 C 79 % 1022,2 hPa 0,0 l/m 2,7 km/h (1 Bft) W 274 2 min 0,000 mm 1,3 UV-I 473 W/m 9,1 C 12,6 C 4,8 km/h (1 Bft) 94,00 %
08.06.2017 08:24 12,6 C 19,4 C 80 % 1022,2 hPa 0,0 l/m 0,4 km/h (0 Bft) W 274 2 min 0,000 mm 1,3 UV-I 475 W/m 9,2 C 12,6 C 1,6 km/h (1 Bft) 94,74 %
08.06.2017 08:26 12,5 C 19,4 C 79 % 1022,2 hPa 0,0 l/m 2,8 km/h (1 Bft) W 274 2 min 0,000 mm 1,3 UV-I 471 W/m 9,0 C 12,5 C 4,8 km/h (1 Bft) 96,23 %
08.06.2017 08:28 12,6 C 19,4 C 80 % 1022,2 hPa 0,0 l/m 1,6 km/h (1 Bft) W 274 2 min 0,000 mm 1,4 UV-I 471 W/m 9,2 C 12,6 C 4,8 km/h (1 Bft) 100,00 %
08.06.2017 08:30 12,7 C 19,4 C 79 % 1022,2 hPa 0,0 l/m 1,3 km/h (1 Bft) W 274 2 min 0,000 mm 1,4 UV-I 480 W/m 9,2 C 12,7 C 3,2 km/h (1 Bft) 97,37 %
08.06.2017 08:32 12,9 C 19,4 C 81 % 1022,2 hPa 0,0 l/m 2,8 km/h (1 Bft) W 274 2 min 0,000 mm 1,5 UV-I 491 W/m 9,7 C 12,9 C 4,8 km/h (1 Bft) 100,00 %
08.06.2017 08:34 13,1 C 19,4 C 78 % 1022,2 hPa 0,0 l/m 5,2 km/h (1 Bft) W 274 2 min 0,000 mm 1,5 UV-I 495 W/m 9,4 C 13,1 C 6,4 km/h (2 Bft) 100,00 %
08.06.2017 08:36 12,9 C 19,4 C 78 % 1022,2 hPa 0,0 l/m 1,9 km/h (1 Bft) W 274 2 min 0,000 mm 1,5 UV-I 496 W/m 9,2 C 12,9 C 4,8 km/h (1 Bft) 98,00 %
08.06.2017 08:38 13,0 C 19,4 C 79 % 1022,1 hPa 0,0 l/m 1,8 km/h (1 Bft) W 274 2 min 0,000 mm 1,5 UV-I 490 W/m 9,4 C 13,0 C 3,2 km/h (1 Bft) 100,00 %
08.06.2017 08:40 13,1 C 19,4 C 79 % 1022,2 hPa 0,0 l/m 2,5 km/h (1 Bft) W 274 2 min 0,000 mm 1,6 UV-I 502 W/m 9,5 C 13,1 C 3,2 km/h (1 Bft) 100,00 %
08.06.2017 08:42 13,2 C 19,4 C 78 % 1022,2 hPa 0,0 l/m 0,5 km/h (0 Bft) W 274 2 min 0,000 mm 1,6 UV-I 515 W/m 9,4 C 13,2 C 3,2 km/h (1 Bft) 92,00 %
08.06.2017 08:44 13,4 C 19,4 C 78 % 1022,2 hPa 0,0 l/m 1,9 km/h (1 Bft) W 271 2 min 0,000 mm 1,7 UV-I 533 W/m 9,6 C 13,4 C 4,8 km/h (1 Bft) 100,00 %
08.06.2017 08:46 13,6 C 19,4 C 77 % 1022,1 hPa 0,0 l/m 1,1 km/h (1 Bft) SW 218 2 min 0,000 mm 1,8 UV-I 541 W/m 9,6 C 13,6 C 4,8 km/h (1 Bft) 100,00 %
08.06.2017 08:48 13,6 C 19,4 C 77 % 1022,2 hPa 0,0 l/m 0,7 km/h (0 Bft) SW 218 2 min 0,000 mm 1,9 UV-I 554 W/m 9,6 C 13,6 C 3,2 km/h (1 Bft) 97,56 %
08.06.2017 08:50 13,6 C 19,4 C 77 % 1022,1 hPa 0,0 l/m 1,1 km/h (1 Bft) SW 217 2 min 0,000 mm 1,9 UV-I 560 W/m 9,6 C 13,6 C 3,2 km/h (1 Bft) 100,00 %
08.06.2017 08:52 13,7 C 19,4 C 78 % 1022,2 hPa 0,0 l/m 1,4 km/h (1 Bft) SW 217 2 min 0,000 mm 1,9 UV-I 554 W/m 9,9 C 13,7 C 3,2 km/h (1 Bft) 100,00 %
08.06.2017 08:54 13,7 C 19,4 C 75 % 1022,2 hPa 0,0 l/m 1,0 km/h (0 Bft) SW 217 2 min 0,000 mm 1,9 UV-I 537 W/m 9,3 C 13,7 C 3,2 km/h (1 Bft) 98,00 %
08.06.2017 08:56 13,7 C 19,4 C 75 % 1022,2 hPa 0,0 l/m 0,1 km/h (0 Bft) SW 217 2 min 0,000 mm 1,9 UV-I 537 W/m 9,3 C 13,7 C 1,6 km/h (1 Bft) 100,00 %
08.06.2017 08:58 13,8 C 19,4 C 75 % 1022,2 hPa 0,0 l/m 0,5 km/h (0 Bft) SW 217 2 min 0,000 mm 2,0 UV-I 534 W/m 9,4 C 13,8 C 1,6 km/h (1 Bft) 100,00 %
08.06.2017 09:00 13,8 C 19,4 C 73 % 1022,2 hPa 0,0 l/m 1,8 km/h (1 Bft) SW 217 2 min 0,254 mm 2,0 UV-I 530 W/m 9,0 C 13,8 C 4,8 km/h (1 Bft) 100,00 %
08.06.2017 09:03 13,8 C 19,4 C 74 % 1022,2 hPa 0,0 l/m 0,0 km/h (0 Bft) SW 217 3 min 0,000 mm 2,1 UV-I 552 W/m 9,2 C 13,8 C 0,0 km/h (0 Bft) 98,73 %
08.06.2017 09:04 13,8 C 19,4 C 73 % 1022,2 hPa 0,0 l/m 0,0 km/h (0 Bft) SW 217 1 min 0,000 mm 2,2 UV-I 577 W/m 9,0 C 13,8 C 0,0 km/h (0 Bft) 95,83 %
08.06.2017 09:06 14,0 C 19,4 C 77 % 1022,2 hPa 0,0 l/m 1,0 km/h (0 Bft) SW 217 2 min 0,000 mm 2,2 UV-I 582 W/m 10,0 C 14,0 C 4,8 km/h (1 Bft) 100,00 %
08.06.2017 09:08 14,3 C 19,4 C 75 % 1022,2 hPa 0,0 l/m 3,3 km/h (1 Bft) W-SW 256 2 min 0,000 mm 2,3 UV-I 593 W/m 9,9 C 14,3 C 6,4 km/h (2 Bft) 100,00 %
08.06.2017 09:10 14,3 C 19,4 C 72 % 1022,2 hPa 0,0 l/m 3,8 km/h (1 Bft) W-SW 257 2 min 0,000 mm 2,3 UV-I 604 W/m 9,3 C 14,3 C 6,4 km/h (2 Bft) 94,34 %
08.06.2017 09:12 14,3 C 19,4 C 73 % 1022,2 hPa 0,0 l/m 2,9 km/h (1 Bft) W 259 2 min 0,000 mm 2,3 UV-I 616 W/m 9,5 C 14,3 C 4,8 km/h (1 Bft) 97,56 %
08.06.2017 09:14 14,2 C 19,4 C 73 % 1022,2 hPa 0,0 l/m 2,5 km/h (1 Bft) W 259 2 min 0,000 mm 2,4 UV-I 616 W/m 9,4 C 14,2 C 4,8 km/h (1 Bft) 100,00 %
08.06.2017 09:16 14,4 C 19,4 C 75 % 1022,2 hPa 0,0 l/m 0,4 km/h (0 Bft) W 259 2 min 0,000 mm 2,4 UV-I 618 W/m 10,0 C 14,4 C 1,6 km/h (1 Bft) 97,56 %
08.06.2017 09:18 14,7 C 19,4 C 73 % 1022,2 hPa 0,0 l/m 2,1 km/h (1 Bft) W 259 2 min 0,000 mm 2,4 UV-I 625 W/m 9,9 C 14,7 C 4,8 km/h (1 Bft) 100,00 %
08.06.2017 09:20 14,7 C 19,4 C 71 % 1022,2 hPa 0,0 l/m 0,9 km/h (0 Bft) W 259 2 min 0,000 mm 2,3 UV-I 561 W/m 9,5 C 14,7 C 4,8 km/h (1 Bft) 100,00 %
08.06.2017 09:22 14,8 C 19,4 C 71 % 1022,2 hPa 0,0 l/m 5,0 km/h (1 Bft) W-SW 240 2 min 0,000 mm 2,1 UV-I 424 W/m 9,6 C 14,8 C 8,0 km/h (2 Bft) 100,00 %
08.06.2017 09:24 14,7 C 19,4 C 69 % 1022,2 hPa 0,0 l/m 1,3 km/h (1 Bft) W-SW 249 2 min 0,000 mm 2,4 UV-I 478 W/m 9,1 C 14,7 C 6,4 km/h (2 Bft) 97,87 %
08.06.2017 09:26 14,6 C 19,4 C 73 % 1022,2 hPa 0,0 l/m 0,3 km/h (0 Bft) W-SW 249 2 min 0,000 mm 2,6 UV-I 620 W/m 9,8 C 14,6 C 1,6 km/h (1 Bft) 97,44 %
08.06.2017 09:28 14,7 C 19,4 C 71 % 1022,1 hPa 0,0 l/m 2,8 km/h (1 Bft) W-SW 248 2 min 0,000 mm 2,6 UV-I 632 W/m 9,5 C 14,7 C 4,8 km/h (1 Bft) 98,00 %
08.06.2017 09:30 14,8 C 19,4 C 70 % 1022,1 hPa 0,0 l/m 3,1 km/h (1 Bft) O-NO 63 2 min 0,000 mm 2,7 UV-I 624 W/m 9,4 C 14,8 C 8,0 km/h (2 Bft) 100,00 %
08.06.2017 09:32 14,8 C 19,4 C 70 % 1022,1 hPa 0,0 l/m 2,9 km/h (1 Bft) NO 53 2 min 0,000 mm 2,7 UV-I 636 W/m 9,4 C 14,8 C 4,8 km/h (1 Bft) 100,00 %
08.06.2017 09:34 15,1 C 19,4 C 75 % 1022,1 hPa 0,0 l/m 1,2 km/h (1 Bft) NO 53 2 min 0,000 mm 2,8 UV-I 651 W/m 10,7 C 15,1 C 4,8 km/h (1 Bft) 97,87 %
08.06.2017 09:36 15,4 C 19,4 C 74 % 1022,1 hPa 0,0 l/m 1,5 km/h (1 Bft) NO 53 2 min 0,000 mm 2,9 UV-I 666 W/m 10,8 C 15,4 C 4,8 km/h (1 Bft) 100,00 %
08.06.2017 09:38 15,4 C 19,4 C 71 % 1022,0 hPa 0,0 l/m 4,0 km/h (1 Bft) NO 45 2 min 0,000 mm 2,9 UV-I 671 W/m 10,2 C 15,4 C 9,7 km/h (2 Bft) 100,00 %
08.06.2017 09:40 15,6 C 19,4 C 71 % 1022,0 hPa 0,0 l/m 6,2 km/h (2 Bft) NO 38 2 min 0,000 mm 3,0 UV-I 676 W/m 10,4 C 15,6 C 9,7 km/h (2 Bft) 100,00 %
08.06.2017 09:42 15,5 C 19,4 C 70 % 1022,0 hPa 0,0 l/m 5,9 km/h (2 Bft) O-NO 61 2 min 0,000 mm 3,0 UV-I 683 W/m 10,1 C 15,5 C 8,0 km/h (2 Bft) 100,00 %
08.06.2017 09:44 15,4 C 19,4 C 70 % 1022,0 hPa 0,0 l/m 3,2 km/h (1 Bft) O-NO 60 2 min 0,000 mm 3,1 UV-I 689 W/m 10,0 C 15,4 C 6,4 km/h (2 Bft) 100,00 %
08.06.2017 09:46 15,4 C 19,4 C 70 % 1022,0 hPa 0,0 l/m 0,4 km/h (0 Bft) N-NO 26 2 min 0,000 mm 3,1 UV-I 693 W/m 10,0 C 15,4 C 1,6 km/h (1 Bft) 100,00 %
08.06.2017 09:48 15,4 C 19,4 C 69 % 1022,0 hPa 0,0 l/m 1,8 km/h (1 Bft) N-NW 348 2 min 0,000 mm 3,1 UV-I 697 W/m 9,7 C 15,4 C 4,8 km/h (1 Bft) 100,00 %
08.06.2017 09:50 15,3 C 19,4 C 67 % 1022,0 hPa 0,0 l/m 1,3 km/h (1 Bft) N-NW 344 2 min 0,000 mm 3,2 UV-I 702 W/m 9,2 C 15,3 C 3,2 km/h (1 Bft) 98,11 %
08.06.2017 09:52 15,3 C 19,4 C 67 % 1022,0 hPa 0,0 l/m 1,7 km/h (1 Bft) N 9 2 min 0,000 mm 3,3 UV-I 707 W/m 9,2 C 15,3 C 6,4 km/h (2 Bft) 100,00 %
08.06.2017 09:54 15,5 C 19,4 C 69 % 1022,0 hPa 0,0 l/m 2,1 km/h (1 Bft) N-NO 28 2 min 0,000 mm 3,3 UV-I 715 W/m 9,8 C 15,5 C 4,8 km/h (1 Bft) 94,64 %
08.06.2017 09:56 15,7 C 19,4 C 69 % 1021,9 hPa 0,0 l/m 5,4 km/h (1 Bft) N-NO 32 2 min 0,000 mm 3,4 UV-I 720 W/m 10,0 C 15,7 C 8,0 km/h (2 Bft) 97,56 %
08.06.2017 09:58 15,7 C 19,4 C 68 % 1021,9 hPa 0,0 l/m 0,4 km/h (0 Bft) N-NO 32 2 min 0,000 mm 3,4 UV-I 724 W/m 9,8 C 15,7 C 3,2 km/h (1 Bft) 94,74 %
08.06.2017 10:00 15,7 C 19,4 C 68 % 1021,9 hPa 0,0 l/m 2,1 km/h (1 Bft) N-NO 32 2 min 0,330 mm 3,5 UV-I 727 W/m 9,8 C 15,7 C 4,8 km/h (1 Bft) 98,36 %
08.06.2017 10:02 15,8 C 19,4 C 65 % 1021,9 hPa 0,0 l/m 3,4 km/h (1 Bft) O 85 2 min 0,000 mm 3,5 UV-I 713 W/m 9,2 C 15,8 C 4,8 km/h (1 Bft) 95,74 %
08.06.2017 10:04 15,9 C 19,4 C 64 % 1021,9 hPa 0,0 l/m 3,9 km/h (1 Bft) O-NO 66 2 min 0,000 mm 3,5 UV-I 736 W/m 9,1 C 15,9 C 6,4 km/h (2 Bft) 94,74 %
08.06.2017 10:06 15,8 C 19,4 C 63 % 1021,9 hPa 0,0 l/m 1,0 km/h (0 Bft) O 95 2 min 0,000 mm 3,5 UV-I 667 W/m 8,8 C 15,8 C 3,2 km/h (1 Bft) 98,00 %
08.06.2017 10:08 15,8 C 19,4 C 68 % 1021,8 hPa 0,0 l/m 2,5 km/h (1 Bft) O 94 2 min 0,000 mm 3,6 UV-I 729 W/m 9,9 C 15,8 C 4,8 km/h (1 Bft) 95,74 %
08.06.2017 10:10 16,1 C 20,0 C 68 % 1021,8 hPa 0,0 l/m 0,5 km/h (0 Bft) N-NO 31 2 min 0,000 mm 3,6 UV-I 743 W/m 10,2 C 16,1 C 3,2 km/h (1 Bft) 96,00 %
08.06.2017 10:12 16,2 C 20,0 C 64 % 1021,8 hPa 0,0 l/m 1,4 km/h (1 Bft) N-NW 338 2 min 0,000 mm 3,7 UV-I 748 W/m 9,4 C 16,2 C 4,8 km/h (1 Bft) 100,00 %
08.06.2017 10:14 16,1 C 20,0 C 65 % 1021,8 hPa 0,0 l/m 2,6 km/h (1 Bft) NW 316 2 min 0,000 mm 3,8 UV-I 747 W/m 9,5 C 16,1 C 4,8 km/h (1 Bft) 96,23 %
08.06.2017 10:16 16,1 C 20,0 C 61 % 1021,8 hPa 0,0 l/m 2,3 km/h (1 Bft) N-NW 329 2 min 0,000 mm 3,8 UV-I 756 W/m 8,6 C 16,1 C 4,8 km/h (1 Bft) 97,87 %
08.06.2017 10:18 16,2 C 20,0 C 67 % 1021,7 hPa 0,0 l/m 2,9 km/h (1 Bft) N-NO 19 2 min 0,000 mm 3,9 UV-I 752 W/m 10,1 C 16,2 C 4,8 km/h (1 Bft) 98,00 %
08.06.2017 10:20 16,3 C 20,0 C 63 % 1021,6 hPa 0,0 l/m 3,3 km/h (1 Bft) N-NO 19 2 min 0,000 mm 3,9 UV-I 760 W/m 9,2 C 16,3 C 6,4 km/h (2 Bft) 94,44 %
08.06.2017 10:22 16,3 C 20,0 C 61 % 1021,7 hPa 0,0 l/m 3,2 km/h (1 Bft) N-NO 15 2 min 0,000 mm 4,0 UV-I 767 W/m 8,8 C 16,3 C 6,4 km/h (2 Bft) 98,21 %
08.06.2017 10:24 16,3 C 19,4 C 64 % 1021,7 hPa 0,0 l/m 0,5 km/h (0 Bft) N-NO 13 2 min 0,000 mm 4,0 UV-I 769 W/m 9,5 C 16,3 C 1,6 km/h (1 Bft) 98,00 %
08.06.2017 10:26 16,6 C 19,4 C 63 % 1021,7 hPa 0,0 l/m 2,8 km/h (1 Bft) N-NO 13 2 min 0,000 mm 4,0 UV-I 770 W/m 9,5 C 16,6 C 4,8 km/h (1 Bft) 97,37 %
08.06.2017 10:28 16,4 C 20,0 C 60 % 1021,6 hPa 0,0 l/m 0,2 km/h (0 Bft) N-NO 13 2 min 0,000 mm 4,0 UV-I 768 W/m 8,6 C 16,4 C 1,6 km/h (1 Bft) 100,00 %
08.06.2017 10:30 16,6 C 20,0 C 63 % 1021,6 hPa 0,0 l/m 2,1 km/h (1 Bft) NO 39 2 min 0,000 mm 4,1 UV-I 772 W/m 9,5 C 16,6 C 4,8 km/h (1 Bft) 98,21 %
08.06.2017 10:32 16,7 C 20,0 C 64 % 1021,6 hPa 0,0 l/m 1,4 km/h (1 Bft) NO 47 2 min 0,000 mm 4,1 UV-I 769 W/m 9,9 C 16,7 C 4,8 km/h (1 Bft) 94,74 %
08.06.2017 10:34 16,9 C 20,0 C 64 % 1021,6 hPa 0,0 l/m 3,7 km/h (1 Bft) O-NO 62 2 min 0,000 mm 4,2 UV-I 784 W/m 10,0 C 16,9 C 4,8 km/h (1 Bft) 98,21 %
08.06.2017 10:36 17,1 C 20,0 C 64 % 1021,6 hPa 0,0 l/m 3,7 km/h (1 Bft) NO 53 2 min 0,000 mm 4,2 UV-I 789 W/m 10,2 C 17,1 C 6,4 km/h (2 Bft) 97,37 %
08.06.2017 10:38 17,2 C 20,0 C 66 % 1021,5 hPa 0,0 l/m 0,8 km/h (0 Bft) NO 54 2 min 0,000 mm 4,3 UV-I 793 W/m 10,8 C 17,2 C 3,2 km/h (1 Bft) 94,29 %
08.06.2017 10:40 17,2 C 20,0 C 65 % 1021,5 hPa 0,0 l/m 2,8 km/h (1 Bft) NO 49 2 min 0,000 mm 4,4 UV-I 800 W/m 10,6 C 17,2 C 6,4 km/h (2 Bft) 93,85 %
08.06.2017 10:42 17,3 C 20,0 C 63 % 1021,5 hPa 0,0 l/m 6,4 km/h (2 Bft) NO 36 2 min 0,000 mm 4,4 UV-I 796 W/m 10,2 C 17,3 C 9,7 km/h (2 Bft) 100,00 %
08.06.2017 10:44 17,2 C 20,0 C 65 % 1021,5 hPa 0,0 l/m 7,0 km/h (2 Bft) NO 38 2 min 0,000 mm 4,4 UV-I 808 W/m 10,6 C 16,9 C 8,0 km/h (2 Bft) 97,06 %
08.06.2017 10:46 17,1 C 20,0 C 60 % 1021,5 hPa 0,0 l/m 4,2 km/h (1 Bft) O-NO 68 2 min 0,000 mm 4,4 UV-I 808 W/m 9,3 C 17,1 C 9,7 km/h (2 Bft) 97,37 %
08.06.2017 10:48 17,1 C 19,4 C 62 % 1021,5 hPa 0,0 l/m 2,5 km/h (1 Bft) O-NO 67 2 min 0,000 mm 3,7 UV-I 799 W/m 9,8 C 17,1 C 9,7 km/h (2 Bft) 98,08 %
08.06.2017 10:50 16,9 C 20,0 C 62 % 1021,5 hPa 0,0 l/m 4,2 km/h (1 Bft) NO 45 0 min 0,000 mm 2,6 UV-I 309 W/m 9,6 C 16,9 C 8,0 km/h (2 Bft) 97,56 %
08.06.2017 10:52 16,8 C 19,4 C 62 % 1021,5 hPa 0,0 l/m 6,8 km/h (2 Bft) O-NO 57 0 min 0,000 mm 4,4 UV-I 378 W/m 9,5 C 16,6 C 12,9 km/h (3 Bft) 96,00 %
08.06.2017 10:54 16,9 C 19,4 C 60 % 1021,5 hPa 0,0 l/m 1,2 km/h (1 Bft) NO 56 2 min 0,000 mm 4,7 UV-I 837 W/m 9,1 C 16,9 C 3,2 km/h (1 Bft) 98,11 %
08.06.2017 10:56 17,1 C 19,4 C 59 % 1021,5 hPa 0,0 l/m 1,6 km/h (1 Bft) NO 43 2 min 0,000 mm 4,7 UV-I 833 W/m 9,0 C 17,1 C 3,2 km/h (1 Bft) 97,44 %
08.06.2017 10:58 17,3 C 19,4 C 63 % 1021,5 hPa 0,0 l/m 0,3 km/h (0 Bft) NO 43 2 min 0,000 mm 4,8 UV-I 832 W/m 10,2 C 17,3 C 1,6 km/h (1 Bft) 98,00 %
08.06.2017 11:00 17,2 C 19,4 C 57 % 1021,5 hPa 0,0 l/m 1,6 km/h (1 Bft) O-NO 74 2 min 0,406 mm 4,8 UV-I 841 W/m 8,6 C 17,2 C 4,8 km/h (1 Bft) 95,74 %
08.06.2017 11:02 17,6 C 19,4 C 58 % 1021,5 hPa 0,0 l/m 3,4 km/h (1 Bft) O 92 2 min 0,000 mm 4,9 UV-I 842 W/m 9,2 C 17,6 C 4,8 km/h (1 Bft) 94,34 %
08.06.2017 11:04 17,9 C 19,4 C 55 % 1021,5 hPa 0,0 l/m 2,2 km/h (1 Bft) S-SW 212 2 min 0,000 mm 4,9 UV-I 840 W/m 8,7 C 17,9 C 4,8 km/h (1 Bft) 93,18 %
08.06.2017 11:06 17,8 C 19,4 C 49 % 1021,4 hPa 0,0 l/m 4,1 km/h (1 Bft) S-SO 154 2 min 0,000 mm 4,9 UV-I 835 W/m 6,9 C 17,8 C 11,3 km/h (2 Bft) 97,62 %
08.06.2017 11:08 17,7 C 19,4 C 50 % 1021,4 hPa 0,0 l/m 0,9 km/h (0 Bft) S-SO 154 2 min 0,000 mm 4,9 UV-I 851 W/m 7,1 C 17,7 C 3,2 km/h (1 Bft) 96,23 %
08.06.2017 11:10 17,8 C 20,0 C 53 % 1021,4 hPa 0,0 l/m 5,1 km/h (1 Bft) SW 235 2 min 0,000 mm 4,9 UV-I 828 W/m 8,1 C 17,8 C 9,7 km/h (2 Bft) 97,37 %
08.06.2017 11:12 17,8 C 20,0 C 52 % 1021,3 hPa 0,0 l/m 5,0 km/h (1 Bft) W 277 2 min 0,000 mm 4,9 UV-I 828 W/m 7,8 C 17,8 C 8,0 km/h (2 Bft) 96,00 %
08.06.2017 11:14 17,4 C 20,0 C 51 % 1021,3 hPa 0,0 l/m 1,1 km/h (1 Bft) W 279 2 min 0,000 mm 4,9 UV-I 815 W/m 7,2 C 17,4 C 3,2 km/h (1 Bft) 95,74 %
08.06.2017 11:16 17,5 C 20,0 C 53 % 1021,2 hPa 0,0 l/m 2,5 km/h (1 Bft) S-SO 167 2 min 0,000 mm 5,0 UV-I 842 W/m 7,8 C 17,5 C 6,4 km/h (2 Bft) 96,23 %
08.06.2017 11:18 17,7 C 20,0 C 49 % 1021,2 hPa 0,0 l/m 8,2 km/h (2 Bft) SW 215 2 min 0,000 mm 5,0 UV-I 857 W/m 6,9 C 16,8 C 12,9 km/h (3 Bft) 97,73 %
08.06.2017 11:20 17,8 C 20,0 C 48 % 1021,2 hPa 0,0 l/m 4,7 km/h (1 Bft) S-SW 202 2 min 0,000 mm 4,9 UV-I 813 W/m 6,6 C 17,8 C 9,7 km/h (2 Bft) 95,12 %
08.06.2017 11:22 17,9 C 20,0 C 51 % 1021,2 hPa 0,0 l/m 3,8 km/h (1 Bft) SO 142 2 min 0,000 mm 4,9 UV-I 828 W/m 7,6 C 17,9 C 8,0 km/h (2 Bft) 98,11 %
08.06.2017 11:24 18,0 C 20,0 C 48 % 1021,2 hPa 0,0 l/m 4,8 km/h (1 Bft) SW 234 2 min 0,000 mm 5,1 UV-I 867 W/m 6,8 C 18,0 C 9,7 km/h (2 Bft) 97,73 %
08.06.2017 11:26 18,1 C 20,0 C 43 % 1021,2 hPa 0,0 l/m 4,8 km/h (1 Bft) W-SW 242 2 min 0,000 mm 5,2 UV-I 866 W/m 5,3 C 18,1 C 8,0 km/h (2 Bft) 96,23 %
08.06.2017 11:28 18,2 C 20,0 C 46 % 1021,2 hPa 0,0 l/m 5,3 km/h (1 Bft) S-SO 165 2 min 0,000 mm 5,1 UV-I 847 W/m 6,4 C 18,2 C 11,3 km/h (2 Bft) 97,56 %
08.06.2017 11:30 18,1 C 20,0 C 49 % 1021,2 hPa 0,0 l/m 3,4 km/h (1 Bft) W-SW 238 2 min 0,000 mm 4,9 UV-I 813 W/m 7,2 C 18,1 C 12,9 km/h (3 Bft) 98,00 %
08.06.2017 11:32 18,2 C 20,0 C 47 % 1021,2 hPa 0,0 l/m 6,5 km/h (2 Bft) S-SO 159 2 min 0,000 mm 5,3 UV-I 899 W/m 6,7 C 18,2 C 11,3 km/h (2 Bft) 94,44 %
08.06.2017 11:34 18,2 C 20,0 C 49 % 1021,2 hPa 0,0 l/m 3,2 km/h (1 Bft) SW 215 2 min 0,000 mm 5,3 UV-I 882 W/m 7,3 C 18,2 C 11,3 km/h (2 Bft) 98,11 %
08.06.2017 11:36 18,3 C 20,0 C 44 % 1021,2 hPa 0,0 l/m 5,8 km/h (2 Bft) W-SW 252 2 min 0,000 mm 5,3 UV-I 885 W/m 5,8 C 18,3 C 11,3 km/h (2 Bft) 98,08 %
08.06.2017 11:38 18,2 C 20,0 C 44 % 1021,2 hPa 0,0 l/m 3,2 km/h (1 Bft) S-SO 161 2 min 0,000 mm 5,4 UV-I 926 W/m 5,7 C 18,2 C 4,8 km/h (1 Bft) 100,00 %
08.06.2017 11:40 18,3 C 20,0 C 48 % 1021,2 hPa 0,0 l/m 1,5 km/h (1 Bft) S-SO 156 2 min 0,000 mm 5,7 UV-I 949 W/m 7,1 C 18,3 C 4,8 km/h (1 Bft) 97,22 %
08.06.2017 11:42 18,6 C 20,0 C 50 % 1021,2 hPa 0,0 l/m 1,1 km/h (1 Bft) SO 140 2 min 0,000 mm 5,7 UV-I 965 W/m 8,0 C 18,6 C 4,8 km/h (1 Bft) 98,11 %
08.06.2017 11:44 18,8 C 20,0 C 48 % 1021,1 hPa 0,0 l/m 1,0 km/h (0 Bft) SO 140 2 min 0,000 mm 5,6 UV-I 933 W/m 7,6 C 18,8 C 3,2 km/h (1 Bft) 98,00 %
08.06.2017 11:46 18,9 C 20,0 C 45 % 1021,1 hPa 0,0 l/m 8,2 km/h (2 Bft) S-SW 202 2 min 0,000 mm 5,3 UV-I 910 W/m 6,7 C 18,1 C 14,5 km/h (3 Bft) 100,00 %
08.06.2017 11:48 18,6 C 20,0 C 43 % 1021,1 hPa 0,0 l/m 1,6 km/h (1 Bft) S 188 2 min 0,000 mm 5,3 UV-I 807 W/m 5,8 C 18,6 C 6,4 km/h (2 Bft) 98,11 %
08.06.2017 11:50 18,4 C 20,0 C 49 % 1021,1 hPa 0,0 l/m 5,7 km/h (1 Bft) W-SW 240 2 min 0,000 mm 5,5 UV-I 921 W/m 7,5 C 18,4 C 11,3 km/h (2 Bft) 98,00 %
08.06.2017 11:52 18,3 C 20,0 C 47 % 1021,1 hPa 0,0 l/m 1,5 km/h (1 Bft) S-SW 203 2 min 0,000 mm 5,6 UV-I 942 W/m 6,8 C 18,3 C 4,8 km/h (1 Bft) 92,00 %
08.06.2017 11:54 18,3 C 20,0 C 46 % 1021,1 hPa 0,0 l/m 5,0 km/h (1 Bft) SW 233 2 min 0,000 mm 5,8 UV-I 948 W/m 6,5 C 18,3 C 11,3 km/h (2 Bft) 97,37 %
08.06.2017 11:56 18,3 C 20,0 C 46 % 1021,0 hPa 0,0 l/m 1,9 km/h (1 Bft) W-NW 294 2 min 0,000 mm 5,7 UV-I 916 W/m 6,5 C 18,3 C 4,8 km/h (1 Bft) 96,23 %
08.06.2017 11:58 18,3 C 20,0 C 51 % 1021,0 hPa 0,0 l/m 4,2 km/h (1 Bft) W 270 2 min 0,000 mm 5,7 UV-I 882 W/m 8,0 C 18,3 C 9,7 km/h (2 Bft) 94,74 %
08.06.2017 12:00 18,6 C 20,0 C 48 % 1021,0 hPa 0,0 l/m 7,5 km/h (2 Bft) W-SW 252 2 min 0,000 mm 5,8 UV-I 906 W/m 7,4 C 18,1 C 11,3 km/h (2 Bft) 96,23 %
08.06.2017 12:02 18,6 C 20,0 C 49 % 1021,0 hPa 0,0 l/m 4,7 km/h (1 Bft) SW 217 2 min 0,508 mm 5,5 UV-I 906 W/m 7,7 C 18,6 C 9,7 km/h (2 Bft) 97,87 %
08.06.2017 12:04 18,6 C 20,0 C 47 % 1021,0 hPa 0,0 l/m 3,5 km/h (1 Bft) S-SW 198 2 min 0,000 mm 5,6 UV-I 955 W/m 7,1 C 18,6 C 9,7 km/h (2 Bft) 97,37 %
08.06.2017 12:06 18,6 C 20,6 C 47 % 1020,9 hPa 0,0 l/m 5,2 km/h (1 Bft) SO 132 2 min 0,000 mm 5,1 UV-I 910 W/m 7,1 C 18,6 C 11,3 km/h (2 Bft) 97,73 %
08.06.2017 12:08 18,5 C 20,0 C 49 % 1020,9 hPa 0,0 l/m 4,9 km/h (1 Bft) W 268 2 min 0,000 mm 5,2 UV-I 844 W/m 7,6 C 18,5 C 9,7 km/h (2 Bft) 96,43 %
08.06.2017 12:10 18,6 C 20,0 C 49 % 1020,9 hPa 0,0 l/m 2,8 km/h (1 Bft) S-SO 159 2 min 0,000 mm 5,2 UV-I 784 W/m 7,7 C 18,6 C 8,0 km/h (2 Bft) 90,91 %
08.06.2017 12:12 18,4 C 20,0 C 45 % 1020,8 hPa 0,0 l/m 2,2 km/h (1 Bft) W 273 2 min 0,000 mm 5,2 UV-I 741 W/m 6,3 C 18,4 C 4,8 km/h (1 Bft) 94,34 %
08.06.2017 12:14 18,6 C 21,1 C 47 % 1020,8 hPa 0,0 l/m 3,9 km/h (1 Bft) W-NW 288 2 min 0,000 mm 5,5 UV-I 863 W/m 7,1 C 18,6 C 6,4 km/h (2 Bft) 100,00 %
08.06.2017 12:16 18,6 C 20,6 C 50 % 1020,8 hPa 0,0 l/m 5,3 km/h (1 Bft) SW 217 2 min 0,000 mm 5,5 UV-I 836 W/m 8,0 C 18,6 C 9,7 km/h (2 Bft) 92,45 %
08.06.2017 12:18 18,6 C 20,6 C 45 % 1020,8 hPa 0,0 l/m 2,4 km/h (1 Bft) S 172 2 min 0,000 mm 5,5 UV-I 802 W/m 6,4 C 18,6 C 6,4 km/h (2 Bft) 90,91 %
08.06.2017 12:20 18,4 C 20,6 C 46 % 1020,8 hPa 0,0 l/m 5,1 km/h (1 Bft) W-SW 240 2 min 0,000 mm 5,7 UV-I 898 W/m 6,6 C 18,4 C 8,0 km/h (2 Bft) 98,11 %
08.06.2017 12:22 18,4 C 20,6 C 46 % 1020,7 hPa 0,0 l/m 4,5 km/h (1 Bft) SW 216 2 min 0,000 mm 5,8 UV-I 915 W/m 6,6 C 18,4 C 8,0 km/h (2 Bft) 94,00 %
08.06.2017 12:24 18,7 C 20,6 C 46 % 1020,8 hPa 0,0 l/m 3,3 km/h (1 Bft) W-SW 248 2 min 0,000 mm 5,7 UV-I 880 W/m 6,8 C 18,7 C 8,0 km/h (2 Bft) 100,00 %
08.06.2017 12:26 18,7 C 20,6 C 45 % 1020,7 hPa 0,0 l/m 5,7 km/h (1 Bft) W-SW 244 2 min 0,000 mm 5,6 UV-I 854 W/m 6,5 C 18,7 C 11,3 km/h (2 Bft) 98,00 %
08.06.2017 12:28 18,9 C 20,6 C 51 % 1020,7 hPa 0,0 l/m 8,2 km/h (2 Bft) SW 217 2 min 0,000 mm 5,8 UV-I 907 W/m 8,5 C 18,1 C 14,5 km/h (3 Bft) 95,74 %
08.06.2017 12:30 18,9 C 20,6 C 47 % 1020,7 hPa 0,0 l/m 6,0 km/h (2 Bft) W-SW 240 2 min 0,000 mm 5,8 UV-I 920 W/m 7,3 C 18,9 C 11,3 km/h (2 Bft) 94,74 %
08.06.2017 12:32 18,9 C 20,6 C 46 % 1020,6 hPa 0,0 l/m 4,4 km/h (1 Bft) S-SW 210 2 min 0,000 mm 5,7 UV-I 902 W/m 7,0 C 18,9 C 11,3 km/h (2 Bft) 96,00 %
08.06.2017 12:34 19,0 C 20,6 C 45 % 1020,6 hPa 0,0 l/m 2,5 km/h (1 Bft) NW 323 2 min 0,000 mm 5,6 UV-I 880 W/m 6,8 C 19,0 C 4,8 km/h (1 Bft) 98,00 %
08.06.2017 12:36 18,8 C 20,6 C 45 % 1020,6 hPa 0,0 l/m 5,9 km/h (2 Bft) W 280 2 min 0,000 mm 5,8 UV-I 920 W/m 6,6 C 18,8 C 9,7 km/h (2 Bft) 92,11 %
08.06.2017 12:38 18,7 C 20,6 C 45 % 1020,6 hPa 0,0 l/m 3,7 km/h (1 Bft) W 272 2 min 0,000 mm 5,8 UV-I 921 W/m 6,5 C 18,7 C 12,9 km/h (3 Bft) 100,00 %
08.06.2017 12:40 18,5 C 20,6 C 45 % 1020,6 hPa 0,0 l/m 4,2 km/h (1 Bft) W-SW 250 2 min 0,000 mm 5,6 UV-I 872 W/m 6,3 C 18,5 C 12,9 km/h (3 Bft) 98,00 %
08.06.2017 12:42 18,5 C 20,6 C 48 % 1020,6 hPa 0,0 l/m 5,8 km/h (2 Bft) SW 231 2 min 0,000 mm 5,3 UV-I 823 W/m 7,3 C 18,5 C 9,7 km/h (2 Bft) 97,87 %
08.06.2017 12:44 18,5 C 20,6 C 45 % 1020,5 hPa 0,0 l/m 4,9 km/h (1 Bft) W-NW 303 2 min 0,000 mm 5,2 UV-I 792 W/m 6,3 C 18,5 C 9,7 km/h (2 Bft) 95,45 %
08.06.2017 12:46 18,6 C 20,6 C 46 % 1020,6 hPa 0,0 l/m 4,0 km/h (1 Bft) W-NW 294 2 min 0,000 mm 5,0 UV-I 751 W/m 6,8 C 18,6 C 6,4 km/h (2 Bft) 98,11 %
08.06.2017 12:48 18,6 C 20,6 C 48 % 1020,6 hPa 0,0 l/m 4,8 km/h (1 Bft) W-NW 287 2 min 0,000 mm 4,9 UV-I 717 W/m 7,4 C 18,6 C 9,7 km/h (2 Bft) 95,74 %
08.06.2017 12:50 18,7 C 20,6 C 46 % 1020,5 hPa 0,0 l/m 3,6 km/h (1 Bft) W-SW 244 2 min 0,000 mm 4,8 UV-I 687 W/m 6,8 C 18,7 C 6,4 km/h (2 Bft) 100,00 %
08.06.2017 12:52 18,8 C 20,6 C 48 % 1020,5 hPa 0,0 l/m 1,1 km/h (1 Bft) W-SW 244 2 min 0,000 mm 4,8 UV-I 692 W/m 7,6 C 18,8 C 3,2 km/h (1 Bft) 94,23 %
08.06.2017 12:54 18,9 C 20,6 C 45 % 1020,6 hPa 0,0 l/m 0,2 km/h (0 Bft) W-SW 244 2 min 0,000 mm 4,8 UV-I 701 W/m 6,7 C 18,9 C 1,6 km/h (1 Bft) 97,62 %
08.06.2017 12:56 18,7 C 21,1 C 44 % 1020,5 hPa 0,0 l/m 1,1 km/h (1 Bft) W-SW 243 2 min 0,000 mm 5,0 UV-I 745 W/m 6,2 C 18,7 C 3,2 km/h (1 Bft) 95,74 %
08.06.2017 12:58 18,8 C 21,1 C 48 % 1020,5 hPa 0,0 l/m 3,6 km/h (1 Bft) S 181 2 min 0,000 mm 5,4 UV-I 861 W/m 7,6 C 18,8 C 6,4 km/h (2 Bft) 96,23 %
08.06.2017 13:00 19,2 C 21,1 C 49 % 1020,4 hPa 0,0 l/m 2,2 km/h (1 Bft) SO 130 2 min 0,508 mm 5,7 UV-I 901 W/m 8,2 C 19,2 C 6,4 km/h (2 Bft) 98,00 %
08.06.2017 13:02 19,3 C 20,6 C 44 % 1020,4 hPa 0,0 l/m 4,8 km/h (1 Bft) O-SO 109 2 min 0,000 mm 5,7 UV-I 922 W/m 6,7 C 19,3 C 6,4 km/h (2 Bft) 97,87 %
08.06.2017 13:04 19,3 C 20,6 C 44 % 1020,4 hPa 0,0 l/m 1,8 km/h (1 Bft) S-SO 154 2 min 0,000 mm 5,6 UV-I 856 W/m 6,7 C 19,3 C 4,8 km/h (1 Bft) 100,00 %
08.06.2017 13:06 19,2 C 20,6 C 46 % 1020,3 hPa 0,0 l/m 1,7 km/h (1 Bft) SW 223 2 min 0,000 mm 5,4 UV-I 842 W/m 7,3 C 19,2 C 4,8 km/h (1 Bft) 98,00 %
08.06.2017 13:08 19,3 C 20,6 C 45 % 1020,3 hPa 0,0 l/m 6,7 km/h (2 Bft) SW 215 2 min 0,000 mm 5,3 UV-I 810 W/m 7,1 C 19,2 C 11,3 km/h (2 Bft) 95,45 %
08.06.2017 13:10 19,4 C 20,6 C 44 % 1020,3 hPa 0,0 l/m 5,3 km/h (1 Bft) S-SW 212 2 min 0,000 mm 5,2 UV-I 800 W/m 6,8 C 19,4 C 9,7 km/h (2 Bft) 98,11 %
08.06.2017 13:12 19,4 C 20,6 C 46 % 1020,3 hPa 0,0 l/m 8,6 km/h (2 Bft) S 182 2 min 0,000 mm 5,3 UV-I 826 W/m 7,5 C 18,5 C 14,5 km/h (3 Bft) 100,00 %
08.06.2017 13:14 19,2 C 20,6 C 44 % 1020,3 hPa 0,0 l/m 4,3 km/h (1 Bft) S 171 2 min 0,000 mm 5,4 UV-I 848 W/m 6,7 C 19,2 C 8,0 km/h (2 Bft) 100,00 %
08.06.2017 13:16 19,1 C 20,6 C 44 % 1020,3 hPa 0,0 l/m 2,9 km/h (1 Bft) S-SW 207 2 min 0,000 mm 5,6 UV-I 883 W/m 6,6 C 19,1 C 6,4 km/h (2 Bft) 100,00 %
08.06.2017 13:18 19,1 C 20,6 C 47 % 1020,3 hPa 0,0 l/m 0,8 km/h (0 Bft) SW 214 2 min 0,000 mm 5,6 UV-I 885 W/m 7,5 C 19,1 C 3,2 km/h (1 Bft) 96,43 %
08.06.2017 13:20 19,1 C 20,6 C 45 % 1020,2 hPa 0,0 l/m 3,0 km/h (1 Bft) SW 217 2 min 0,000 mm 5,7 UV-I 891 W/m 6,9 C 19,1 C 6,4 km/h (2 Bft) 100,00 %
08.06.2017 13:22 19,1 C 20,6 C 43 % 1020,1 hPa 0,0 l/m 1,2 km/h (1 Bft) SW 217 2 min 0,000 mm 5,5 UV-I 877 W/m 6,2 C 19,1 C 4,8 km/h (1 Bft) 96,30 %
08.06.2017 13:24 19,1 C 20,6 C 43 % 1020,1 hPa 0,0 l/m 2,6 km/h (1 Bft) W-SW 238 2 min 0,000 mm 5,2 UV-I 799 W/m 6,2 C 19,1 C 6,4 km/h (2 Bft) 95,31 %
08.06.2017 13:26 19,2 C 20,6 C 46 % 1020,1 hPa 0,0 l/m 3,5 km/h (1 Bft) S-SO 157 2 min 0,000 mm 5,0 UV-I 752 W/m 7,3 C 19,2 C 8,0 km/h (2 Bft) 100,00 %
08.06.2017 13:28 19,4 C 20,6 C 46 % 1020,1 hPa 0,0 l/m 5,4 km/h (1 Bft) O-SO 113 2 min 0,000 mm 5,0 UV-I 751 W/m 7,5 C 19,4 C 9,7 km/h (2 Bft) 98,00 %
08.06.2017 13:30 19,3 C 20,6 C 43 % 1020,0 hPa 0,0 l/m 3,3 km/h (1 Bft) SO 126 2 min 0,000 mm 4,7 UV-I 695 W/m 6,4 C 19,3 C 4,8 km/h (1 Bft) 100,00 %
08.06.2017 13:32 19,4 C 20,6 C 46 % 1020,1 hPa 0,0 l/m 7,1 km/h (2 Bft) S-SW 205 2 min 0,000 mm 4,6 UV-I 674 W/m 7,5 C 19,1 C 12,9 km/h (3 Bft) 100,00 %
08.06.2017 13:34 19,5 C 20,6 C 43 % 1020,0 hPa 0,0 l/m 5,1 km/h (1 Bft) S-SO 162 2 min 0,000 mm 4,6 UV-I 706 W/m 6,6 C 19,5 C 11,3 km/h (2 Bft) 100,00 %
08.06.2017 13:36 19,6 C 20,6 C 46 % 1020,0 hPa 0,0 l/m 3,0 km/h (1 Bft) S 174 2 min 0,000 mm 4,6 UV-I 691 W/m 7,7 C 19,6 C 8,0 km/h (2 Bft) 96,00 %
08.06.2017 13:38 19,4 C 20,6 C 42 % 1020,0 hPa 0,0 l/m 4,4 km/h (1 Bft) S 188 2 min 0,000 mm 4,5 UV-I 681 W/m 6,2 C 19,4 C 9,7 km/h (2 Bft) 98,00 %
08.06.2017 13:40 19,2 C 20,6 C 44 % 1020,0 hPa 0,0 l/m 2,7 km/h (1 Bft) S 169 2 min 0,000 mm 4,5 UV-I 691 W/m 6,7 C 19,2 C 6,4 km/h (2 Bft) 95,74 %
08.06.2017 13:42 19,1 C 20,6 C 43 % 1019,9 hPa 0,0 l/m 2,5 km/h (1 Bft) S-SO 153 2 min 0,000 mm 4,4 UV-I 662 W/m 6,2 C 19,1 C 6,4 km/h (2 Bft) 95,74 %
08.06.2017 13:44 19,1 C 20,6 C 44 % 1019,9 hPa 0,0 l/m 3,3 km/h (1 Bft) O-SO 105 2 min 0,000 mm 4,3 UV-I 646 W/m 6,6 C 19,1 C 4,8 km/h (1 Bft) 100,00 %
08.06.2017 13:46 19,1 C 20,6 C 45 % 1019,9 hPa 0,0 l/m 2,0 km/h (1 Bft) S-SW 198 2 min 0,000 mm 4,3 UV-I 639 W/m 6,9 C 19,1 C 4,8 km/h (1 Bft) 98,11 %
08.06.2017 13:48 19,2 C 20,6 C 45 % 1019,9 hPa 0,0 l/m 4,0 km/h (1 Bft) S-SO 163 2 min 0,000 mm 4,5 UV-I 665 W/m 7,0 C 19,2 C 8,0 km/h (2 Bft) 94,74 %
08.06.2017 13:50 19,3 C 20,6 C 43 % 1020,0 hPa 0,0 l/m 3,7 km/h (1 Bft) S-SW 201 2 min 0,000 mm 4,8 UV-I 735 W/m 6,4 C 19,3 C 8,0 km/h (2 Bft) 98,00 %
08.06.2017 13:52 19,4 C 20,6 C 45 % 1020,0 hPa 0,0 l/m 5,8 km/h (2 Bft) W-SW 255 2 min 0,000 mm 5,0 UV-I 800 W/m 7,2 C 19,4 C 8,0 km/h (2 Bft) 92,86 %
08.06.2017 13:54 19,3 C 20,6 C 44 % 1019,9 hPa 0,0 l/m 4,9 km/h (1 Bft) W-NW 293 2 min 0,000 mm 5,2 UV-I 833 W/m 6,7 C 19,3 C 8,0 km/h (2 Bft) 90,24 %
08.06.2017 13:56 19,4 C 21,1 C 46 % 1019,9 hPa 0,0 l/m 1,8 km/h (1 Bft) N-NO 12 2 min 0,000 mm 5,4 UV-I 860 W/m 7,5 C 19,4 C 3,2 km/h (1 Bft) 96,00 %
08.06.2017 13:58 19,7 C 21,1 C 50 % 1019,8 hPa 0,0 l/m 4,2 km/h (1 Bft) N-NO 13 2 min 0,000 mm 5,5 UV-I 898 W/m 9,0 C 19,7 C 11,3 km/h (2 Bft) 97,56 %
08.06.2017 14:00 19,6 C 20,6 C 46 % 1019,8 hPa 0,0 l/m 1,3 km/h (1 Bft) N 5 2 min 0,483 mm 5,5 UV-I 888 W/m 7,7 C 19,6 C 3,2 km/h (1 Bft) 98,11 %
08.06.2017 14:02 19,7 C 20,6 C 44 % 1019,8 hPa 0,0 l/m 3,5 km/h (1 Bft) O-NO 62 2 min 0,000 mm 5,5 UV-I 883 W/m 7,1 C 19,7 C 11,3 km/h (2 Bft) 97,87 %
08.06.2017 14:04 19,6 C 20,6 C 48 % 1019,8 hPa 0,0 l/m 2,0 km/h (1 Bft) N-NO 23 2 min 0,000 mm 5,3 UV-I 828 W/m 8,3 C 19,6 C 6,4 km/h (2 Bft) 95,12 %
08.06.2017 14:06 19,7 C 20,6 C 52 % 1019,8 hPa 0,0 l/m 5,0 km/h (1 Bft) NO 52 2 min 0,000 mm 5,1 UV-I 786 W/m 9,6 C 19,7 C 8,0 km/h (2 Bft) 97,87 %
08.06.2017 14:08 19,9 C 21,1 C 50 % 1019,8 hPa 0,0 l/m 4,7 km/h (1 Bft) N-NO 22 2 min 0,000 mm 5,3 UV-I 853 W/m 9,2 C 19,9 C 8,0 km/h (2 Bft) 92,45 %
08.06.2017 14:10 19,8 C 21,1 C 47 % 1019,8 hPa 0,0 l/m 1,6 km/h (1 Bft) N-NO 31 2 min 0,000 mm 5,3 UV-I 840 W/m 8,2 C 19,8 C 8,0 km/h (2 Bft) 97,87 %
08.06.2017 14:12 19,8 C 21,1 C 48 % 1019,8 hPa 0,0 l/m 3,1 km/h (1 Bft) N-NO 30 2 min 0,000 mm 5,2 UV-I 794 W/m 8,5 C 19,8 C 6,4 km/h (2 Bft) 97,22 %
08.06.2017 14:14 19,8 C 21,1 C 51 % 1019,8 hPa 0,0 l/m 3,0 km/h (1 Bft) N-NO 25 2 min 0,000 mm 5,1 UV-I 780 W/m 9,4 C 19,8 C 6,4 km/h (2 Bft) 96,23 %
08.06.2017 14:16 19,8 C 21,1 C 50 % 1019,8 hPa 0,0 l/m 3,6 km/h (1 Bft) N-NO 32 2 min 0,000 mm 5,4 UV-I 866 W/m 9,1 C 19,8 C 6,4 km/h (2 Bft) 100,00 %
08.06.2017 14:18 19,8 C 21,1 C 49 % 1019,7 hPa 0,0 l/m 4,6 km/h (1 Bft) NO 43 2 min 0,000 mm 5,4 UV-I 864 W/m 8,8 C 19,8 C 8,0 km/h (2 Bft) 94,92 %
08.06.2017 14:20 20,0 C 21,1 C 48 % 1019,7 hPa 0,0 l/m 4,7 km/h (1 Bft) O 87 2 min 0,000 mm 5,1 UV-I 782 W/m 8,7 C 20,0 C 8,0 km/h (2 Bft) 97,14 %
08.06.2017 14:22 20,1 C 21,1 C 48 % 1019,6 hPa 0,0 l/m 6,7 km/h (2 Bft) NO 43 2 min 0,000 mm 5,1 UV-I 781 W/m 8,7 C 20,0 C 8,0 km/h (2 Bft) 96,00 %
08.06.2017 14:24 20,3 C 21,1 C 51 % 1019,6 hPa 0,0 l/m 4,0 km/h (1 Bft) NO 49 2 min 0,000 mm 5,2 UV-I 828 W/m 9,8 C 20,3 C 8,0 km/h (2 Bft) 98,00 %
08.06.2017 14:26 20,4 C 21,1 C 50 % 1019,6 hPa 0,0 l/m 5,4 km/h (1 Bft) NO 51 2 min 0,000 mm 5,1 UV-I 794 W/m 9,6 C 20,4 C 9,7 km/h (2 Bft) 100,00 %
08.06.2017 14:28 20,2 C 21,1 C 44 % 1019,6 hPa 0,0 l/m 3,8 km/h (1 Bft) O 88 2 min 0,000 mm 5,1 UV-I 814 W/m 7,6 C 20,2 C 8,0 km/h (2 Bft) 98,00 %
08.06.2017 14:30 20,1 C 21,1 C 44 % 1019,6 hPa 0,0 l/m 4,7 km/h (1 Bft) NO 38 2 min 0,000 mm 5,3 UV-I 863 W/m 7,5 C 20,1 C 9,7 km/h (2 Bft) 100,00 %
08.06.2017 14:32 20,1 C 21,1 C 48 % 1019,6 hPa 0,0 l/m 5,0 km/h (1 Bft) NO 44 2 min 0,000 mm 5,3 UV-I 877 W/m 8,7 C 20,1 C 8,0 km/h (2 Bft) 98,11 %
08.06.2017 14:34 20,0 C 21,1 C 48 % 1019,5 hPa 0,0 l/m 3,9 km/h (1 Bft) O-NO 63 2 min 0,000 mm 5,2 UV-I 832 W/m 8,7 C 20,0 C 9,7 km/h (2 Bft) 100,00 %
08.06.2017 14:36 20,1 C 21,1 C 47 % 1019,5 hPa 0,0 l/m 6,2 km/h (2 Bft) N-NO 23 2 min 0,000 mm 5,2 UV-I 854 W/m 8,4 C 20,1 C 9,7 km/h (2 Bft) 98,00 %
08.06.2017 14:38 20,3 C 21,1 C 50 % 1019,5 hPa 0,0 l/m 4,6 km/h (1 Bft) N 11 2 min 0,000 mm 5,1 UV-I 856 W/m 9,5 C 20,3 C 8,0 km/h (2 Bft) 100,00 %
08.06.2017 14:40 20,4 C 21,1 C 51 % 1019,5 hPa 0,0 l/m 3,2 km/h (1 Bft) NW 323 2 min 0,000 mm 5,2 UV-I 870 W/m 9,9 C 20,4 C 6,4 km/h (2 Bft) 95,74 %
08.06.2017 14:42 20,3 C 21,1 C 47 % 1019,5 hPa 0,0 l/m 1,5 km/h (1 Bft) N 10 2 min 0,000 mm 5,1 UV-I 826 W/m 8,6 C 20,3 C 4,8 km/h (1 Bft) 98,00 %
08.06.2017 14:44 20,2 C 21,1 C 50 % 1019,5 hPa 0,0 l/m 2,6 km/h (1 Bft) N-NW 336 2 min 0,000 mm 4,9 UV-I 815 W/m 9,4 C 20,2 C 4,8 km/h (1 Bft) 97,37 %
08.06.2017 14:46 20,1 C 21,1 C 47 % 1019,5 hPa 0,0 l/m 1,8 km/h (1 Bft) N-NW 344 2 min 0,000 mm 4,7 UV-I 767 W/m 8,4 C 20,1 C 4,8 km/h (1 Bft) 98,11 %
08.06.2017 14:48 20,0 C 21,1 C 53 % 1019,5 hPa 0,0 l/m 1,4 km/h (1 Bft) N 11 2 min 0,000 mm 4,6 UV-I 763 W/m 10,1 C 20,0 C 3,2 km/h (1 Bft) 97,44 %
08.06.2017 14:50 20,2 C 21,1 C 53 % 1019,5 hPa 0,0 l/m 2,7 km/h (1 Bft) NO 40 2 min 0,000 mm 4,5 UV-I 745 W/m 10,3 C 20,2 C 6,4 km/h (2 Bft) 97,87 %
08.06.2017 14:52 20,1 C 21,1 C 48 % 1019,4 hPa 0,0 l/m 1,9 km/h (1 Bft) W-NW 303 2 min 0,000 mm 4,4 UV-I 720 W/m 8,7 C 20,1 C 4,8 km/h (1 Bft) 91,84 %
08.06.2017 14:54 20,2 C 21,1 C 50 % 1019,5 hPa 0,0 l/m 2,8 km/h (1 Bft) W-SW 248 2 min 0,000 mm 4,4 UV-I 728 W/m 9,4 C 20,2 C 6,4 km/h (2 Bft) 95,74 %
08.06.2017 14:56 20,2 C 21,1 C 48 % 1019,4 hPa 0,0 l/m 2,3 km/h (1 Bft) NW 323 2 min 0,000 mm 4,1 UV-I 662 W/m 8,8 C 20,2 C 9,7 km/h (2 Bft) 96,23 %
08.06.2017 14:58 20,2 C 21,1 C 47 % 1019,4 hPa 0,0 l/m 4,0 km/h (1 Bft) W-SW 251 2 min 0,000 mm 4,0 UV-I 636 W/m 8,5 C 20,2 C 6,4 km/h (2 Bft) 97,73 %
08.06.2017 15:00 20,2 C 21,1 C 46 % 1019,4 hPa 0,0 l/m 4,4 km/h (1 Bft) W-NW 292 2 min 0,000 mm 3,8 UV-I 577 W/m 8,2 C 20,2 C 11,3 km/h (2 Bft) 98,00 %
08.06.2017 15:02 20,2 C 21,1 C 43 % 1019,4 hPa 0,0 l/m 5,6 km/h (1 Bft) W-NW 291 2 min 0,482 mm 3,7 UV-I 572 W/m 7,2 C 20,2 C 12,9 km/h (3 Bft) 98,00 %
08.06.2017 15:04 20,0 C 21,1 C 44 % 1019,4 hPa 0,0 l/m 3,4 km/h (1 Bft) W-NW 285 2 min 0,000 mm 3,9 UV-I 629 W/m 7,4 C 20,0 C 4,8 km/h (1 Bft) 97,56 %
08.06.2017 15:06 20,0 C 21,1 C 45 % 1019,3 hPa 0,0 l/m 3,3 km/h (1 Bft) SW 230 2 min 0,000 mm 4,2 UV-I 702 W/m 7,7 C 20,0 C 6,4 km/h (2 Bft) 96,00 %
08.06.2017 15:08 20,2 C 21,1 C 46 % 1019,3 hPa 0,0 l/m 1,4 km/h (1 Bft) NW 310 2 min 0,000 mm 4,3 UV-I 714 W/m 8,2 C 20,2 C 3,2 km/h (1 Bft) 97,87 %
08.06.2017 15:10 20,3 C 21,1 C 48 % 1019,3 hPa 0,0 l/m 2,7 km/h (1 Bft) W-NW 300 2 min 0,000 mm 4,6 UV-I 815 W/m 8,9 C 20,3 C 6,4 km/h (2 Bft) 97,50 %
08.06.2017 15:12 20,4 C 21,1 C 47 % 1019,3 hPa 0,0 l/m 2,5 km/h (1 Bft) N-NW 330 2 min 0,000 mm 4,6 UV-I 820 W/m 8,7 C 20,4 C 4,8 km/h (1 Bft) 96,23 %
08.06.2017 15:14 20,6 C 21,1 C 47 % 1019,3 hPa 0,0 l/m 3,0 km/h (1 Bft) NW 316 2 min 0,000 mm 4,6 UV-I 811 W/m 8,9 C 20,6 C 8,0 km/h (2 Bft) 95,12 %
08.06.2017 15:16 20,7 C 21,1 C 48 % 1019,3 hPa 0,0 l/m 1,6 km/h (1 Bft) N 355 2 min 0,000 mm 4,5 UV-I 796 W/m 9,3 C 20,7 C 4,8 km/h (1 Bft) 97,87 %
08.06.2017 15:18 20,7 C 21,1 C 45 % 1019,2 hPa 0,0 l/m 1,2 km/h (1 Bft) N 355 2 min 0,000 mm 4,1 UV-I 706 W/m 8,3 C 20,7 C 3,2 km/h (1 Bft) 92,45 %
08.06.2017 15:20 20,8 C 21,1 C 47 % 1019,2 hPa 0,0 l/m 2,7 km/h (1 Bft) N-NO 13 2 min 0,000 mm 3,7 UV-I 576 W/m 9,1 C 20,8 C 6,4 km/h (2 Bft) 96,30 %
08.06.2017 15:22 20,6 C 21,1 C 49 % 1019,2 hPa 0,0 l/m 2,8 km/h (1 Bft) NO 36 2 min 0,000 mm 3,8 UV-I 604 W/m 9,5 C 20,6 C 6,4 km/h (2 Bft) 97,01 %
08.06.2017 15:24 20,3 C 21,1 C 50 % 1019,2 hPa 0,0 l/m 6,9 km/h (2 Bft) NO 36 2 min 0,000 mm 4,1 UV-I 714 W/m 9,5 C 20,1 C 9,7 km/h (2 Bft) 94,00 %
08.06.2017 15:26 20,3 C 21,1 C 43 % 1019,2 hPa 0,0 l/m 3,7 km/h (1 Bft) O-NO 60 2 min 0,000 mm 4,3 UV-I 786 W/m 7,3 C 20,3 C 6,4 km/h (2 Bft) 94,44 %
08.06.2017 15:28 20,6 C 21,7 C 47 % 1019,2 hPa 0,0 l/m 3,1 km/h (1 Bft) NO 39 2 min 0,000 mm 4,4 UV-I 806 W/m 8,9 C 20,6 C 4,8 km/h (1 Bft) 91,49 %
08.06.2017 15:30 20,8 C 21,7 C 45 % 1019,2 hPa 0,0 l/m 3,0 km/h (1 Bft) N-NW 331 2 min 0,000 mm 4,3 UV-I 795 W/m 8,4 C 20,8 C 6,4 km/h (2 Bft) 98,18 %
08.06.2017 15:32 20,8 C 21,7 C 45 % 1019,2 hPa 0,0 l/m 2,0 km/h (1 Bft) NW 319 2 min 0,000 mm 4,3 UV-I 788 W/m 8,4 C 20,8 C 4,8 km/h (1 Bft) 92,31 %
08.06.2017 15:34 20,8 C 21,7 C 47 % 1019,1 hPa 0,0 l/m 3,4 km/h (1 Bft) N-NO 25 2 min 0,000 mm 4,2 UV-I 777 W/m 9,1 C 20,8 C 9,7 km/h (2 Bft) 96,43 %
08.06.2017 15:36 20,7 C 21,7 C 45 % 1019,2 hPa 0,0 l/m 4,8 km/h (1 Bft) NO 46 2 min 0,000 mm 4,1 UV-I 762 W/m 8,3 C 20,7 C 12,9 km/h (3 Bft) 97,14 %
08.06.2017 15:38 20,6 C 21,7 C 42 % 1019,1 hPa 0,0 l/m 3,8 km/h (1 Bft) O-SO 105 2 min 0,000 mm 4,1 UV-I 761 W/m 7,2 C 20,6 C 6,4 km/h (2 Bft) 96,00 %
08.06.2017 15:40 20,6 C 21,7 C 43 % 1019,1 hPa 0,0 l/m 3,7 km/h (1 Bft) S 182 2 min 0,000 mm 4,0 UV-I 755 W/m 7,6 C 20,6 C 8,0 km/h (2 Bft) 95,74 %
08.06.2017 15:42 20,6 C 21,7 C 42 % 1019,1 hPa 0,0 l/m 3,0 km/h (1 Bft) S-SW 196 2 min 0,000 mm 4,0 UV-I 761 W/m 7,2 C 20,6 C 6,4 km/h (2 Bft) 96,00 %
08.06.2017 15:44 20,6 C 21,7 C 44 % 1019,0 hPa 0,0 l/m 0,8 km/h (0 Bft) SO 136 2 min 0,000 mm 4,0 UV-I 755 W/m 7,9 C 20,6 C 4,8 km/h (1 Bft) 92,45 %
08.06.2017 15:46 21,1 C 21,7 C 49 % 1019,0 hPa 0,0 l/m 4,7 km/h (1 Bft) NO 54 2 min 0,000 mm 3,9 UV-I 741 W/m 10,0 C 21,1 C 8,0 km/h (2 Bft) 95,12 %
08.06.2017 15:48 21,0 C 21,7 C 45 % 1019,1 hPa 0,0 l/m 3,4 km/h (1 Bft) O-SO 119 2 min 0,000 mm 3,9 UV-I 743 W/m 8,6 C 21,0 C 6,4 km/h (2 Bft) 93,62 %
08.06.2017 15:50 21,1 C 21,7 C 45 % 1019,0 hPa 0,0 l/m 3,4 km/h (1 Bft) NO 51 2 min 0,000 mm 3,8 UV-I 721 W/m 8,7 C 21,1 C 6,4 km/h (2 Bft) 91,49 %
08.06.2017 15:52 21,1 C 21,7 C 47 % 1019,0 hPa 0,0 l/m 4,8 km/h (1 Bft) NO 36 2 min 0,000 mm 3,7 UV-I 709 W/m 9,3 C 21,1 C 8,0 km/h (2 Bft) 93,62 %
08.06.2017 15:54 21,2 C 21,1 C 44 % 1019,0 hPa 0,0 l/m 6,5 km/h (2 Bft) NO 53 2 min 0,000 mm 3,7 UV-I 713 W/m 8,5 C 21,2 C 9,7 km/h (2 Bft) 96,00 %
08.06.2017 15:56 21,1 C 21,1 C 41 % 1018,9 hPa 0,0 l/m 4,3 km/h (1 Bft) NO 49 2 min 0,000 mm 3,7 UV-I 714 W/m 7,3 C 21,1 C 6,4 km/h (2 Bft) 95,45 %
08.06.2017 15:58 21,1 C 21,1 C 41 % 1018,9 hPa 0,0 l/m 1,5 km/h (1 Bft) NO 49 2 min 0,000 mm 3,6 UV-I 701 W/m 7,3 C 21,1 C 4,8 km/h (1 Bft) 94,00 %
08.06.2017 16:00 21,2 C 21,1 C 52 % 1018,9 hPa 0,0 l/m 1,6 km/h (1 Bft) N-NO 14 2 min 0,458 mm 3,6 UV-I 720 W/m 10,9 C 21,2 C 3,2 km/h (1 Bft) 92,11 %
08.06.2017 16:02 21,3 C 21,1 C 46 % 1018,9 hPa 0,0 l/m 3,0 km/h (1 Bft) NO 44 2 min 0,000 mm 3,6 UV-I 717 W/m 9,2 C 21,3 C 8,0 km/h (2 Bft) 94,34 %
08.06.2017 16:04 21,3 C 21,1 C 48 % 1018,8 hPa 0,0 l/m 2,7 km/h (1 Bft) NO 50 2 min 0,000 mm 3,5 UV-I 709 W/m 9,8 C 21,3 C 6,4 km/h (2 Bft) 94,00 %
08.06.2017 16:06 21,3 C 21,1 C 42 % 1018,8 hPa 0,0 l/m 2,2 km/h (1 Bft) N 9 2 min 0,000 mm 3,5 UV-I 704 W/m 7,9 C 21,3 C 4,8 km/h (1 Bft) 86,11 %
08.06.2017 16:08 21,4 C 21,1 C 51 % 1018,9 hPa 0,0 l/m 2,6 km/h (1 Bft) NO 52 2 min 0,000 mm 3,4 UV-I 702 W/m 10,8 C 21,4 C 4,8 km/h (1 Bft) 96,00 %
08.06.2017 16:10 21,4 C 21,1 C 51 % 1018,8 hPa 0,0 l/m 5,5 km/h (1 Bft) N-NO 33 2 min 0,000 mm 3,4 UV-I 697 W/m 10,8 C 21,4 C 9,7 km/h (2 Bft) 90,00 %
08.06.2017 16:12 21,4 C 21,1 C 41 % 1018,8 hPa 0,0 l/m 5,8 km/h (2 Bft) O-NO 60 2 min 0,000 mm 3,3 UV-I 686 W/m 7,6 C 21,4 C 9,7 km/h (2 Bft) 96,00 %
08.06.2017 16:14 21,3 C 21,1 C 46 % 1018,8 hPa 0,0 l/m 6,5 km/h (2 Bft) N-NO 28 2 min 0,000 mm 3,2 UV-I 680 W/m 9,2 C 21,3 C 12,9 km/h (3 Bft) 92,68 %
08.06.2017 16:16 21,3 C 21,1 C 49 % 1018,8 hPa 0,0 l/m 5,5 km/h (1 Bft) N-NO 17 2 min 0,000 mm 3,2 UV-I 683 W/m 10,1 C 21,3 C 12,9 km/h (3 Bft) 93,18 %
08.06.2017 16:18 21,1 C 21,1 C 45 % 1018,8 hPa 0,0 l/m 11,9 km/h (2 Bft) N-NO 18 2 min 0,000 mm 3,2 UV-I 680 W/m 8,7 C 19,3 C 16,1 km/h (3 Bft) 92,45 %
08.06.2017 16:20 20,9 C 21,1 C 46 % 1018,7 hPa 0,0 l/m 6,8 km/h (2 Bft) N-NO 31 2 min 0,000 mm 3,1 UV-I 674 W/m 8,8 C 20,8 C 12,9 km/h (3 Bft) 96,00 %
08.06.2017 16:22 21,0 C 21,1 C 42 % 1018,7 hPa 0,0 l/m 4,2 km/h (1 Bft) NO 36 2 min 0,000 mm 3,1 UV-I 671 W/m 7,6 C 21,0 C 8,0 km/h (2 Bft) 97,56 %
08.06.2017 16:24 21,1 C 21,7 C 46 % 1018,6 hPa 0,0 l/m 6,5 km/h (2 Bft) NO 47 2 min 0,000 mm 3,1 UV-I 666 W/m 9,0 C 21,1 C 9,7 km/h (2 Bft) 92,00 %
08.06.2017 16:26 21,2 C 21,7 C 42 % 1018,6 hPa 0,0 l/m 6,4 km/h (2 Bft) O-SO 105 2 min 0,000 mm 2,9 UV-I 638 W/m 7,8 C 21,2 C 9,7 km/h (2 Bft) 96,00 %
08.06.2017 16:28 21,2 C 21,7 C 42 % 1018,6 hPa 0,0 l/m 4,1 km/h (1 Bft) O 95 2 min 0,000 mm 2,9 UV-I 641 W/m 7,8 C 21,2 C 6,4 km/h (2 Bft) 97,56 %
08.06.2017 16:30 21,3 C 21,7 C 45 % 1018,5 hPa 0,0 l/m 5,4 km/h (1 Bft) NO 37 2 min 0,000 mm 2,9 UV-I 649 W/m 8,9 C 21,3 C 12,9 km/h (3 Bft) 94,34 %
08.06.2017 16:32 21,4 C 21,7 C 45 % 1018,5 hPa 0,0 l/m 6,7 km/h (2 Bft) NO 49 2 min 0,000 mm 2,8 UV-I 649 W/m 9,0 C 21,3 C 12,9 km/h (3 Bft) 97,56 %
08.06.2017 16:34 21,4 C 21,7 C 46 % 1018,5 hPa 0,0 l/m 4,7 km/h (1 Bft) N-NO 19 2 min 0,000 mm 2,8 UV-I 638 W/m 9,3 C 21,4 C 11,3 km/h (2 Bft) 98,11 %
08.06.2017 16:36 21,5 C 21,7 C 47 % 1018,5 hPa 0,0 l/m 4,5 km/h (1 Bft) NO 43 2 min 0,000 mm 2,7 UV-I 620 W/m 9,7 C 21,5 C 8,0 km/h (2 Bft) 100,00 %
08.06.2017 16:38 21,6 C 21,7 C 44 % 1018,4 hPa 0,0 l/m 3,1 km/h (1 Bft) NO 34 2 min 0,000 mm 2,6 UV-I 610 W/m 8,8 C 21,6 C 6,4 km/h (2 Bft) 97,56 %
08.06.2017 16:40 21,4 C 21,7 C 45 % 1018,4 hPa 0,0 l/m 6,2 km/h (2 Bft) NO 37 2 min 0,000 mm 2,6 UV-I 603 W/m 9,0 C 21,4 C 9,7 km/h (2 Bft) 96,00 %
08.06.2017 16:42 21,4 C 21,7 C 47 % 1018,5 hPa 0,0 l/m 3,9 km/h (1 Bft) N-NO 26 2 min 0,000 mm 2,5 UV-I 594 W/m 9,6 C 21,4 C 6,4 km/h (2 Bft) 100,00 %
08.06.2017 16:44 21,4 C 21,7 C 48 % 1018,4 hPa 0,0 l/m 2,0 km/h (1 Bft) N-NO 26 2 min 0,000 mm 2,5 UV-I 593 W/m 9,9 C 21,4 C 4,8 km/h (1 Bft) 98,21 %
08.06.2017 16:46 21,2 C 22,2 C 43 % 1018,5 hPa 0,0 l/m 3,1 km/h (1 Bft) NO 44 2 min 0,000 mm 2,5 UV-I 594 W/m 8,1 C 21,2 C 4,8 km/h (1 Bft) 97,44 %
08.06.2017 16:48 21,3 C 21,7 C 46 % 1018,4 hPa 0,0 l/m 2,9 km/h (1 Bft) NO 42 2 min 0,000 mm 2,5 UV-I 603 W/m 9,2 C 21,3 C 6,4 km/h (2 Bft) 88,68 %
08.06.2017 16:50 21,4 C 22,2 C 47 % 1018,4 hPa 0,0 l/m 3,8 km/h (1 Bft) NO 41 2 min 0,000 mm 2,4 UV-I 593 W/m 9,6 C 21,4 C 12,9 km/h (3 Bft) 100,00 %
08.06.2017 16:52 21,4 C 22,2 C 42 % 1018,4 hPa 0,0 l/m 8,2 km/h (2 Bft) N 5 2 min 0,000 mm 2,4 UV-I 593 W/m 8,0 C 20,8 C 12,9 km/h (3 Bft) 91,49 %
08.06.2017 16:54 21,4 C 21,7 C 42 % 1018,3 hPa 0,0 l/m 3,8 km/h (1 Bft) NO 48 2 min 0,000 mm 2,4 UV-I 593 W/m 8,0 C 21,4 C 6,4 km/h (2 Bft) 97,14 %
08.06.2017 16:56 21,5 C 22,2 C 45 % 1018,3 hPa 0,0 l/m 4,9 km/h (1 Bft) O-NO 59 2 min 0,000 mm 2,3 UV-I 574 W/m 9,1 C 21,5 C 8,0 km/h (2 Bft) 98,21 %
08.06.2017 16:58 21,4 C 21,7 C 39 % 1018,3 hPa 0,0 l/m 3,5 km/h (1 Bft) O-NO 70 2 min 0,000 mm 2,2 UV-I 554 W/m 6,9 C 21,4 C 6,4 km/h (2 Bft) 100,00 %
08.06.2017 17:00 21,3 C 21,7 C 38 % 1018,2 hPa 0,0 l/m 0,9 km/h (0 Bft) O-NO 75 2 min 0,000 mm 2,2 UV-I 537 W/m 6,4 C 21,3 C 3,2 km/h (1 Bft) 100,00 %
08.06.2017 17:02 21,3 C 22,2 C 39 % 1018,2 hPa 0,0 l/m 2,1 km/h (1 Bft) S-SW 198 2 min 0,406 mm 2,1 UV-I 535 W/m 6,8 C 21,3 C 6,4 km/h (2 Bft) 97,56 %
08.06.2017 17:04 21,4 C 22,2 C 43 % 1018,2 hPa 0,0 l/m 5,0 km/h (1 Bft) N-NO 16 2 min 0,000 mm 2,1 UV-I 546 W/m 8,3 C 21,4 C 12,9 km/h (3 Bft) 100,00 %
08.06.2017 17:06 21,3 C 21,7 C 44 % 1018,2 hPa 0,0 l/m 3,4 km/h (1 Bft) N-NO 14 2 min 0,000 mm 2,0 UV-I 504 W/m 8,5 C 21,3 C 8,0 km/h (2 Bft) 100,00 %
08.06.2017 17:08 21,2 C 22,2 C 47 % 1018,1 hPa 0,0 l/m 2,7 km/h (1 Bft) N 11 2 min 0,000 mm 1,9 UV-I 472 W/m 9,4 C 21,2 C 6,4 km/h (2 Bft) 98,11 %
08.06.2017 17:10 21,0 C 22,2 C 43 % 1018,1 hPa 0,0 l/m 2,3 km/h (1 Bft) N 10 2 min 0,000 mm 1,9 UV-I 443 W/m 7,9 C 21,0 C 8,0 km/h (2 Bft) 92,11 %
08.06.2017 17:12 20,9 C 22,2 C 45 % 1018,0 hPa 0,0 l/m 0,7 km/h (0 Bft) N 10 2 min 0,000 mm 1,8 UV-I 426 W/m 8,5 C 20,9 C 1,6 km/h (1 Bft) 96,00 %
08.06.2017 17:14 20,9 C 21,7 C 51 % 1018,0 hPa 0,0 l/m 1,2 km/h (1 Bft) NO 44 2 min 0,000 mm 1,8 UV-I 466 W/m 10,4 C 20,9 C 4,8 km/h (1 Bft) 98,00 %
08.06.2017 17:16 20,9 C 22,2 C 45 % 1018,0 hPa 0,0 l/m 1,7 km/h (1 Bft) N 355 2 min 0,000 mm 1,9 UV-I 503 W/m 8,5 C 20,9 C 4,8 km/h (1 Bft) 90,24 %
08.06.2017 17:18 20,9 C 22,2 C 43 % 1018,0 hPa 0,0 l/m 0,6 km/h (0 Bft) N-NW 348 2 min 0,000 mm 1,8 UV-I 507 W/m 7,8 C 20,9 C 3,2 km/h (1 Bft) 100,00 %
08.06.2017 17:20 20,9 C 22,2 C 51 % 1018,0 hPa 0,0 l/m 1,1 km/h (1 Bft) N-NO 15 2 min 0,000 mm 1,7 UV-I 480 W/m 10,4 C 20,9 C 6,4 km/h (2 Bft) 100,00 %
08.06.2017 17:22 21,1 C 22,2 C 43 % 1017,9 hPa 0,0 l/m 5,2 km/h (1 Bft) NO 56 2 min 0,000 mm 1,7 UV-I 454 W/m 8,0 C 21,1 C 6,4 km/h (2 Bft) 98,57 %
08.06.2017 17:24 21,2 C 22,2 C 44 % 1017,9 hPa 0,0 l/m 3,9 km/h (1 Bft) NO 50 2 min 0,000 mm 1,6 UV-I 435 W/m 8,5 C 21,2 C 6,4 km/h (2 Bft) 98,00 %
08.06.2017 17:26 21,2 C 22,2 C 44 % 1017,9 hPa 0,0 l/m 3,2 km/h (1 Bft) NO 51 2 min 0,000 mm 1,6 UV-I 449 W/m 8,5 C 21,2 C 4,8 km/h (1 Bft) 100,00 %
08.06.2017 17:30 21,3 C 22,2 C 40 % 1017,9 hPa 0,0 l/m 1,6 km/h (1 Bft) NO 45 4 min 0,000 mm 1,6 UV-I 450 W/m 7,1 C 21,3 C 4,8 km/h (1 Bft) 95,61 %
08.06.2017 17:32 21,3 C 22,2 C 42 % 1017,8 hPa 0,0 l/m 4,9 km/h (1 Bft) NO 50 2 min 0,000 mm 1,6 UV-I 469 W/m 7,9 C 21,3 C 6,4 km/h (2 Bft) 97,86 %
08.06.2017 17:34 21,3 C 22,2 C 41 % 1017,9 hPa 0,0 l/m 3,9 km/h (1 Bft) NO 50 2 min 0,000 mm 1,6 UV-I 467 W/m 7,5 C 21,3 C 4,8 km/h (1 Bft) 98,00 %
08.06.2017 17:36 21,3 C 22,2 C 45 % 1017,9 hPa 0,0 l/m 1,1 km/h (1 Bft) NO 50 2 min 0,000 mm 1,5 UV-I 444 W/m 8,9 C 21,3 C 4,8 km/h (1 Bft) 96,23 %
08.06.2017 17:38 21,3 C 22,2 C 46 % 1017,9 hPa 0,0 l/m 0,4 km/h (0 Bft) NO 37 2 min 0,000 mm 1,5 UV-I 439 W/m 9,2 C 21,3 C 3,2 km/h (1 Bft) 100,00 %
08.06.2017 17:40 21,4 C 22,2 C 44 % 1017,9 hPa 0,0 l/m 2,2 km/h (1 Bft) NO 46 2 min 0,000 mm 1,4 UV-I 436 W/m 8,6 C 21,4 C 4,8 km/h (1 Bft) 94,64 %
08.06.2017 17:46 21,3 C 22,2 C 43 % 1017,8 hPa 0,0 l/m 3,1 km/h (1 Bft) NO 47 6 min 0,000 mm 1,3 UV-I 383 W/m 8,2 C 21,3 C 4,8 km/h (1 Bft) 97,14 %
08.06.2017 17:48 21,2 C 21,7 C 40 % 1017,9 hPa 0,0 l/m 1,1 km/h (1 Bft) NO 47 2 min 0,000 mm 1,2 UV-I 291 W/m 7,1 C 21,2 C 3,2 km/h (1 Bft) 95,74 %
08.06.2017 17:50 21,2 C 21,7 C 40 % 1017,8 hPa 0,0 l/m 0,1 km/h (0 Bft) NO 47 2 min 0,000 mm 1,2 UV-I 302 W/m 7,1 C 21,2 C 1,6 km/h (1 Bft) 97,87 %
08.06.2017 17:52 21,1 C 21,7 C 42 % 1017,9 hPa 0,0 l/m 0,9 km/h (0 Bft) NO 47 2 min 0,000 mm 1,2 UV-I 322 W/m 7,7 C 21,1 C 3,2 km/h (1 Bft) 93,62 %
08.06.2017 17:54 21,1 C 21,7 C 47 % 1017,8 hPa 0,0 l/m 1,6 km/h (1 Bft) NO 47 2 min 0,000 mm 1,1 UV-I 346 W/m 9,3 C 21,1 C 3,2 km/h (1 Bft) 91,49 %
08.06.2017 17:56 21,1 C 21,7 C 44 % 1017,8 hPa 0,0 l/m 2,4 km/h (1 Bft) NO 47 2 min 0,000 mm 1,1 UV-I 342 W/m 8,4 C 21,1 C 4,8 km/h (1 Bft) 92,11 %
08.06.2017 17:58 21,1 C 21,7 C 44 % 1017,8 hPa 0,0 l/m 1,7 km/h (1 Bft) NO 47 2 min 0,000 mm 1,1 UV-I 323 W/m 8,4 C 21,1 C 3,2 km/h (1 Bft) 94,64 %
08.06.2017 18:00 21,1 C 21,7 C 43 % 1017,7 hPa 0,0 l/m 1,4 km/h (1 Bft) NO 47 2 min 0,279 mm 1,0 UV-I 313 W/m 8,0 C 21,1 C 3,2 km/h (1 Bft) 95,74 %
08.06.2017 18:02 21,1 C 21,7 C 46 % 1017,7 hPa 0,0 l/m 0,2 km/h (0 Bft) NO 47 2 min 0,000 mm 1,0 UV-I 308 W/m 9,0 C 21,1 C 1,6 km/h (1 Bft) 93,62 %
08.06.2017 18:04 21,0 C 21,7 C 42 % 1017,7 hPa 0,0 l/m 0,5 km/h (0 Bft) NO 47 2 min 0,000 mm 1,0 UV-I 282 W/m 7,6 C 21,0 C 1,6 km/h (1 Bft) 92,11 %
08.06.2017 18:06 21,0 C 21,7 C 44 % 1017,7 hPa 0,0 l/m 0,2 km/h (0 Bft) NO 47 2 min 0,000 mm 1,0 UV-I 297 W/m 8,3 C 21,0 C 1,6 km/h (1 Bft) 95,74 %
08.06.2017 18:08 20,9 C 21,7 C 45 % 1017,7 hPa 0,0 l/m 1,8 km/h (1 Bft) NO 47 2 min 0,000 mm 1,0 UV-I 324 W/m 8,5 C 20,9 C 4,8 km/h (1 Bft) 97,87 %
08.06.2017 18:10 20,9 C 21,7 C 47 % 1017,7 hPa 0,0 l/m 1,1 km/h (1 Bft) N-NW 341 2 min 0,000 mm 1,0 UV-I 333 W/m 9,2 C 20,9 C 4,8 km/h (1 Bft) 96,00 %
08.06.2017 18:12 20,9 C 21,7 C 47 % 1017,6 hPa 0,0 l/m 1,7 km/h (1 Bft) N 5 2 min 0,000 mm 0,9 UV-I 333 W/m 9,2 C 20,9 C 4,8 km/h (1 Bft) 92,31 %
08.06.2017 18:14 20,8 C 21,7 C 46 % 1017,6 hPa 0,0 l/m 0,8 km/h (0 Bft) N 5 2 min 0,000 mm 0,9 UV-I 334 W/m 8,8 C 20,8 C 3,2 km/h (1 Bft) 98,08 %
08.06.2017 18:16 20,7 C 21,7 C 46 % 1017,6 hPa 0,0 l/m 0,4 km/h (0 Bft) N 5 2 min 0,000 mm 0,9 UV-I 322 W/m 8,7 C 20,7 C 1,6 km/h (1 Bft) 98,00 %
08.06.2017 18:18 20,7 C 21,7 C 47 % 1017,6 hPa 0,0 l/m 0,3 km/h (0 Bft) N 5 2 min 0,000 mm 0,9 UV-I 323 W/m 9,0 C 20,7 C 1,6 km/h (1 Bft) 97,62 %
08.06.2017 18:20 20,7 C 21,7 C 45 % 1017,6 hPa 0,0 l/m 0,4 km/h (0 Bft) N 5 2 min 0,000 mm 0,9 UV-I 314 W/m 8,3 C 20,7 C 1,6 km/h (1 Bft) 95,74 %
08.06.2017 18:22 20,7 C 21,7 C 45 % 1017,6 hPa 0,0 l/m 0,2 km/h (0 Bft) N 5 2 min 0,000 mm 0,8 UV-I 281 W/m 8,3 C 20,7 C 1,6 km/h (1 Bft) 95,74 %
08.06.2017 18:24 20,7 C 21,7 C 46 % 1017,5 hPa 0,0 l/m 0,2 km/h (0 Bft) N 5 2 min 0,000 mm 0,8 UV-I 298 W/m 8,7 C 20,7 C 1,6 km/h (1 Bft) 100,00 %
08.06.2017 18:26 20,8 C 21,7 C 52 % 1017,5 hPa 0,0 l/m 0,2 km/h (0 Bft) N 5 2 min 0,000 mm 0,8 UV-I 334 W/m 10,6 C 20,8 C 1,6 km/h (1 Bft) 91,49 %
08.06.2017 18:28 20,9 C 21,7 C 42 % 1017,5 hPa 0,0 l/m 0,6 km/h (0 Bft) N 5 2 min 0,000 mm 0,8 UV-I 345 W/m 7,5 C 20,9 C 1,6 km/h (1 Bft) 94,74 %
08.06.2017 18:30 21,0 C 21,7 C 44 % 1017,5 hPa 0,0 l/m 2,6 km/h (1 Bft) N-NO 22 2 min 0,000 mm 0,8 UV-I 313 W/m 8,3 C 21,0 C 4,8 km/h (1 Bft) 98,08 %
08.06.2017 18:32 21,1 C 21,7 C 43 % 1017,5 hPa 0,0 l/m 3,3 km/h (1 Bft) N-NO 31 2 min 0,000 mm 0,7 UV-I 303 W/m 8,0 C 21,1 C 4,8 km/h (1 Bft) 100,00 %
08.06.2017 18:34 21,2 C 21,7 C 44 % 1017,5 hPa 0,0 l/m 3,9 km/h (1 Bft) N-NO 28 2 min 0,000 mm 0,7 UV-I 301 W/m 8,5 C 21,2 C 4,8 km/h (1 Bft) 96,00 %
08.06.2017 18:36 21,2 C 21,7 C 41 % 1017,5 hPa 0,0 l/m 1,8 km/h (1 Bft) N-NO 28 2 min 0,000 mm 0,7 UV-I 300 W/m 7,4 C 21,2 C 4,8 km/h (1 Bft) 98,00 %
08.06.2017 18:38 21,2 C 21,7 C 47 % 1017,5 hPa 0,0 l/m 1,8 km/h (1 Bft) N-NO 28 2 min 0,000 mm 0,7 UV-I 276 W/m 9,4 C 21,2 C 3,2 km/h (1 Bft) 98,00 %
08.06.2017 18:40 21,1 C 21,7 C 43 % 1017,5 hPa 0,0 l/m 2,7 km/h (1 Bft) N-NO 28 2 min 0,000 mm 0,6 UV-I 250 W/m 8,0 C 21,1 C 4,8 km/h (1 Bft) 94,74 %
08.06.2017 18:42 21,1 C 21,7 C 43 % 1017,5 hPa 0,0 l/m 0,7 km/h (0 Bft) N-NO 28 2 min 0,000 mm 0,6 UV-I 255 W/m 8,0 C 21,1 C 1,6 km/h (1 Bft) 95,12 %
08.06.2017 18:44 20,9 C 21,7 C 48 % 1017,5 hPa 0,0 l/m 2,9 km/h (1 Bft) N-NO 28 2 min 0,000 mm 0,6 UV-I 228 W/m 9,5 C 20,9 C 6,4 km/h (2 Bft) 94,64 %
08.06.2017 18:46 20,7 C 21,7 C 44 % 1017,5 hPa 0,0 l/m 3,1 km/h (1 Bft) N-NO 28 2 min 0,000 mm 0,5 UV-I 198 W/m 8,0 C 20,7 C 6,4 km/h (2 Bft) 98,00 %
08.06.2017 18:48 20,6 C 21,7 C 48 % 1017,5 hPa 0,0 l/m 0,4 km/h (0 Bft) N-NO 28 2 min 0,000 mm 0,5 UV-I 214 W/m 9,2 C 20,6 C 3,2 km/h (1 Bft) 97,73 %
08.06.2017 18:50 20,6 C 21,7 C 48 % 1017,5 hPa 0,0 l/m 0,2 km/h (0 Bft) N-NO 22 2 min 0,000 mm 0,5 UV-I 244 W/m 9,2 C 20,6 C 1,6 km/h (1 Bft) 100,00 %
08.06.2017 18:52 20,5 C 21,7 C 46 % 1017,5 hPa 0,0 l/m 0,4 km/h (0 Bft) N-NO 20 2 min 0,000 mm 0,5 UV-I 259 W/m 8,5 C 20,5 C 3,2 km/h (1 Bft) 100,00 %
08.06.2017 18:54 20,4 C 21,7 C 51 % 1017,4 hPa 0,0 l/m 0,4 km/h (0 Bft) N-NO 17 2 min 0,000 mm 0,5 UV-I 274 W/m 9,9 C 20,4 C 1,6 km/h (1 Bft) 100,00 %
08.06.2017 18:56 20,4 C 21,7 C 49 % 1017,4 hPa 0,0 l/m 0,1 km/h (0 Bft) N-NO 17 2 min 0,000 mm 0,5 UV-I 259 W/m 9,3 C 20,4 C 1,6 km/h (1 Bft) 100,00 %
08.06.2017 18:58 20,4 C 21,7 C 50 % 1017,4 hPa 0,0 l/m 0,4 km/h (0 Bft) N-NO 17 2 min 0,000 mm 0,5 UV-I 246 W/m 9,6 C 20,4 C 1,6 km/h (1 Bft) 100,00 %
08.06.2017 19:00 20,4 C 22,2 C 51 % 1017,4 hPa 0,0 l/m 1,0 km/h (0 Bft) N-NO 17 2 min 0,000 mm 0,4 UV-I 227 W/m 9,9 C 20,4 C 4,8 km/h (1 Bft) 100,00 %
08.06.2017 19:02 20,4 C 22,2 C 47 % 1017,4 hPa 0,0 l/m 2,6 km/h (1 Bft) N-NO 15 2 min 0,178 mm 0,0 UV-I 225 W/m 8,7 C 20,4 C 6,4 km/h (2 Bft) 98,11 %
08.06.2017 19:04 20,4 C 22,2 C 51 % 1017,4 hPa 0,0 l/m 3,2 km/h (1 Bft) N-NO 18 2 min 0,000 mm 0,0 UV-I 215 W/m 9,9 C 20,4 C 6,4 km/h (2 Bft) 100,00 %
08.06.2017 19:06 20,4 C 21,7 C 50 % 1017,4 hPa 0,0 l/m 5,9 km/h (2 Bft) N-NO 26 2 min 0,000 mm 0,0 UV-I 196 W/m 9,6 C 20,4 C 8,0 km/h (2 Bft) 100,00 %
08.06.2017 19:08 20,3 C 22,2 C 49 % 1017,4 hPa 0,0 l/m 4,9 km/h (1 Bft) N-NO 33 2 min 0,000 mm 0,0 UV-I 174 W/m 9,2 C 20,3 C 8,0 km/h (2 Bft) 100,00 %
08.06.2017 19:10 20,2 C 21,7 C 51 % 1017,3 hPa 0,0 l/m 3,1 km/h (1 Bft) N-NO 32 2 min 0,000 mm 0,0 UV-I 163 W/m 9,7 C 20,2 C 6,4 km/h (2 Bft) 98,11 %
08.06.2017 19:12 20,1 C 21,7 C 49 % 1017,4 hPa 0,0 l/m 5,4 km/h (1 Bft) NO 40 2 min 0,000 mm 0,0 UV-I 164 W/m 9,0 C 20,1 C 8,0 km/h (2 Bft) 100,00 %
08.06.2017 19:14 20,1 C 21,7 C 51 % 1017,3 hPa 0,0 l/m 3,0 km/h (1 Bft) NO 40 2 min 0,000 mm 0,0 UV-I 163 W/m 9,6 C 20,1 C 6,4 km/h (2 Bft) 93,62 %
08.06.2017 19:16 19,9 C 21,7 C 52 % 1017,3 hPa 0,0 l/m 2,6 km/h (1 Bft) N-NO 33 2 min 0,000 mm 0,0 UV-I 165 W/m 9,7 C 19,9 C 4,8 km/h (1 Bft) 96,43 %
08.06.2017 19:18 19,8 C 21,7 C 53 % 1017,3 hPa 0,0 l/m 3,5 km/h (1 Bft) N-NO 33 2 min 0,000 mm 0,0 UV-I 168 W/m 9,9 C 19,8 C 6,4 km/h (2 Bft) 100,00 %
08.06.2017 19:20 19,6 C 21,7 C 52 % 1017,3 hPa 0,0 l/m 4,8 km/h (1 Bft) N-NO 31 2 min 0,000 mm 0,0 UV-I 162 W/m 9,5 C 19,6 C 9,7 km/h (2 Bft) 98,00 %
08.06.2017 19:22 19,6 C 21,7 C 52 % 1017,3 hPa 0,0 l/m 4,6 km/h (1 Bft) N-NO 29 2 min 0,000 mm 0,0 UV-I 159 W/m 9,5 C 19,6 C 9,7 km/h (2 Bft) 100,00 %
08.06.2017 19:24 19,5 C 21,7 C 54 % 1017,3 hPa 0,0 l/m 2,1 km/h (1 Bft) N-NO 28 2 min 0,000 mm 0,0 UV-I 158 W/m 9,9 C 19,5 C 6,4 km/h (2 Bft) 97,30 %
08.06.2017 19:25 19,5 C 21,7 C 54 % 1017,2 hPa 0,0 l/m 3,2 km/h (1 Bft) N-NO 22 1 min 0,000 mm 0,0 UV-I 159 W/m 9,9 C 19,5 C 9,7 km/h (2 Bft) 100,00 %
08.06.2017 19:30 19,3 C 21,7 C 53 % 1017,2 hPa 0,0 l/m 3,2 km/h (1 Bft) N-NO 22 5 min 0,000 mm 0,0 UV-I 153 W/m 9,5 C 19,3 C 8,0 km/h (2 Bft) 100,00 %
08.06.2017 19:35 19,2 C 21,7 C 54 % 1017,3 hPa 0,0 l/m 1,6 km/h (1 Bft) N-NO 22 5 min 0,000 mm 0,0 UV-I 142 W/m 9,7 C 19,2 C 8,0 km/h (2 Bft) 99,12 %
08.06.2017 19:40 19,1 C 21,7 C 54 % 1017,3 hPa 0,0 l/m 4,8 km/h (1 Bft) N-NO 22 5 min 0,000 mm 0,0 UV-I 112 W/m 9,6 C 19,1 C 8,0 km/h (2 Bft) 97,37 %
08.06.2017 19:42 19,0 C 21,7 C 55 % 1017,3 hPa 0,0 l/m 5,1 km/h (1 Bft) N-NO 24 2 min 0,000 mm 0,0 UV-I 102 W/m 9,8 C 19,0 C 8,0 km/h (2 Bft) 91,67 %
08.06.2017 19:44 18,9 C 21,7 C 57 % 1017,3 hPa 0,0 l/m 3,4 km/h (1 Bft) N-NO 22 2 min 0,000 mm 0,0 UV-I 99 W/m 10,2 C 18,9 C 8,0 km/h (2 Bft) 96,00 %
08.06.2017 19:46 18,7 C 21,7 C 58 % 1017,3 hPa 0,0 l/m 1,1 km/h (1 Bft) N-NO 17 2 min 0,000 mm 0,0 UV-I 95 W/m 10,3 C 18,7 C 4,8 km/h (1 Bft) 97,37 %
08.06.2017 19:48 18,6 C 21,7 C 59 % 1017,3 hPa 0,0 l/m 1,6 km/h (1 Bft) N-NO 17 2 min 0,000 mm 0,0 UV-I 92 W/m 10,4 C 18,6 C 4,8 km/h (1 Bft) 93,62 %
08.06.2017 19:50 18,5 C 21,7 C 59 % 1017,2 hPa 0,0 l/m 4,1 km/h (1 Bft) N-NO 28 2 min 0,000 mm 0,0 UV-I 96 W/m 10,3 C 18,5 C 9,7 km/h (2 Bft) 96,23 %
08.06.2017 19:52 18,4 C 21,7 C 59 % 1017,2 hPa 0,0 l/m 1,8 km/h (1 Bft) N-NO 26 0 min 0,000 mm 0,0 UV-I 85 W/m 10,2 C 18,4 C 4,8 km/h (1 Bft) 97,56 %
08.06.2017 19:54 18,3 C 21,7 C 59 % 1017,2 hPa 0,0 l/m 1,0 km/h (0 Bft) N-NO 26 2 min 0,000 mm 0,0 UV-I 92 W/m 10,1 C 18,3 C 3,2 km/h (1 Bft) 96,00 %
08.06.2017 19:56 18,2 C 21,7 C 61 % 1017,2 hPa 0,0 l/m 1,6 km/h (1 Bft) N-NO 26 2 min 0,000 mm 0,0 UV-I 100 W/m 10,6 C 18,2 C 4,8 km/h (1 Bft) 95,74 %
08.06.2017 19:58 18,2 C 21,7 C 61 % 1017,2 hPa 0,0 l/m 1,4 km/h (1 Bft) N-NO 27 2 min 0,000 mm 0,0 UV-I 92 W/m 10,6 C 18,2 C 3,2 km/h (1 Bft) 94,00 %
08.06.2017 20:00 18,2 C 22,2 C 61 % 1017,2 hPa 0,0 l/m 1,1 km/h (1 Bft) N-NO 27 2 min 0,102 mm 0,0 UV-I 81 W/m 10,6 C 18,2 C 3,2 km/h (1 Bft) 95,74 %
08.06.2017 20:02 18,1 C 22,2 C 60 % 1017,2 hPa 0,0 l/m 4,6 km/h (1 Bft) N-NO 32 2 min 0,000 mm 0,0 UV-I 75 W/m 10,2 C 18,1 C 8,0 km/h (2 Bft) 97,44 %
08.06.2017 20:04 17,9 C 22,2 C 60 % 1017,1 hPa 0,0 l/m 2,8 km/h (1 Bft) N-NO 32 0 min 0,000 mm 0,0 UV-I 68 W/m 10,0 C 17,9 C 6,4 km/h (2 Bft) 90,91 %
08.06.2017 20:06 17,8 C 22,2 C 60 % 1017,1 hPa 0,0 l/m 4,2 km/h (1 Bft) N-NO 18 0 min 0,000 mm 0,0 UV-I 60 W/m 9,9 C 17,8 C 6,4 km/h (2 Bft) 96,23 %
08.06.2017 20:08 17,8 C 22,2 C 60 % 1017,1 hPa 0,0 l/m 1,6 km/h (1 Bft) N-NO 17 0 min 0,000 mm 0,0 UV-I 63 W/m 9,9 C 17,8 C 3,2 km/h (1 Bft) 100,00 %
08.06.2017 20:10 17,8 C 22,2 C 61 % 1017,0 hPa 0,0 l/m 0,7 km/h (0 Bft) N-NO 17 2 min 0,000 mm 0,0 UV-I 64 W/m 10,2 C 17,8 C 1,6 km/h (1 Bft) 97,37 %
08.06.2017 20:12 17,8 C 21,7 C 60 % 1017,1 hPa 0,0 l/m 1,0 km/h (0 Bft) N-NO 17 2 min 0,000 mm 0,0 UV-I 63 W/m 9,9 C 17,8 C 3,2 km/h (1 Bft) 100,00 %
08.06.2017 20:14 17,8 C 22,2 C 60 % 1017,1 hPa 0,0 l/m 0,6 km/h (0 Bft) N-NO 17 2 min 0,000 mm 0,0 UV-I 58 W/m 9,9 C 17,8 C 3,2 km/h (1 Bft) 96,00 %
08.06.2017 20:16 17,8 C 22,2 C 60 % 1017,1 hPa 0,0 l/m 1,7 km/h (1 Bft) N-NO 17 2 min 0,000 mm 0,0 UV-I 56 W/m 9,9 C 17,8 C 3,2 km/h (1 Bft) 95,12 %
08.06.2017 20:18 17,9 C 22,2 C 59 % 1017,1 hPa 0,0 l/m 2,5 km/h (1 Bft) N-NO 17 2 min 0,000 mm 0,0 UV-I 60 W/m 9,8 C 17,9 C 3,2 km/h (1 Bft) 98,00 %
08.06.2017 20:20 17,9 C 22,2 C 59 % 1017,0 hPa 0,0 l/m 1,9 km/h (1 Bft) N-NO 17 2 min 0,000 mm 0,0 UV-I 62 W/m 9,8 C 17,9 C 3,2 km/h (1 Bft) 96,00 %
08.06.2017 20:23 18,0 C 22,2 C 60 % 1017,0 hPa 0,0 l/m 0,2 km/h (0 Bft) N-NO 17 3 min 0,000 mm 0,0 UV-I 58 W/m 10,1 C 18,0 C 1,6 km/h (1 Bft) 100,00 %
08.06.2017 20:24 18,0 C 22,2 C 60 % 1017,0 hPa 0,0 l/m 0,4 km/h (0 Bft) N-NO 17 1 min 0,000 mm 0,0 UV-I 56 W/m 10,1 C 18,0 C 1,6 km/h (1 Bft) 96,15 %
08.06.2017 20:26 18,0 C 22,2 C 60 % 1017,0 hPa 0,0 l/m 0,1 km/h (0 Bft) N-NO 17 2 min 0,000 mm 0,0 UV-I 53 W/m 10,1 C 18,0 C 1,6 km/h (1 Bft) 95,74 %
08.06.2017 20:28 18,0 C 22,2 C 59 % 1017,1 hPa 0,0 l/m 0,0 km/h (0 Bft) N-NO 17 2 min 0,000 mm 0,0 UV-I 50 W/m 9,9 C 18,0 C 0,0 km/h (0 Bft) 97,56 %
08.06.2017 20:30 18,0 C 22,2 C 59 % 1017,1 hPa 0,0 l/m 0,0 km/h (0 Bft) N-NO 17 2 min 0,000 mm 0,0 UV-I 47 W/m 9,9 C 18,0 C 0,0 km/h (0 Bft) 97,87 %
08.06.2017 20:32 18,0 C 22,2 C 59 % 1017,1 hPa 0,0 l/m 0,0 km/h (0 Bft) N-NO 17 2 min 0,000 mm 0,0 UV-I 44 W/m 9,9 C 18,0 C 0,0 km/h (0 Bft) 95,74 %
08.06.2017 20:34 18,0 C 22,2 C 59 % 1017,1 hPa 0,0 l/m 0,0 km/h (0 Bft) N-NO 17 2 min 0,000 mm 0,0 UV-I 40 W/m 9,9 C 18,0 C 0,0 km/h (0 Bft) 100,00 %
08.06.2017 20:36 17,9 C 22,2 C 59 % 1017,1 hPa 0,0 l/m 0,0 km/h (0 Bft) N-NO 17 2 min 0,000 mm 0,0 UV-I 36 W/m 9,8 C 17,9 C 0,0 km/h (0 Bft) 94,74 %
08.06.2017 20:38 17,9 C 22,2 C 59 % 1017,0 hPa 0,0 l/m 0,0 km/h (0 Bft) N-NO 17 2 min 0,000 mm 0,0 UV-I 32 W/m 9,8 C 17,9 C 0,0 km/h (0 Bft) 97,22 %
08.06.2017 20:40 17,8 C 22,2 C 59 % 1017,0 hPa 0,0 l/m 0,0 km/h (0 Bft) N-NO 17 2 min 0,000 mm 0,0 UV-I 31 W/m 9,7 C 17,8 C 0,0 km/h (0 Bft) 93,62 %
08.06.2017 20:42 17,8 C 22,2 C 59 % 1017,1 hPa 0,0 l/m 0,0 km/h (0 Bft) N-NO 17 2 min 0,000 mm 0,0 UV-I 29 W/m 9,7 C 17,8 C 0,0 km/h (0 Bft) 98,00 %
08.06.2017 20:44 17,7 C 22,2 C 58 % 1017,1 hPa 0,0 l/m 0,0 km/h (0 Bft) N-NO 17 2 min 0,000 mm 0,0 UV-I 27 W/m 9,3 C 17,7 C 0,0 km/h (0 Bft) 97,87 %
08.06.2017 20:46 17,7 C 22,2 C 59 % 1017,1 hPa 0,0 l/m 0,0 km/h (0 Bft) N-NO 17 2 min 0,000 mm 0,0 UV-I 25 W/m 9,6 C 17,7 C 0,0 km/h (0 Bft) 95,74 %
08.06.2017 20:48 17,6 C 22,8 C 59 % 1017,1 hPa 0,0 l/m 0,0 km/h (0 Bft) N-NO 17 2 min 0,000 mm 0,0 UV-I 23 W/m 9,5 C 17,6 C 0,0 km/h (0 Bft) 96,00 %
08.06.2017 20:50 17,5 C 22,8 C 60 % 1017,1 hPa 0,0 l/m 0,0 km/h (0 Bft) N-NO 17 0 min 0,000 mm 0,0 UV-I 13 W/m 9,6 C 17,5 C 0,0 km/h (0 Bft) 95,74 %
08.06.2017 20:52 17,4 C 22,8 C 62 % 1017,1 hPa 0,0 l/m 0,0 km/h (0 Bft) N-NO 17 0 min 0,000 mm 0,0 UV-I 19 W/m 10,0 C 17,4 C 0,0 km/h (0 Bft) 98,00 %
08.06.2017 20:54 17,3 C 22,8 C 62 % 1017,1 hPa 0,0 l/m 1,0 km/h (0 Bft) N-NO 17 0 min 0,000 mm 0,0 UV-I 16 W/m 9,9 C 17,3 C 1,6 km/h (1 Bft) 97,37 %
08.06.2017 20:56 17,3 C 22,8 C 64 % 1017,1 hPa 0,0 l/m 1,0 km/h (0 Bft) N-NO 17 0 min 0,000 mm 0,0 UV-I 15 W/m 10,4 C 17,3 C 1,6 km/h (1 Bft) 93,62 %
08.06.2017 20:58 17,2 C 22,2 C 65 % 1017,1 hPa 0,0 l/m 1,1 km/h (1 Bft) N-NO 17 0 min 0,000 mm 0,0 UV-I 12 W/m 10,6 C 17,2 C 1,6 km/h (1 Bft) 96,00 %
08.06.2017 21:00 17,0 C 22,2 C 65 % 1017,1 hPa 0,0 l/m 1,6 km/h (1 Bft) N-NO 17 0 min 0,025 mm 0,0 UV-I 12 W/m 10,4 C 17,0 C 1,6 km/h (1 Bft) 95,45 %
08.06.2017 21:02 16,8 C 22,2 C 66 % 1017,1 hPa 0,0 l/m 1,6 km/h (1 Bft) N-NO 17 0 min 0,000 mm 0,0 UV-I 11 W/m 10,4 C 16,8 C 3,2 km/h (1 Bft) 94,64 %
08.06.2017 21:04 16,7 C 22,2 C 66 % 1017,2 hPa 0,0 l/m 2,0 km/h (1 Bft) N-NO 17 0 min 0,000 mm 0,0 UV-I 9 W/m 10,3 C 16,7 C 3,2 km/h (1 Bft) 97,37 %
08.06.2017 21:06 16,6 C 22,2 C 65 % 1017,1 hPa 0,0 l/m 2,1 km/h (1 Bft) N-NO 17 0 min 0,000 mm 0,0 UV-I 7 W/m 10,0 C 16,6 C 3,2 km/h (1 Bft) 94,00 %
08.06.2017 21:08 16,6 C 22,2 C 66 % 1017,2 hPa 0,0 l/m 1,2 km/h (1 Bft) N-NO 17 0 min 0,000 mm 0,0 UV-I 6 W/m 10,2 C 16,6 C 3,2 km/h (1 Bft) 98,00 %
08.06.2017 21:10 16,4 C 22,2 C 65 % 1017,2 hPa 0,0 l/m 0,0 km/h (0 Bft) N-NO 17 0 min 0,000 mm 0,0 UV-I 5 W/m 9,8 C 16,4 C 0,0 km/h (0 Bft) 97,37 %
08.06.2017 21:12 16,3 C 22,2 C 65 % 1017,2 hPa 0,0 l/m 0,0 km/h (0 Bft) N-NO 17 0 min 0,000 mm 0,0 UV-I 5 W/m 9,7 C 16,3 C 0,0 km/h (0 Bft) 95,74 %
08.06.2017 21:14 16,1 C 22,2 C 66 % 1017,2 hPa 0,0 l/m 0,0 km/h (0 Bft) N-NO 17 0 min 0,000 mm 0,0 UV-I 5 W/m 9,7 C 16,1 C 0,0 km/h (0 Bft) 96,23 %
08.06.2017 21:16 16,0 C 22,2 C 67 % 1017,2 hPa 0,0 l/m 0,0 km/h (0 Bft) N-NO 17 0 min 0,000 mm 0,0 UV-I 5 W/m 9,9 C 16,0 C 0,0 km/h (0 Bft) 95,74 %
08.06.2017 21:18 15,8 C 22,2 C 68 % 1017,3 hPa 0,0 l/m 0,0 km/h (0 Bft) N-NO 17 0 min 0,000 mm 0,0 UV-I 0 W/m 9,9 C 15,8 C 0,0 km/h (0 Bft) 95,74 %
08.06.2017 21:20 15,7 C 22,2 C 68 % 1017,2 hPa 0,0 l/m 0,0 km/h (0 Bft) N-NO 17 0 min 0,000 mm 0,0 UV-I 0 W/m 9,8 C 15,7 C 0,0 km/h (0 Bft) 98,00 %
08.06.2017 21:22 15,6 C 22,2 C 68 % 1017,2 hPa 0,0 l/m 0,0 km/h (0 Bft) N-NO 17 0 min 0,000 mm 0,0 UV-I 0 W/m 9,7 C 15,6 C 0,0 km/h (0 Bft) 94,87 %
08.06.2017 21:24 15,5 C 22,2 C 68 % 1017,2 hPa 0,0 l/m 0,0 km/h (0 Bft) N-NO 17 0 min 0,000 mm 0,0 UV-I 0 W/m 9,6 C 15,5 C 0,0 km/h (0 Bft) 98,00 %
08.06.2017 21:26 15,4 C 22,2 C 69 % 1017,2 hPa 0,0 l/m 0,0 km/h (0 Bft) N-NO 17 0 min 0,000 mm 0,0 UV-I 0 W/m 9,7 C 15,4 C 0,0 km/h (0 Bft) 93,62 %
08.06.2017 21:28 15,4 C 22,2 C 69 % 1017,2 hPa 0,0 l/m 0,0 km/h (0 Bft) N-NO 17 0 min 0,000 mm 0,0 UV-I 0 W/m 9,7 C 15,4 C 0,0 km/h (0 Bft) 95,74 %
08.06.2017 21:30 15,3 C 22,2 C 70 % 1017,2 hPa 0,0 l/m 0,0 km/h (0 Bft) N-NO 17 0 min 0,000 mm 0,0 UV-I 0 W/m 9,9 C 15,3 C 0,0 km/h (0 Bft) 97,87 %
08.06.2017 21:32 15,3 C 22,2 C 71 % 1017,3 hPa 0,0 l/m 0,0 km/h (0 Bft) N-NO 17 0 min 0,000 mm 0,0 UV-I 0 W/m 10,1 C 15,3 C 0,0 km/h (0 Bft) 92,00 %
08.06.2017 21:34 15,2 C 22,2 C 70 % 1017,2 hPa 0,0 l/m 0,0 km/h (0 Bft) N-NO 17 0 min 0,000 mm 0,0 UV-I 0 W/m 9,8 C 15,2 C 0,0 km/h (0 Bft) 100,00 %
08.06.2017 21:36 15,1 C 22,2 C 72 % 1017,3 hPa 0,0 l/m 0,0 km/h (0 Bft) N-NO 17 0 min 0,000 mm 0,0 UV-I 0 W/m 10,1 C 15,1 C 0,0 km/h (0 Bft) 96,23 %
08.06.2017 21:38 15,0 C 22,2 C 72 % 1017,3 hPa 0,0 l/m 0,0 km/h (0 Bft) N-NO 17 0 min 0,000 mm 0,0 UV-I 0 W/m 10,0 C 15,0 C 0,0 km/h (0 Bft) 100,00 %
08.06.2017 21:40 14,9 C 22,2 C 73 % 1017,3 hPa 0,0 l/m 0,0 km/h (0 Bft) N-NO 17 0 min 0,000 mm 0,0 UV-I 0 W/m 10,1 C 14,9 C 0,0 km/h (0 Bft) 96,00 %
08.06.2017 21:42 14,9 C 22,2 C 74 % 1017,3 hPa 0,0 l/m 0,0 km/h (0 Bft) N-NO 17 0 min 0,000 mm 0,0 UV-I 0 W/m 10,3 C 14,9 C 0,0 km/h (0 Bft) 96,00 %
08.06.2017 21:44 14,8 C 22,2 C 75 % 1017,4 hPa 0,0 l/m 0,0 km/h (0 Bft) N-NO 17 0 min 0,000 mm 0,0 UV-I 0 W/m 10,4 C 14,8 C 0,0 km/h (0 Bft) 100,00 %
08.06.2017 21:46 14,8 C 22,2 C 75 % 1017,3 hPa 0,0 l/m 0,0 km/h (0 Bft) N-NO 17 0 min 0,000 mm 0,0 UV-I 0 W/m 10,4 C 14,8 C 0,0 km/h (0 Bft) 94,00 %
08.06.2017 21:48 14,7 C 22,2 C 76 % 1017,4 hPa 0,0 l/m 0,0 km/h (0 Bft) N-NO 17 0 min 0,000 mm 0,0 UV-I 0 W/m 10,5 C 14,7 C 0,0 km/h (0 Bft) 97,87 %
08.06.2017 21:50 14,5 C 22,2 C 77 % 1017,4 hPa 0,0 l/m 0,0 km/h (0 Bft) N-NO 17 0 min 0,000 mm 0,0 UV-I 0 W/m 10,5 C 14,5 C 0,0 km/h (0 Bft) 96,00 %
08.06.2017 21:52 14,4 C 22,2 C 77 % 1017,4 hPa 0,0 l/m 0,0 km/h (0 Bft) N-NO 17 0 min 0,000 mm 0,0 UV-I 0 W/m 10,4 C 14,4 C 0,0 km/h (0 Bft) 93,62 %
08.06.2017 21:54 14,4 C 22,2 C 77 % 1017,4 hPa 0,0 l/m 0,0 km/h (0 Bft) N-NO 17 0 min 0,000 mm 0,0 UV-I 0 W/m 10,4 C 14,4 C 0,0 km/h (0 Bft) 98,00 %
08.06.2017 21:56 14,3 C 22,2 C 78 % 1017,5 hPa 0,0 l/m 0,0 km/h (0 Bft) N-NO 17 0 min 0,000 mm 0,0 UV-I 0 W/m 10,5 C 14,3 C 0,0 km/h (0 Bft) 94,00 %
08.06.2017 21:58 14,2 C 22,2 C 78 % 1017,4 hPa 0,0 l/m 0,0 km/h (0 Bft) N-NO 17 0 min 0,000 mm 0,0 UV-I 0 W/m 10,4 C 14,2 C 0,0 km/h (0 Bft) 95,74 %
08.06.2017 22:00 14,2 C 22,2 C 78 % 1017,4 hPa 0,0 l/m 0,0 km/h (0 Bft) N-NO 17 0 min 0,000 mm 0,0 UV-I 0 W/m 10,4 C 14,2 C 0,0 km/h (0 Bft) 93,62 %
08.06.2017 22:02 14,1 C 22,2 C 78 % 1017,4 hPa 0,0 l/m 0,0 km/h (0 Bft) N-NO 17 0 min 0,000 mm 0,0 UV-I 0 W/m 10,3 C 14,1 C 0,0 km/h (0 Bft) 97,44 %
08.06.2017 22:04 14,0 C 22,2 C 78 % 1017,5 hPa 0,0 l/m 0,0 km/h (0 Bft) N-NO 17 0 min 0,000 mm 0,0 UV-I 0 W/m 10,2 C 14,0 C 0,0 km/h (0 Bft) 98,00 %
08.06.2017 22:06 13,9 C 22,2 C 78 % 1017,4 hPa 0,0 l/m 0,0 km/h (0 Bft) N-NO 17 0 min 0,000 mm 0,0 UV-I 0 W/m 10,1 C 13,9 C 0,0 km/h (0 Bft) 97,87 %
08.06.2017 22:08 13,8 C 22,2 C 77 % 1017,5 hPa 0,0 l/m 1,4 km/h (1 Bft) N-NO 17 0 min 0,000 mm 0,0 UV-I 0 W/m 9,8 C 13,8 C 3,2 km/h (1 Bft) 92,00 %
08.06.2017 22:10 13,8 C 22,2 C 76 % 1017,4 hPa 0,0 l/m 0,6 km/h (0 Bft) N-NO 17 0 min 0,000 mm 0,0 UV-I 0 W/m 9,6 C 13,8 C 1,6 km/h (1 Bft) 97,37 %
08.06.2017 22:12 13,8 C 22,2 C 76 % 1017,5 hPa 0,0 l/m 0,0 km/h (0 Bft) N-NO 17 0 min 0,000 mm 0,0 UV-I 0 W/m 9,6 C 13,8 C 0,0 km/h (0 Bft) 95,74 %
08.06.2017 22:14 13,7 C 22,2 C 75 % 1017,5 hPa 0,0 l/m 0,0 km/h (0 Bft) N-NO 17 0 min 0,000 mm 0,0 UV-I 0 W/m 9,3 C 13,7 C 0,0 km/h (0 Bft) 98,11 %
08.06.2017 22:16 13,8 C 22,2 C 75 % 1017,4 hPa 0,0 l/m 0,0 km/h (0 Bft) N-NO 17 0 min 0,000 mm 0,0 UV-I 0 W/m 9,4 C 13,8 C 0,0 km/h (0 Bft) 96,00 %
08.06.2017 22:18 13,8 C 22,2 C 76 % 1017,5 hPa 0,0 l/m 0,1 km/h (0 Bft) N-NO 17 0 min 0,000 mm 0,0 UV-I 0 W/m 9,6 C 13,8 C 1,6 km/h (1 Bft) 95,74 %
08.06.2017 22:20 13,8 C 22,2 C 74 % 1017,4 hPa 0,0 l/m 0,0 km/h (0 Bft) N-NO 17 0 min 0,000 mm 0,0 UV-I 0 W/m 9,2 C 13,8 C 0,0 km/h (0 Bft) 92,11 %
08.06.2017 22:22 13,8 C 22,2 C 75 % 1017,5 hPa 0,0 l/m 0,0 km/h (0 Bft) N-NO 17 0 min 0,000 mm 0,0 UV-I 0 W/m 9,4 C 13,8 C 0,0 km/h (0 Bft) 100,00 %
08.06.2017 22:24 13,8 C 22,2 C 76 % 1017,5 hPa 0,0 l/m 0,0 km/h (0 Bft) N-NO 17 0 min 0,000 mm 0,0 UV-I 0 W/m 9,6 C 13,8 C 0,0 km/h (0 Bft) 100,00 %
08.06.2017 22:26 13,7 C 22,2 C 76 % 1017,4 hPa 0,0 l/m 0,1 km/h (0 Bft) N-NO 17 0 min 0,000 mm 0,0 UV-I 0 W/m 9,5 C 13,7 C 1,6 km/h (1 Bft) 100,00 %
08.06.2017 22:28 13,6 C 22,2 C 75 % 1017,5 hPa 0,0 l/m 0,0 km/h (0 Bft) N-NO 17 0 min 0,000 mm 0,0 UV-I 0 W/m 9,3 C 13,6 C 0,0 km/h (0 Bft) 100,00 %
08.06.2017 22:30 13,6 C 22,2 C 76 % 1017,5 hPa 0,0 l/m 0,0 km/h (0 Bft) N-NO 17 0 min 0,000 mm 0,0 UV-I 0 W/m 9,4 C 13,6 C 0,0 km/h (0 Bft) 97,87 %
08.06.2017 22:32 13,5 C 22,2 C 77 % 1017,5 hPa 0,0 l/m 0,0 km/h (0 Bft) N-NO 17 0 min 0,000 mm 0,0 UV-I 0 W/m 9,5 C 13,5 C 0,0 km/h (0 Bft) 97,87 %
08.06.2017 22:34 13,4 C 22,2 C 77 % 1017,5 hPa 0,0 l/m 0,0 km/h (0 Bft) N-NO 17 0 min 0,000 mm 0,0 UV-I 0 W/m 9,5 C 13,4 C 0,0 km/h (0 Bft) 100,00 %
08.06.2017 22:36 13,4 C 22,2 C 78 % 1017,5 hPa 0,0 l/m 0,0 km/h (0 Bft) N-NO 17 0 min 0,000 mm 0,0 UV-I 0 W/m 9,6 C 13,4 C 0,0 km/h (0 Bft) 98,00 %
08.06.2017 22:38 13,3 C 22,2 C 77 % 1017,5 hPa 0,0 l/m 0,0 km/h (0 Bft) N-NO 17 0 min 0,000 mm 0,0 UV-I 0 W/m 9,4 C 13,3 C 0,0 km/h (0 Bft) 98,00 %
08.06.2017 22:40 13,3 C 22,2 C 76 % 1017,5 hPa 0,0 l/m 0,0 km/h (0 Bft) N-NO 17 0 min 0,000 mm 0,0 UV-I 0 W/m 9,2 C 13,3 C 0,0 km/h (0 Bft) 97,87 %
08.06.2017 22:42 13,3 C 22,2 C 77 % 1017,5 hPa 0,0 l/m 0,0 km/h (0 Bft) N-NO 17 0 min 0,000 mm 0,0 UV-I 0 W/m 9,4 C 13,3 C 0,0 km/h (0 Bft) 97,87 %
08.06.2017 22:44 13,2 C 22,2 C 76 % 1017,5 hPa 0,0 l/m 0,0 km/h (0 Bft) N-NO 17 0 min 0,000 mm 0,0 UV-I 0 W/m 9,1 C 13,2 C 0,0 km/h (0 Bft) 97,87 %
08.06.2017 22:46 13,2 C 22,2 C 76 % 1017,4 hPa 0,0 l/m 0,0 km/h (0 Bft) N-NO 17 0 min 0,000 mm 0,0 UV-I 0 W/m 9,1 C 13,2 C 0,0 km/h (0 Bft) 98,00 %
08.06.2017 22:48 13,1 C 22,2 C 77 % 1017,4 hPa 0,0 l/m 0,0 km/h (0 Bft) N-NO 17 0 min 0,000 mm 0,0 UV-I 0 W/m 9,2 C 13,1 C 0,0 km/h (0 Bft) 100,00 %
08.06.2017 22:50 13,1 C 22,2 C 77 % 1017,4 hPa 0,0 l/m 0,0 km/h (0 Bft) N-NO 17 0 min 0,000 mm 0,0 UV-I 0 W/m 9,2 C 13,1 C 0,0 km/h (0 Bft) 97,87 %
08.06.2017 22:53 13,0 C 22,2 C 77 % 1017,4 hPa 0,0 l/m 0,0 km/h (0 Bft) N-NO 17 0 min 0,000 mm 0,0 UV-I 0 W/m 9,1 C 13,0 C 0,0 km/h (0 Bft) 98,63 %
08.06.2017 22:54 13,0 C 22,2 C 78 % 1017,4 hPa 0,0 l/m 0,0 km/h (0 Bft) N-NO 17 0 min 0,000 mm 0,0 UV-I 0 W/m 9,3 C 13,0 C 0,0 km/h (0 Bft) 100,00 %
08.06.2017 22:56 12,9 C 22,2 C 78 % 1017,4 hPa 0,0 l/m 0,0 km/h (0 Bft) N-NO 17 0 min 0,000 mm 0,0 UV-I 0 W/m 9,2 C 12,9 C 0,0 km/h (0 Bft) 94,74 %
08.06.2017 22:58 12,8 C 22,2 C 78 % 1017,4 hPa 0,0 l/m 0,0 km/h (0 Bft) N-NO 17 0 min 0,000 mm 0,0 UV-I 0 W/m 9,1 C 12,8 C 0,0 km/h (0 Bft) 100,00 %
08.06.2017 23:00 12,8 C 22,2 C 78 % 1017,4 hPa 0,0 l/m 1,0 km/h (0 Bft) N-NO 17 0 min 0,000 mm 0,0 UV-I 0 W/m 9,1 C 12,8 C 3,2 km/h (1 Bft) 98,00 %
08.06.2017 23:02 12,8 C 22,2 C 77 % 1017,4 hPa 0,0 l/m 0,4 km/h (0 Bft) N-NO 17 0 min 0,000 mm 0,0 UV-I 0 W/m 8,9 C 12,8 C 1,6 km/h (1 Bft) 98,11 %
08.06.2017 23:04 12,8 C 22,2 C 77 % 1017,4 hPa 0,0 l/m 0,0 km/h (0 Bft) N-NO 17 0 min 0,000 mm 0,0 UV-I 0 W/m 8,9 C 12,8 C 0,0 km/h (0 Bft) 100,00 %
08.06.2017 23:06 12,7 C 22,2 C 77 % 1017,4 hPa 0,0 l/m 0,0 km/h (0 Bft) N-NO 17 0 min 0,000 mm 0,0 UV-I 0 W/m 8,8 C 12,7 C 0,0 km/h (0 Bft) 100,00 %
08.06.2017 23:09 12,6 C 22,2 C 76 % 1017,4 hPa 0,0 l/m 0,0 km/h (0 Bft) N-NO 17 0 min 0,000 mm 0,0 UV-I 0 W/m 8,5 C 12,6 C 0,0 km/h (0 Bft) 98,70 %
08.06.2017 23:10 12,6 C 22,2 C 76 % 1017,4 hPa 0,0 l/m 0,0 km/h (0 Bft) N-NO 17 0 min 0,000 mm 0,0 UV-I 0 W/m 8,5 C 12,6 C 0,0 km/h (0 Bft) 100,00 %
08.06.2017 23:12 12,6 C 22,2 C 77 % 1017,4 hPa 0,0 l/m 0,3 km/h (0 Bft) N-NO 17 0 min 0,000 mm 0,0 UV-I 0 W/m 8,7 C 12,6 C 1,6 km/h (1 Bft) 100,00 %
08.06.2017 23:14 12,6 C 22,2 C 76 % 1017,4 hPa 0,0 l/m 1,1 km/h (1 Bft) N-NO 17 0 min 0,000 mm 0,0 UV-I 0 W/m 8,5 C 12,6 C 1,6 km/h (1 Bft) 100,00 %
08.06.2017 23:16 12,6 C 22,2 C 76 % 1017,4 hPa 0,0 l/m 1,6 km/h (1 Bft) N-NO 17 0 min 0,000 mm 0,0 UV-I 0 W/m 8,5 C 12,6 C 3,2 km/h (1 Bft) 98,00 %
08.06.2017 23:18 12,6 C 22,2 C 77 % 1017,4 hPa 0,0 l/m 1,6 km/h (1 Bft) N-NO 17 0 min 0,000 mm 0,0 UV-I 0 W/m 8,7 C 12,6 C 3,2 km/h (1 Bft) 100,00 %
08.06.2017 23:20 12,6 C 22,2 C 77 % 1017,3 hPa 0,0 l/m 0,0 km/h (0 Bft) N-NO 17 0 min 0,000 mm 0,0 UV-I 0 W/m 8,7 C 12,6 C 0,0 km/h (0 Bft) 94,00 %
08.06.2017 23:22 12,5 C 22,2 C 77 % 1017,3 hPa 0,0 l/m 0,0 km/h (0 Bft) N-NO 17 0 min 0,000 mm 0,0 UV-I 0 W/m 8,6 C 12,5 C 0,0 km/h (0 Bft) 98,00 %
08.06.2017 23:24 12,4 C 22,2 C 76 % 1017,3 hPa 0,0 l/m 0,0 km/h (0 Bft) N-NO 17 0 min 0,000 mm 0,0 UV-I 0 W/m 8,3 C 12,4 C 0,0 km/h (0 Bft) 100,00 %
08.06.2017 23:26 12,4 C 22,2 C 76 % 1017,3 hPa 0,0 l/m 0,0 km/h (0 Bft) N-NO 17 0 min 0,000 mm 0,0 UV-I 0 W/m 8,3 C 12,4 C 0,0 km/h (0 Bft) 100,00 %
08.06.2017 23:28 12,3 C 22,2 C 76 % 1017,4 hPa 0,0 l/m 0,0 km/h (0 Bft) N-NO 17 0 min 0,000 mm 0,0 UV-I 0 W/m 8,2 C 12,3 C 0,0 km/h (0 Bft) 100,00 %
08.06.2017 23:30 12,3 C 22,2 C 76 % 1017,4 hPa 0,0 l/m 1,0 km/h (0 Bft) N-NO 17 0 min 0,000 mm 0,0 UV-I 0 W/m 8,2 C 12,3 C 3,2 km/h (1 Bft) 100,00 %
08.06.2017 23:32 12,4 C 22,2 C 76 % 1017,4 hPa 0,0 l/m 1,8 km/h (1 Bft) N-NO 17 0 min 0,000 mm 0,0 UV-I 0 W/m 8,3 C 12,4 C 3,2 km/h (1 Bft) 100,00 %
08.06.2017 23:34 12,4 C 22,2 C 76 % 1017,4 hPa 0,0 l/m 1,6 km/h (1 Bft) N-NO 17 0 min 0,000 mm 0,0 UV-I 0 W/m 8,3 C 12,4 C 3,2 km/h (1 Bft) 100,00 %
08.06.2017 23:36 12,4 C 22,2 C 77 % 1017,4 hPa 0,0 l/m 1,7 km/h (1 Bft) N-NO 17 0 min 0,000 mm 0,0 UV-I 0 W/m 8,5 C 12,4 C 3,2 km/h (1 Bft) 100,00 %
08.06.2017 23:38 12,4 C 22,2 C 77 % 1017,4 hPa 0,0 l/m 0,7 km/h (0 Bft) N-NO 17 0 min 0,000 mm 0,0 UV-I 0 W/m 8,5 C 12,4 C 1,6 km/h (1 Bft) 93,62 %
08.06.2017 23:40 12,3 C 22,2 C 77 % 1017,4 hPa 0,0 l/m 2,3 km/h (1 Bft) N-NO 17 0 min 0,000 mm 0,0 UV-I 0 W/m 8,4 C 12,3 C 3,2 km/h (1 Bft) 98,11 %
08.06.2017 23:42 12,3 C 22,2 C 77 % 1017,4 hPa 0,0 l/m 1,9 km/h (1 Bft) N-NO 17 0 min 0,000 mm 0,0 UV-I 0 W/m 8,4 C 12,3 C 3,2 km/h (1 Bft) 97,56 %
08.06.2017 23:44 12,3 C 22,2 C 77 % 1017,3 hPa 0,0 l/m 1,6 km/h (1 Bft) N-NO 17 0 min 0,000 mm 0,0 UV-I 0 W/m 8,4 C 12,3 C 3,2 km/h (1 Bft) 100,00 %
08.06.2017 23:46 12,2 C 22,2 C 77 % 1017,4 hPa 0,0 l/m 2,4 km/h (1 Bft) N-NO 17 0 min 0,000 mm 0,0 UV-I 0 W/m 8,3 C 12,2 C 3,2 km/h (1 Bft) 98,11 %
08.06.2017 23:48 12,2 C 22,2 C 77 % 1017,3 hPa 0,0 l/m 2,8 km/h (1 Bft) N-NO 17 0 min 0,000 mm 0,0 UV-I 0 W/m 8,3 C 12,2 C 4,8 km/h (1 Bft) 97,56 %
08.06.2017 23:50 12,2 C 22,2 C 77 % 1017,4 hPa 0,0 l/m 2,8 km/h (1 Bft) N-NO 17 0 min 0,000 mm 0,0 UV-I 0 W/m 8,3 C 12,2 C 3,2 km/h (1 Bft) 98,00 %
08.06.2017 23:52 12,1 C 22,2 C 77 % 1017,4 hPa 0,0 l/m 3,7 km/h (1 Bft) N-NO 17 0 min 0,000 mm 0,0 UV-I 0 W/m 8,2 C 12,1 C 4,8 km/h (1 Bft) 94,44 %
08.06.2017 23:54 12,1 C 22,2 C 77 % 1017,4 hPa 0,0 l/m 2,8 km/h (1 Bft) N-NO 17 0 min 0,000 mm 0,0 UV-I 0 W/m 8,2 C 12,1 C 4,8 km/h (1 Bft) 91,23 %
08.06.2017 23:56 12,2 C 22,2 C 77 % 1017,4 hPa 0,0 l/m 1,8 km/h (1 Bft) N-NO 17 0 min 0,000 mm 0,0 UV-I 0 W/m 8,3 C 12,2 C 3,2 km/h (1 Bft) 97,44 %
08.06.2017 23:58 12,1 C 22,2 C 77 % 1017,3 hPa 0,0 l/m 1,5 km/h (1 Bft) N-NO 17 0 min 0,000 mm 0,0 UV-I 0 W/m 8,2 C 12,1 C 3,2 km/h (1 Bft) 96,23 %
_ Min-Zeit 05:58 07:18 17:00 20:10 - 05:30 - - - - - - 11:26 03:54 05:34 16:06
Minimum _ 7,1 C 18,9 C 38 % 1017,0 hPa - 0,0 km/h (0 Bft) - - - - - - 5,3 C 7,1 C 0,0 km/h (0 Bft) 86,11 %
_ Max-Zeit 16:38 20:48 05:32 05:48 00:00 16:18 - - 17:46 12:02 11:54 11:42 16:00 16:38 16:18 00:26
Maximum _ 21,6 C 22,8 C 93 % 1022,6 hPa 0,0 l/m 11,9 km/h
N-NO (2 Bft)
- - 6 min 0,508 mm 5,8 UV-I 965 W/m 10,9 C 21,6 C 16,1 km/h
NO (3 Bft)
100,00 %
Durchschnitt _ 14,7 C 20,8 C 68 % 1020,2 hPa #0,0 l/m 3,1 km/h (1 Bft) S-SW - #14:30 h #4,648 mm 3,3 UV-I 479 W/m 8,2 C 14,7 C 5,8 km/h (2 Bft) 96,91 %